<?xml version="1.0" encoding="UTF-8" standalone="no" ?>
<gpx xmlns="http://www.topografix.com/GPX/1/1" xmlns:xsi="http://www.w3.org/2001/XMLSchema-instance" xsi:schemaLocation="http://www.topografix.com/GPX/1/1 http://www.topografix.com/GPX/1/1/gpx.xsd" version="1.1" creator="VisuGPX - https://www.visugpx.com">
  <metadata>
    <name>Rando Aveyron Lot étape 1</name>
    <desc><![CDATA[Capelle Belcastel - 16 sept 2017]]></desc>
  </metadata>
  <trk>
    <name><![CDATA[20170926212535-6dePd]]></name>
    <trkseg>
      <trkpt lat="44.38324" lon="2.48417">
        <ele>577</ele>
        <time>2017-09-16T08:32:29Z</time>
      </trkpt>
      <trkpt lat="44.38325" lon="2.48417">
        <ele>577</ele>
        <time>2017-09-16T08:32:30Z</time>
      </trkpt>
      <trkpt lat="44.38336" lon="2.48414">
        <ele>576</ele>
        <time>2017-09-16T08:32:38Z</time>
      </trkpt>
      <trkpt lat="44.38343" lon="2.48412">
        <ele>575</ele>
        <time>2017-09-16T08:32:45Z</time>
      </trkpt>
      <trkpt lat="44.3837" lon="2.48406">
        <ele>574</ele>
        <time>2017-09-16T08:33:07Z</time>
      </trkpt>
      <trkpt lat="44.38373" lon="2.48407">
        <ele>574</ele>
        <time>2017-09-16T08:33:15Z</time>
      </trkpt>
      <trkpt lat="44.38374" lon="2.4841">
        <ele>574</ele>
        <time>2017-09-16T08:35:04Z</time>
      </trkpt>
      <trkpt lat="44.38376" lon="2.48407">
        <ele>574</ele>
        <time>2017-09-16T08:35:32Z</time>
      </trkpt>
      <trkpt lat="44.38378" lon="2.48405">
        <ele>574</ele>
        <time>2017-09-16T08:35:35Z</time>
      </trkpt>
      <trkpt lat="44.3838" lon="2.48403">
        <ele>574</ele>
        <time>2017-09-16T08:35:39Z</time>
      </trkpt>
      <trkpt lat="44.38386" lon="2.48402">
        <ele>574</ele>
        <time>2017-09-16T08:35:45Z</time>
      </trkpt>
      <trkpt lat="44.38397" lon="2.48398">
        <ele>573</ele>
        <time>2017-09-16T08:35:53Z</time>
      </trkpt>
      <trkpt lat="44.38411" lon="2.48396">
        <ele>573</ele>
        <time>2017-09-16T08:36:03Z</time>
      </trkpt>
      <trkpt lat="44.38417" lon="2.48394">
        <ele>572</ele>
        <time>2017-09-16T08:36:07Z</time>
      </trkpt>
      <trkpt lat="44.38423" lon="2.48392">
        <ele>572</ele>
        <time>2017-09-16T08:36:13Z</time>
      </trkpt>
      <trkpt lat="44.38433" lon="2.48388">
        <ele>572</ele>
        <time>2017-09-16T08:36:19Z</time>
      </trkpt>
      <trkpt lat="44.38459" lon="2.48382">
        <ele>572</ele>
        <time>2017-09-16T08:36:38Z</time>
      </trkpt>
      <trkpt lat="44.38466" lon="2.48379">
        <ele>572</ele>
        <time>2017-09-16T08:36:44Z</time>
      </trkpt>
      <trkpt lat="44.3847" lon="2.48377">
        <ele>572</ele>
        <time>2017-09-16T08:36:47Z</time>
      </trkpt>
      <trkpt lat="44.38504" lon="2.48363">
        <ele>572</ele>
        <time>2017-09-16T08:37:12Z</time>
      </trkpt>
      <trkpt lat="44.38503" lon="2.48362">
        <ele>572</ele>
        <time>2017-09-16T08:37:18Z</time>
      </trkpt>
      <trkpt lat="44.38501" lon="2.48363">
        <ele>572</ele>
        <time>2017-09-16T08:37:21Z</time>
      </trkpt>
      <trkpt lat="44.385" lon="2.48361">
        <ele>572</ele>
        <time>2017-09-16T08:43:05Z</time>
      </trkpt>
      <trkpt lat="44.385" lon="2.48361">
        <ele>571</ele>
        <time>2017-09-16T08:43:05Z</time>
      </trkpt>
      <trkpt lat="44.38503" lon="2.4836">
        <ele>571</ele>
        <time>2017-09-16T08:43:12Z</time>
      </trkpt>
      <trkpt lat="44.38506" lon="2.4836">
        <ele>571</ele>
        <time>2017-09-16T08:43:15Z</time>
      </trkpt>
      <trkpt lat="44.38517" lon="2.48357">
        <ele>572</ele>
        <time>2017-09-16T08:43:27Z</time>
      </trkpt>
      <trkpt lat="44.38531" lon="2.48353">
        <ele>572</ele>
        <time>2017-09-16T08:43:37Z</time>
      </trkpt>
      <trkpt lat="44.38537" lon="2.4835">
        <ele>572</ele>
        <time>2017-09-16T08:43:42Z</time>
      </trkpt>
      <trkpt lat="44.3854" lon="2.48348">
        <ele>572</ele>
        <time>2017-09-16T08:43:45Z</time>
      </trkpt>
      <trkpt lat="44.38542" lon="2.48346">
        <ele>572</ele>
        <time>2017-09-16T08:43:49Z</time>
      </trkpt>
      <trkpt lat="44.38575" lon="2.48335">
        <ele>571</ele>
        <time>2017-09-16T08:44:18Z</time>
      </trkpt>
      <trkpt lat="44.38617" lon="2.48309">
        <ele>571</ele>
        <time>2017-09-16T08:44:50Z</time>
      </trkpt>
      <trkpt lat="44.3862" lon="2.48306">
        <ele>571</ele>
        <time>2017-09-16T08:44:53Z</time>
      </trkpt>
      <trkpt lat="44.38638" lon="2.48292">
        <ele>571</ele>
        <time>2017-09-16T08:45:08Z</time>
      </trkpt>
      <trkpt lat="44.38664" lon="2.48276">
        <ele>571</ele>
        <time>2017-09-16T08:45:29Z</time>
      </trkpt>
      <trkpt lat="44.38667" lon="2.48273">
        <ele>570</ele>
        <time>2017-09-16T08:45:32Z</time>
      </trkpt>
      <trkpt lat="44.38688" lon="2.48261">
        <ele>570</ele>
        <time>2017-09-16T08:45:51Z</time>
      </trkpt>
      <trkpt lat="44.38697" lon="2.48254">
        <ele>570</ele>
        <time>2017-09-16T08:45:59Z</time>
      </trkpt>
      <trkpt lat="44.3873" lon="2.48235">
        <ele>568</ele>
        <time>2017-09-16T08:46:26Z</time>
      </trkpt>
      <trkpt lat="44.38739" lon="2.48234">
        <ele>568</ele>
        <time>2017-09-16T08:46:34Z</time>
      </trkpt>
      <trkpt lat="44.38742" lon="2.48233">
        <ele>568</ele>
        <time>2017-09-16T08:46:38Z</time>
      </trkpt>
      <trkpt lat="44.38748" lon="2.4823">
        <ele>568</ele>
        <time>2017-09-16T08:46:48Z</time>
      </trkpt>
      <trkpt lat="44.38754" lon="2.48222">
        <ele>567</ele>
        <time>2017-09-16T08:46:54Z</time>
      </trkpt>
      <trkpt lat="44.3876" lon="2.48196">
        <ele>567</ele>
        <time>2017-09-16T08:47:09Z</time>
      </trkpt>
      <trkpt lat="44.38761" lon="2.48191">
        <ele>567</ele>
        <time>2017-09-16T08:47:12Z</time>
      </trkpt>
      <trkpt lat="44.38763" lon="2.48187">
        <ele>567</ele>
        <time>2017-09-16T08:47:15Z</time>
      </trkpt>
      <trkpt lat="44.38764" lon="2.48167">
        <ele>567</ele>
        <time>2017-09-16T08:47:25Z</time>
      </trkpt>
      <trkpt lat="44.38765" lon="2.48162">
        <ele>567</ele>
        <time>2017-09-16T08:47:28Z</time>
      </trkpt>
      <trkpt lat="44.38764" lon="2.48112">
        <ele>567</ele>
        <time>2017-09-16T08:47:53Z</time>
      </trkpt>
      <trkpt lat="44.38764" lon="2.48071">
        <ele>568</ele>
        <time>2017-09-16T08:48:13Z</time>
      </trkpt>
      <trkpt lat="44.38765" lon="2.48063">
        <ele>568</ele>
        <time>2017-09-16T08:48:17Z</time>
      </trkpt>
      <trkpt lat="44.38764" lon="2.48048">
        <ele>567</ele>
        <time>2017-09-16T08:48:25Z</time>
      </trkpt>
      <trkpt lat="44.38764" lon="2.48044">
        <ele>567</ele>
        <time>2017-09-16T08:48:27Z</time>
      </trkpt>
      <trkpt lat="44.38762" lon="2.47989">
        <ele>567</ele>
        <time>2017-09-16T08:48:57Z</time>
      </trkpt>
      <trkpt lat="44.3876" lon="2.47971">
        <ele>568</ele>
        <time>2017-09-16T08:49:08Z</time>
      </trkpt>
      <trkpt lat="44.38759" lon="2.47963">
        <ele>568</ele>
        <time>2017-09-16T08:49:12Z</time>
      </trkpt>
      <trkpt lat="44.38758" lon="2.47959">
        <ele>568</ele>
        <time>2017-09-16T08:49:14Z</time>
      </trkpt>
      <trkpt lat="44.38757" lon="2.47953">
        <ele>568</ele>
        <time>2017-09-16T08:49:18Z</time>
      </trkpt>
      <trkpt lat="44.38756" lon="2.4795">
        <ele>568</ele>
        <time>2017-09-16T08:49:20Z</time>
      </trkpt>
      <trkpt lat="44.38756" lon="2.47947">
        <ele>568</ele>
        <time>2017-09-16T08:49:22Z</time>
      </trkpt>
      <trkpt lat="44.38752" lon="2.47933">
        <ele>568</ele>
        <time>2017-09-16T08:49:31Z</time>
      </trkpt>
      <trkpt lat="44.38744" lon="2.47882">
        <ele>569</ele>
        <time>2017-09-16T08:50:01Z</time>
      </trkpt>
      <trkpt lat="44.38733" lon="2.47834">
        <ele>570</ele>
        <time>2017-09-16T08:50:31Z</time>
      </trkpt>
      <trkpt lat="44.38719" lon="2.47783">
        <ele>570</ele>
        <time>2017-09-16T08:51:02Z</time>
      </trkpt>
      <trkpt lat="44.38718" lon="2.4778">
        <ele>570</ele>
        <time>2017-09-16T08:51:04Z</time>
      </trkpt>
      <trkpt lat="44.38717" lon="2.47778">
        <ele>570</ele>
        <time>2017-09-16T08:51:05Z</time>
      </trkpt>
      <trkpt lat="44.38702" lon="2.47729">
        <ele>570</ele>
        <time>2017-09-16T08:51:35Z</time>
      </trkpt>
      <trkpt lat="44.38687" lon="2.47678">
        <ele>570</ele>
        <time>2017-09-16T08:52:06Z</time>
      </trkpt>
      <trkpt lat="44.38684" lon="2.47666">
        <ele>570</ele>
        <time>2017-09-16T08:52:13Z</time>
      </trkpt>
      <trkpt lat="44.38683" lon="2.47659">
        <ele>570</ele>
        <time>2017-09-16T08:52:18Z</time>
      </trkpt>
      <trkpt lat="44.38683" lon="2.47655">
        <ele>570</ele>
        <time>2017-09-16T08:52:20Z</time>
      </trkpt>
      <trkpt lat="44.38683" lon="2.47647">
        <ele>570</ele>
        <time>2017-09-16T08:52:24Z</time>
      </trkpt>
      <trkpt lat="44.38681" lon="2.47643">
        <ele>570</ele>
        <time>2017-09-16T08:52:27Z</time>
      </trkpt>
      <trkpt lat="44.3868" lon="2.47639">
        <ele>570</ele>
        <time>2017-09-16T08:52:29Z</time>
      </trkpt>
      <trkpt lat="44.38678" lon="2.47634">
        <ele>570</ele>
        <time>2017-09-16T08:52:33Z</time>
      </trkpt>
      <trkpt lat="44.38674" lon="2.47612">
        <ele>570</ele>
        <time>2017-09-16T08:52:46Z</time>
      </trkpt>
      <trkpt lat="44.38673" lon="2.47608">
        <ele>570</ele>
        <time>2017-09-16T08:52:48Z</time>
      </trkpt>
      <trkpt lat="44.38673" lon="2.47601">
        <ele>569</ele>
        <time>2017-09-16T08:52:52Z</time>
      </trkpt>
      <trkpt lat="44.38672" lon="2.47598">
        <ele>569</ele>
        <time>2017-09-16T08:52:59Z</time>
      </trkpt>
      <trkpt lat="44.38671" lon="2.47594">
        <ele>569</ele>
        <time>2017-09-16T08:55:58Z</time>
      </trkpt>
      <trkpt lat="44.38671" lon="2.47591">
        <ele>569</ele>
        <time>2017-09-16T08:56:06Z</time>
      </trkpt>
      <trkpt lat="44.3867" lon="2.47577">
        <ele>569</ele>
        <time>2017-09-16T08:56:19Z</time>
      </trkpt>
      <trkpt lat="44.38666" lon="2.47562">
        <ele>569</ele>
        <time>2017-09-16T08:56:32Z</time>
      </trkpt>
      <trkpt lat="44.38664" lon="2.47559">
        <ele>569</ele>
        <time>2017-09-16T08:56:34Z</time>
      </trkpt>
      <trkpt lat="44.38651" lon="2.47524">
        <ele>569</ele>
        <time>2017-09-16T08:56:58Z</time>
      </trkpt>
      <trkpt lat="44.38648" lon="2.47519">
        <ele>569</ele>
        <time>2017-09-16T08:57:02Z</time>
      </trkpt>
      <trkpt lat="44.38644" lon="2.47505">
        <ele>569</ele>
        <time>2017-09-16T08:57:12Z</time>
      </trkpt>
      <trkpt lat="44.38641" lon="2.47486">
        <ele>570</ele>
        <time>2017-09-16T08:57:26Z</time>
      </trkpt>
      <trkpt lat="44.3864" lon="2.4748">
        <ele>570</ele>
        <time>2017-09-16T08:57:30Z</time>
      </trkpt>
      <trkpt lat="44.3864" lon="2.47474">
        <ele>570</ele>
        <time>2017-09-16T08:57:34Z</time>
      </trkpt>
      <trkpt lat="44.38641" lon="2.47468">
        <ele>570</ele>
        <time>2017-09-16T08:57:37Z</time>
      </trkpt>
      <trkpt lat="44.38638" lon="2.47455">
        <ele>570</ele>
        <time>2017-09-16T08:57:44Z</time>
      </trkpt>
      <trkpt lat="44.38638" lon="2.47443">
        <ele>570</ele>
        <time>2017-09-16T08:57:52Z</time>
      </trkpt>
      <trkpt lat="44.38635" lon="2.47419">
        <ele>571</ele>
        <time>2017-09-16T08:58:05Z</time>
      </trkpt>
      <trkpt lat="44.38632" lon="2.47406">
        <ele>571</ele>
        <time>2017-09-16T08:58:13Z</time>
      </trkpt>
      <trkpt lat="44.38624" lon="2.47371">
        <ele>571</ele>
        <time>2017-09-16T08:58:33Z</time>
      </trkpt>
      <trkpt lat="44.3862" lon="2.47348">
        <ele>571</ele>
        <time>2017-09-16T08:58:45Z</time>
      </trkpt>
      <trkpt lat="44.38619" lon="2.47342">
        <ele>571</ele>
        <time>2017-09-16T08:58:49Z</time>
      </trkpt>
      <trkpt lat="44.38618" lon="2.47335">
        <ele>571</ele>
        <time>2017-09-16T08:58:53Z</time>
      </trkpt>
      <trkpt lat="44.38617" lon="2.47329">
        <ele>572</ele>
        <time>2017-09-16T08:58:57Z</time>
      </trkpt>
      <trkpt lat="44.38616" lon="2.47322">
        <ele>572</ele>
        <time>2017-09-16T08:59:01Z</time>
      </trkpt>
      <trkpt lat="44.38616" lon="2.47315">
        <ele>572</ele>
        <time>2017-09-16T08:59:06Z</time>
      </trkpt>
      <trkpt lat="44.38616" lon="2.47308">
        <ele>572</ele>
        <time>2017-09-16T08:59:10Z</time>
      </trkpt>
      <trkpt lat="44.38614" lon="2.47302">
        <ele>572</ele>
        <time>2017-09-16T08:59:12Z</time>
      </trkpt>
      <trkpt lat="44.38613" lon="2.47297">
        <ele>572</ele>
        <time>2017-09-16T08:59:15Z</time>
      </trkpt>
      <trkpt lat="44.38606" lon="2.47238">
        <ele>574</ele>
        <time>2017-09-16T08:59:46Z</time>
      </trkpt>
      <trkpt lat="44.38594" lon="2.47176">
        <ele>574</ele>
        <time>2017-09-16T09:00:18Z</time>
      </trkpt>
      <trkpt lat="44.38594" lon="2.4717">
        <ele>574</ele>
        <time>2017-09-16T09:00:21Z</time>
      </trkpt>
      <trkpt lat="44.38591" lon="2.47159">
        <ele>574</ele>
        <time>2017-09-16T09:00:28Z</time>
      </trkpt>
      <trkpt lat="44.38584" lon="2.47107">
        <ele>574</ele>
        <time>2017-09-16T09:00:59Z</time>
      </trkpt>
      <trkpt lat="44.38576" lon="2.47059">
        <ele>576</ele>
        <time>2017-09-16T09:01:25Z</time>
      </trkpt>
      <trkpt lat="44.38569" lon="2.47035">
        <ele>576</ele>
        <time>2017-09-16T09:01:37Z</time>
      </trkpt>
      <trkpt lat="44.38566" lon="2.47016">
        <ele>576</ele>
        <time>2017-09-16T09:01:47Z</time>
      </trkpt>
      <trkpt lat="44.38564" lon="2.4701">
        <ele>576</ele>
        <time>2017-09-16T09:01:50Z</time>
      </trkpt>
      <trkpt lat="44.38559" lon="2.46967">
        <ele>577</ele>
        <time>2017-09-16T09:02:16Z</time>
      </trkpt>
      <trkpt lat="44.38559" lon="2.46962">
        <ele>577</ele>
        <time>2017-09-16T09:02:19Z</time>
      </trkpt>
      <trkpt lat="44.38558" lon="2.46953">
        <ele>577</ele>
        <time>2017-09-16T09:02:32Z</time>
      </trkpt>
      <trkpt lat="44.38555" lon="2.46928">
        <ele>577</ele>
        <time>2017-09-16T09:02:52Z</time>
      </trkpt>
      <trkpt lat="44.38554" lon="2.46921">
        <ele>577</ele>
        <time>2017-09-16T09:02:58Z</time>
      </trkpt>
      <trkpt lat="44.38551" lon="2.46908">
        <ele>577</ele>
        <time>2017-09-16T09:03:07Z</time>
      </trkpt>
      <trkpt lat="44.3855" lon="2.46903">
        <ele>577</ele>
        <time>2017-09-16T09:03:10Z</time>
      </trkpt>
      <trkpt lat="44.38548" lon="2.46897">
        <ele>577</ele>
        <time>2017-09-16T09:03:14Z</time>
      </trkpt>
      <trkpt lat="44.38546" lon="2.46878">
        <ele>577</ele>
        <time>2017-09-16T09:03:23Z</time>
      </trkpt>
      <trkpt lat="44.38532" lon="2.46812">
        <ele>575</ele>
        <time>2017-09-16T09:03:54Z</time>
      </trkpt>
      <trkpt lat="44.38531" lon="2.46803">
        <ele>575</ele>
        <time>2017-09-16T09:03:58Z</time>
      </trkpt>
      <trkpt lat="44.38526" lon="2.46782">
        <ele>575</ele>
        <time>2017-09-16T09:04:09Z</time>
      </trkpt>
      <trkpt lat="44.38519" lon="2.46748">
        <ele>574</ele>
        <time>2017-09-16T09:04:26Z</time>
      </trkpt>
      <trkpt lat="44.38517" lon="2.46738">
        <ele>574</ele>
        <time>2017-09-16T09:04:32Z</time>
      </trkpt>
      <trkpt lat="44.38505" lon="2.46683">
        <ele>573</ele>
        <time>2017-09-16T09:05:03Z</time>
      </trkpt>
      <trkpt lat="44.38502" lon="2.46662">
        <ele>573</ele>
        <time>2017-09-16T09:05:15Z</time>
      </trkpt>
      <trkpt lat="44.38501" lon="2.46655">
        <ele>573</ele>
        <time>2017-09-16T09:05:18Z</time>
      </trkpt>
      <trkpt lat="44.385" lon="2.46643">
        <ele>574</ele>
        <time>2017-09-16T09:05:24Z</time>
      </trkpt>
      <trkpt lat="44.38498" lon="2.46638">
        <ele>574</ele>
        <time>2017-09-16T09:05:27Z</time>
      </trkpt>
      <trkpt lat="44.38493" lon="2.46614">
        <ele>573</ele>
        <time>2017-09-16T09:05:41Z</time>
      </trkpt>
      <trkpt lat="44.38492" lon="2.4661">
        <ele>573</ele>
        <time>2017-09-16T09:05:45Z</time>
      </trkpt>
      <trkpt lat="44.38484" lon="2.46569">
        <ele>573</ele>
        <time>2017-09-16T09:06:11Z</time>
      </trkpt>
      <trkpt lat="44.38483" lon="2.46559">
        <ele>573</ele>
        <time>2017-09-16T09:06:17Z</time>
      </trkpt>
      <trkpt lat="44.38469" lon="2.46503">
        <ele>573</ele>
        <time>2017-09-16T09:06:48Z</time>
      </trkpt>
      <trkpt lat="44.38467" lon="2.46486">
        <ele>573</ele>
        <time>2017-09-16T09:06:57Z</time>
      </trkpt>
      <trkpt lat="44.38457" lon="2.46425">
        <ele>573</ele>
        <time>2017-09-16T09:07:29Z</time>
      </trkpt>
      <trkpt lat="44.38456" lon="2.4642">
        <ele>573</ele>
        <time>2017-09-16T09:07:32Z</time>
      </trkpt>
      <trkpt lat="44.38455" lon="2.46415">
        <ele>573</ele>
        <time>2017-09-16T09:07:35Z</time>
      </trkpt>
      <trkpt lat="44.38454" lon="2.46409">
        <ele>573</ele>
        <time>2017-09-16T09:07:38Z</time>
      </trkpt>
      <trkpt lat="44.38453" lon="2.46396">
        <ele>573</ele>
        <time>2017-09-16T09:07:46Z</time>
      </trkpt>
      <trkpt lat="44.38446" lon="2.46354">
        <ele>572</ele>
        <time>2017-09-16T09:08:10Z</time>
      </trkpt>
      <trkpt lat="44.38446" lon="2.46348">
        <ele>572</ele>
        <time>2017-09-16T09:08:13Z</time>
      </trkpt>
      <trkpt lat="44.38441" lon="2.46324">
        <ele>572</ele>
        <time>2017-09-16T09:08:27Z</time>
      </trkpt>
      <trkpt lat="44.3843" lon="2.4629">
        <ele>572</ele>
        <time>2017-09-16T09:08:50Z</time>
      </trkpt>
      <trkpt lat="44.38429" lon="2.46284">
        <ele>572</ele>
        <time>2017-09-16T09:08:54Z</time>
      </trkpt>
      <trkpt lat="44.38429" lon="2.46278">
        <ele>572</ele>
        <time>2017-09-16T09:08:58Z</time>
      </trkpt>
      <trkpt lat="44.38412" lon="2.46225">
        <ele>572</ele>
        <time>2017-09-16T09:09:28Z</time>
      </trkpt>
      <trkpt lat="44.38411" lon="2.4622">
        <ele>571</ele>
        <time>2017-09-16T09:09:31Z</time>
      </trkpt>
      <trkpt lat="44.38407" lon="2.46209">
        <ele>571</ele>
        <time>2017-09-16T09:09:37Z</time>
      </trkpt>
      <trkpt lat="44.38402" lon="2.46193">
        <ele>571</ele>
        <time>2017-09-16T09:09:46Z</time>
      </trkpt>
      <trkpt lat="44.38401" lon="2.46187">
        <ele>571</ele>
        <time>2017-09-16T09:09:49Z</time>
      </trkpt>
      <trkpt lat="44.38385" lon="2.46133">
        <ele>571</ele>
        <time>2017-09-16T09:10:20Z</time>
      </trkpt>
      <trkpt lat="44.38373" lon="2.4608">
        <ele>572</ele>
        <time>2017-09-16T09:10:50Z</time>
      </trkpt>
      <trkpt lat="44.3837" lon="2.46071">
        <ele>572</ele>
        <time>2017-09-16T09:10:55Z</time>
      </trkpt>
      <trkpt lat="44.38368" lon="2.46055">
        <ele>572</ele>
        <time>2017-09-16T09:11:06Z</time>
      </trkpt>
      <trkpt lat="44.38366" lon="2.46044">
        <ele>572</ele>
        <time>2017-09-16T09:11:12Z</time>
      </trkpt>
      <trkpt lat="44.38366" lon="2.4604">
        <ele>572</ele>
        <time>2017-09-16T09:11:15Z</time>
      </trkpt>
      <trkpt lat="44.38366" lon="2.46031">
        <ele>572</ele>
        <time>2017-09-16T09:11:21Z</time>
      </trkpt>
      <trkpt lat="44.38368" lon="2.46027">
        <ele>572</ele>
        <time>2017-09-16T09:11:24Z</time>
      </trkpt>
      <trkpt lat="44.38374" lon="2.46024">
        <ele>572</ele>
        <time>2017-09-16T09:11:28Z</time>
      </trkpt>
      <trkpt lat="44.38386" lon="2.46023">
        <ele>572</ele>
        <time>2017-09-16T09:11:40Z</time>
      </trkpt>
      <trkpt lat="44.38389" lon="2.46022">
        <ele>572</ele>
        <time>2017-09-16T09:11:43Z</time>
      </trkpt>
      <trkpt lat="44.38396" lon="2.46022">
        <ele>572</ele>
        <time>2017-09-16T09:11:48Z</time>
      </trkpt>
      <trkpt lat="44.38413" lon="2.46025">
        <ele>572</ele>
        <time>2017-09-16T09:12:00Z</time>
      </trkpt>
      <trkpt lat="44.38419" lon="2.46026">
        <ele>571</ele>
        <time>2017-09-16T09:12:08Z</time>
      </trkpt>
      <trkpt lat="44.38423" lon="2.46024">
        <ele>571</ele>
        <time>2017-09-16T09:12:25Z</time>
      </trkpt>
      <trkpt lat="44.38424" lon="2.4602">
        <ele>571</ele>
        <time>2017-09-16T09:12:28Z</time>
      </trkpt>
      <trkpt lat="44.38424" lon="2.46015">
        <ele>571</ele>
        <time>2017-09-16T09:12:31Z</time>
      </trkpt>
      <trkpt lat="44.38397" lon="2.4598">
        <ele>570</ele>
        <time>2017-09-16T09:13:02Z</time>
      </trkpt>
      <trkpt lat="44.38387" lon="2.45964">
        <ele>569</ele>
        <time>2017-09-16T09:13:15Z</time>
      </trkpt>
      <trkpt lat="44.38381" lon="2.45956">
        <ele>569</ele>
        <time>2017-09-16T09:13:21Z</time>
      </trkpt>
      <trkpt lat="44.38352" lon="2.45918">
        <ele>571</ele>
        <time>2017-09-16T09:13:51Z</time>
      </trkpt>
      <trkpt lat="44.38336" lon="2.45897">
        <ele>568</ele>
        <time>2017-09-16T09:14:10Z</time>
      </trkpt>
      <trkpt lat="44.38328" lon="2.45886">
        <ele>572</ele>
        <time>2017-09-16T09:14:19Z</time>
      </trkpt>
      <trkpt lat="44.38325" lon="2.45882">
        <ele>572</ele>
        <time>2017-09-16T09:14:22Z</time>
      </trkpt>
      <trkpt lat="44.38316" lon="2.45871">
        <ele>571</ele>
        <time>2017-09-16T09:14:31Z</time>
      </trkpt>
      <trkpt lat="44.38314" lon="2.45868">
        <ele>571</ele>
        <time>2017-09-16T09:14:34Z</time>
      </trkpt>
      <trkpt lat="44.38287" lon="2.45827">
        <ele>569</ele>
        <time>2017-09-16T09:15:04Z</time>
      </trkpt>
      <trkpt lat="44.3828" lon="2.4582">
        <ele>569</ele>
        <time>2017-09-16T09:15:11Z</time>
      </trkpt>
      <trkpt lat="44.38277" lon="2.45817">
        <ele>569</ele>
        <time>2017-09-16T09:15:14Z</time>
      </trkpt>
      <trkpt lat="44.3825" lon="2.45779">
        <ele>571</ele>
        <time>2017-09-16T09:15:47Z</time>
      </trkpt>
      <trkpt lat="44.38236" lon="2.4575">
        <ele>571</ele>
        <time>2017-09-16T09:16:05Z</time>
      </trkpt>
      <trkpt lat="44.38234" lon="2.45746">
        <ele>571</ele>
        <time>2017-09-16T09:16:08Z</time>
      </trkpt>
      <trkpt lat="44.38214" lon="2.45701">
        <ele>571</ele>
        <time>2017-09-16T09:16:36Z</time>
      </trkpt>
      <trkpt lat="44.38209" lon="2.45692">
        <ele>571</ele>
        <time>2017-09-16T09:16:42Z</time>
      </trkpt>
      <trkpt lat="44.38193" lon="2.45654">
        <ele>571</ele>
        <time>2017-09-16T09:17:07Z</time>
      </trkpt>
      <trkpt lat="44.38176" lon="2.45613">
        <ele>572</ele>
        <time>2017-09-16T09:17:32Z</time>
      </trkpt>
      <trkpt lat="44.38171" lon="2.45604">
        <ele>572</ele>
        <time>2017-09-16T09:17:38Z</time>
      </trkpt>
      <trkpt lat="44.38167" lon="2.45594">
        <ele>572</ele>
        <time>2017-09-16T09:17:45Z</time>
      </trkpt>
      <trkpt lat="44.38165" lon="2.45588">
        <ele>573</ele>
        <time>2017-09-16T09:17:50Z</time>
      </trkpt>
      <trkpt lat="44.38155" lon="2.45558">
        <ele>575</ele>
        <time>2017-09-16T09:18:09Z</time>
      </trkpt>
      <trkpt lat="44.38154" lon="2.45555">
        <ele>575</ele>
        <time>2017-09-16T09:18:11Z</time>
      </trkpt>
      <trkpt lat="44.38153" lon="2.45552">
        <ele>576</ele>
        <time>2017-09-16T09:18:13Z</time>
      </trkpt>
      <trkpt lat="44.38151" lon="2.45549">
        <ele>576</ele>
        <time>2017-09-16T09:18:17Z</time>
      </trkpt>
      <trkpt lat="44.38131" lon="2.45498">
        <ele>578</ele>
        <time>2017-09-16T09:18:48Z</time>
      </trkpt>
      <trkpt lat="44.38128" lon="2.45491">
        <ele>578</ele>
        <time>2017-09-16T09:18:52Z</time>
      </trkpt>
      <trkpt lat="44.38127" lon="2.45487">
        <ele>578</ele>
        <time>2017-09-16T09:18:54Z</time>
      </trkpt>
      <trkpt lat="44.38123" lon="2.45477">
        <ele>578</ele>
        <time>2017-09-16T09:19:00Z</time>
      </trkpt>
      <trkpt lat="44.38122" lon="2.45472">
        <ele>578</ele>
        <time>2017-09-16T09:19:03Z</time>
      </trkpt>
      <trkpt lat="44.38103" lon="2.45418">
        <ele>579</ele>
        <time>2017-09-16T09:19:33Z</time>
      </trkpt>
      <trkpt lat="44.38099" lon="2.45406">
        <ele>579</ele>
        <time>2017-09-16T09:19:40Z</time>
      </trkpt>
      <trkpt lat="44.38098" lon="2.45403">
        <ele>579</ele>
        <time>2017-09-16T09:19:42Z</time>
      </trkpt>
      <trkpt lat="44.38097" lon="2.454">
        <ele>579</ele>
        <time>2017-09-16T09:19:44Z</time>
      </trkpt>
      <trkpt lat="44.3809" lon="2.4538">
        <ele>579</ele>
        <time>2017-09-16T09:19:58Z</time>
      </trkpt>
      <trkpt lat="44.38085" lon="2.45371">
        <ele>580</ele>
        <time>2017-09-16T09:20:05Z</time>
      </trkpt>
      <trkpt lat="44.38083" lon="2.45365">
        <ele>581</ele>
        <time>2017-09-16T09:20:09Z</time>
      </trkpt>
      <trkpt lat="44.38064" lon="2.45316">
        <ele>581</ele>
        <time>2017-09-16T09:20:39Z</time>
      </trkpt>
      <trkpt lat="44.38062" lon="2.45314">
        <ele>581</ele>
        <time>2017-09-16T09:20:58Z</time>
      </trkpt>
      <trkpt lat="44.38059" lon="2.45309">
        <ele>581</ele>
        <time>2017-09-16T09:21:03Z</time>
      </trkpt>
      <trkpt lat="44.38054" lon="2.45287">
        <ele>581</ele>
        <time>2017-09-16T09:21:15Z</time>
      </trkpt>
      <trkpt lat="44.38052" lon="2.45281">
        <ele>581</ele>
        <time>2017-09-16T09:21:18Z</time>
      </trkpt>
      <trkpt lat="44.38044" lon="2.45244">
        <ele>582</ele>
        <time>2017-09-16T09:21:39Z</time>
      </trkpt>
      <trkpt lat="44.38045" lon="2.45224">
        <ele>582</ele>
        <time>2017-09-16T09:21:51Z</time>
      </trkpt>
      <trkpt lat="44.38046" lon="2.45221">
        <ele>582</ele>
        <time>2017-09-16T09:21:54Z</time>
      </trkpt>
      <trkpt lat="44.38046" lon="2.45195">
        <ele>583</ele>
        <time>2017-09-16T09:22:10Z</time>
      </trkpt>
      <trkpt lat="44.38051" lon="2.45169">
        <ele>583</ele>
        <time>2017-09-16T09:22:24Z</time>
      </trkpt>
      <trkpt lat="44.38051" lon="2.45166">
        <ele>585</ele>
        <time>2017-09-16T09:22:26Z</time>
      </trkpt>
      <trkpt lat="44.38055" lon="2.45147">
        <ele>585</ele>
        <time>2017-09-16T09:22:36Z</time>
      </trkpt>
      <trkpt lat="44.38055" lon="2.45144">
        <ele>585</ele>
        <time>2017-09-16T09:22:38Z</time>
      </trkpt>
      <trkpt lat="44.38062" lon="2.45115">
        <ele>586</ele>
        <time>2017-09-16T09:22:52Z</time>
      </trkpt>
      <trkpt lat="44.38063" lon="2.45112">
        <ele>586</ele>
        <time>2017-09-16T09:22:54Z</time>
      </trkpt>
      <trkpt lat="44.38081" lon="2.45062">
        <ele>587</ele>
        <time>2017-09-16T09:23:25Z</time>
      </trkpt>
      <trkpt lat="44.38084" lon="2.45055">
        <ele>585</ele>
        <time>2017-09-16T09:23:29Z</time>
      </trkpt>
      <trkpt lat="44.38085" lon="2.45049">
        <ele>584</ele>
        <time>2017-09-16T09:23:33Z</time>
      </trkpt>
      <trkpt lat="44.38089" lon="2.45041">
        <ele>584</ele>
        <time>2017-09-16T09:23:38Z</time>
      </trkpt>
      <trkpt lat="44.3809" lon="2.45038">
        <ele>584</ele>
        <time>2017-09-16T09:23:40Z</time>
      </trkpt>
      <trkpt lat="44.38091" lon="2.45035">
        <ele>584</ele>
        <time>2017-09-16T09:23:42Z</time>
      </trkpt>
      <trkpt lat="44.38092" lon="2.4503">
        <ele>585</ele>
        <time>2017-09-16T09:23:45Z</time>
      </trkpt>
      <trkpt lat="44.38096" lon="2.45024">
        <ele>585</ele>
        <time>2017-09-16T09:23:51Z</time>
      </trkpt>
      <trkpt lat="44.381" lon="2.45017">
        <ele>585</ele>
        <time>2017-09-16T09:23:57Z</time>
      </trkpt>
      <trkpt lat="44.38106" lon="2.45009">
        <ele>585</ele>
        <time>2017-09-16T09:24:03Z</time>
      </trkpt>
      <trkpt lat="44.38111" lon="2.45003">
        <ele>584</ele>
        <time>2017-09-16T09:24:08Z</time>
      </trkpt>
      <trkpt lat="44.38113" lon="2.45001">
        <ele>584</ele>
        <time>2017-09-16T09:24:12Z</time>
      </trkpt>
      <trkpt lat="44.38119" lon="2.44989">
        <ele>583</ele>
        <time>2017-09-16T09:24:22Z</time>
      </trkpt>
      <trkpt lat="44.38121" lon="2.44985">
        <ele>583</ele>
        <time>2017-09-16T09:24:25Z</time>
      </trkpt>
      <trkpt lat="44.38125" lon="2.44972">
        <ele>583</ele>
        <time>2017-09-16T09:24:35Z</time>
      </trkpt>
      <trkpt lat="44.38127" lon="2.44968">
        <ele>582</ele>
        <time>2017-09-16T09:24:38Z</time>
      </trkpt>
      <trkpt lat="44.38135" lon="2.4495">
        <ele>582</ele>
        <time>2017-09-16T09:24:51Z</time>
      </trkpt>
      <trkpt lat="44.38142" lon="2.44939">
        <ele>581</ele>
        <time>2017-09-16T09:24:59Z</time>
      </trkpt>
      <trkpt lat="44.38143" lon="2.44936">
        <ele>581</ele>
        <time>2017-09-16T09:25:01Z</time>
      </trkpt>
      <trkpt lat="44.3815" lon="2.44921">
        <ele>581</ele>
        <time>2017-09-16T09:25:11Z</time>
      </trkpt>
      <trkpt lat="44.38155" lon="2.4491">
        <ele>580</ele>
        <time>2017-09-16T09:25:19Z</time>
      </trkpt>
      <trkpt lat="44.38159" lon="2.44905">
        <ele>580</ele>
        <time>2017-09-16T09:25:23Z</time>
      </trkpt>
      <trkpt lat="44.38162" lon="2.44902">
        <ele>580</ele>
        <time>2017-09-16T09:25:26Z</time>
      </trkpt>
      <trkpt lat="44.3818" lon="2.44868">
        <ele>579</ele>
        <time>2017-09-16T09:25:52Z</time>
      </trkpt>
      <trkpt lat="44.38187" lon="2.44863">
        <ele>579</ele>
        <time>2017-09-16T09:25:59Z</time>
      </trkpt>
      <trkpt lat="44.3819" lon="2.44859">
        <ele>579</ele>
        <time>2017-09-16T09:26:06Z</time>
      </trkpt>
      <trkpt lat="44.38196" lon="2.44851">
        <ele>580</ele>
        <time>2017-09-16T09:26:15Z</time>
      </trkpt>
      <trkpt lat="44.38199" lon="2.44846">
        <ele>580</ele>
        <time>2017-09-16T09:26:21Z</time>
      </trkpt>
      <trkpt lat="44.38207" lon="2.44836">
        <ele>580</ele>
        <time>2017-09-16T09:26:30Z</time>
      </trkpt>
      <trkpt lat="44.38212" lon="2.44817">
        <ele>582</ele>
        <time>2017-09-16T09:26:41Z</time>
      </trkpt>
      <trkpt lat="44.38213" lon="2.44807">
        <ele>582</ele>
        <time>2017-09-16T09:26:47Z</time>
      </trkpt>
      <trkpt lat="44.38205" lon="2.44778">
        <ele>581</ele>
        <time>2017-09-16T09:27:08Z</time>
      </trkpt>
      <trkpt lat="44.38202" lon="2.44751">
        <ele>581</ele>
        <time>2017-09-16T09:27:24Z</time>
      </trkpt>
      <trkpt lat="44.38202" lon="2.44742">
        <ele>579</ele>
        <time>2017-09-16T09:27:29Z</time>
      </trkpt>
      <trkpt lat="44.38202" lon="2.44737">
        <ele>579</ele>
        <time>2017-09-16T09:27:32Z</time>
      </trkpt>
      <trkpt lat="44.38204" lon="2.44712">
        <ele>578</ele>
        <time>2017-09-16T09:27:47Z</time>
      </trkpt>
      <trkpt lat="44.38204" lon="2.44707">
        <ele>578</ele>
        <time>2017-09-16T09:27:50Z</time>
      </trkpt>
      <trkpt lat="44.38205" lon="2.44702">
        <ele>578</ele>
        <time>2017-09-16T09:27:53Z</time>
      </trkpt>
      <trkpt lat="44.38205" lon="2.44697">
        <ele>578</ele>
        <time>2017-09-16T09:27:56Z</time>
      </trkpt>
      <trkpt lat="44.38205" lon="2.44687">
        <ele>578</ele>
        <time>2017-09-16T09:28:03Z</time>
      </trkpt>
      <trkpt lat="44.38204" lon="2.44682">
        <ele>577</ele>
        <time>2017-09-16T09:28:06Z</time>
      </trkpt>
      <trkpt lat="44.38203" lon="2.44671">
        <ele>577</ele>
        <time>2017-09-16T09:28:14Z</time>
      </trkpt>
      <trkpt lat="44.38201" lon="2.44663">
        <ele>574</ele>
        <time>2017-09-16T09:28:20Z</time>
      </trkpt>
      <trkpt lat="44.382" lon="2.44659">
        <ele>574</ele>
        <time>2017-09-16T09:28:22Z</time>
      </trkpt>
      <trkpt lat="44.38198" lon="2.44649">
        <ele>574</ele>
        <time>2017-09-16T09:28:28Z</time>
      </trkpt>
      <trkpt lat="44.38197" lon="2.44644">
        <ele>573</ele>
        <time>2017-09-16T09:28:31Z</time>
      </trkpt>
      <trkpt lat="44.38186" lon="2.4461">
        <ele>572</ele>
        <time>2017-09-16T09:28:50Z</time>
      </trkpt>
      <trkpt lat="44.38181" lon="2.44598">
        <ele>572</ele>
        <time>2017-09-16T09:28:59Z</time>
      </trkpt>
      <trkpt lat="44.3818" lon="2.44595">
        <ele>572</ele>
        <time>2017-09-16T09:29:01Z</time>
      </trkpt>
      <trkpt lat="44.3818" lon="2.4459">
        <ele>571</ele>
        <time>2017-09-16T09:29:05Z</time>
      </trkpt>
      <trkpt lat="44.38179" lon="2.44586">
        <ele>571</ele>
        <time>2017-09-16T09:29:09Z</time>
      </trkpt>
      <trkpt lat="44.38179" lon="2.44581">
        <ele>569</ele>
        <time>2017-09-16T09:29:12Z</time>
      </trkpt>
      <trkpt lat="44.3818" lon="2.44575">
        <ele>568</ele>
        <time>2017-09-16T09:29:15Z</time>
      </trkpt>
      <trkpt lat="44.3818" lon="2.44569">
        <ele>568</ele>
        <time>2017-09-16T09:29:18Z</time>
      </trkpt>
      <trkpt lat="44.38179" lon="2.44565">
        <ele>568</ele>
        <time>2017-09-16T09:29:20Z</time>
      </trkpt>
      <trkpt lat="44.38176" lon="2.44563">
        <ele>568</ele>
        <time>2017-09-16T09:29:23Z</time>
      </trkpt>
      <trkpt lat="44.38168" lon="2.44565">
        <ele>568</ele>
        <time>2017-09-16T09:29:30Z</time>
      </trkpt>
      <trkpt lat="44.38166" lon="2.44566">
        <ele>566</ele>
        <time>2017-09-16T09:29:33Z</time>
      </trkpt>
      <trkpt lat="44.38159" lon="2.44577">
        <ele>567</ele>
        <time>2017-09-16T09:29:42Z</time>
      </trkpt>
      <trkpt lat="44.38156" lon="2.44587">
        <ele>568</ele>
        <time>2017-09-16T09:29:48Z</time>
      </trkpt>
      <trkpt lat="44.38155" lon="2.4459">
        <ele>568</ele>
        <time>2017-09-16T09:29:50Z</time>
      </trkpt>
      <trkpt lat="44.38156" lon="2.44594">
        <ele>568</ele>
        <time>2017-09-16T09:29:53Z</time>
      </trkpt>
      <trkpt lat="44.38156" lon="2.44597">
        <ele>568</ele>
        <time>2017-09-16T09:29:55Z</time>
      </trkpt>
      <trkpt lat="44.38157" lon="2.44641">
        <ele>568</ele>
        <time>2017-09-16T09:30:19Z</time>
      </trkpt>
      <trkpt lat="44.38156" lon="2.44645">
        <ele>569</ele>
        <time>2017-09-16T09:30:21Z</time>
      </trkpt>
      <trkpt lat="44.38152" lon="2.44652">
        <ele>569</ele>
        <time>2017-09-16T09:30:26Z</time>
      </trkpt>
      <trkpt lat="44.38149" lon="2.44654">
        <ele>569</ele>
        <time>2017-09-16T09:30:30Z</time>
      </trkpt>
      <trkpt lat="44.38141" lon="2.44653">
        <ele>568</ele>
        <time>2017-09-16T09:30:35Z</time>
      </trkpt>
      <trkpt lat="44.38134" lon="2.44656">
        <ele>567</ele>
        <time>2017-09-16T09:30:41Z</time>
      </trkpt>
      <trkpt lat="44.38122" lon="2.44657">
        <ele>566</ele>
        <time>2017-09-16T09:30:50Z</time>
      </trkpt>
      <trkpt lat="44.38119" lon="2.44655">
        <ele>566</ele>
        <time>2017-09-16T09:30:52Z</time>
      </trkpt>
      <trkpt lat="44.38116" lon="2.44653">
        <ele>565</ele>
        <time>2017-09-16T09:30:55Z</time>
      </trkpt>
      <trkpt lat="44.38114" lon="2.44651">
        <ele>565</ele>
        <time>2017-09-16T09:30:58Z</time>
      </trkpt>
      <trkpt lat="44.38112" lon="2.44649">
        <ele>565</ele>
        <time>2017-09-16T09:31:01Z</time>
      </trkpt>
      <trkpt lat="44.38112" lon="2.44647">
        <ele>565</ele>
        <time>2017-09-16T09:31:14Z</time>
      </trkpt>
      <trkpt lat="44.3811" lon="2.44647">
        <ele>565</ele>
        <time>2017-09-16T09:31:17Z</time>
      </trkpt>
      <trkpt lat="44.38098" lon="2.4464">
        <ele>564</ele>
        <time>2017-09-16T09:31:31Z</time>
      </trkpt>
      <trkpt lat="44.38071" lon="2.44636">
        <ele>561</ele>
        <time>2017-09-16T09:31:53Z</time>
      </trkpt>
      <trkpt lat="44.3806" lon="2.4464">
        <ele>561</ele>
        <time>2017-09-16T09:32:01Z</time>
      </trkpt>
      <trkpt lat="44.38055" lon="2.4464">
        <ele>561</ele>
        <time>2017-09-16T09:32:05Z</time>
      </trkpt>
      <trkpt lat="44.38031" lon="2.44643">
        <ele>561</ele>
        <time>2017-09-16T09:32:21Z</time>
      </trkpt>
      <trkpt lat="44.38025" lon="2.44642">
        <ele>561</ele>
        <time>2017-09-16T09:32:26Z</time>
      </trkpt>
      <trkpt lat="44.38022" lon="2.44642">
        <ele>561</ele>
        <time>2017-09-16T09:32:28Z</time>
      </trkpt>
      <trkpt lat="44.3802" lon="2.44642">
        <ele>561</ele>
        <time>2017-09-16T09:32:30Z</time>
      </trkpt>
      <trkpt lat="44.38017" lon="2.44642">
        <ele>561</ele>
        <time>2017-09-16T09:32:32Z</time>
      </trkpt>
      <trkpt lat="44.38011" lon="2.44641">
        <ele>561</ele>
        <time>2017-09-16T09:32:37Z</time>
      </trkpt>
      <trkpt lat="44.37988" lon="2.44629">
        <ele>565</ele>
        <time>2017-09-16T09:32:56Z</time>
      </trkpt>
      <trkpt lat="44.37971" lon="2.44614">
        <ele>566</ele>
        <time>2017-09-16T09:33:13Z</time>
      </trkpt>
      <trkpt lat="44.37962" lon="2.44609">
        <ele>566</ele>
        <time>2017-09-16T09:33:23Z</time>
      </trkpt>
      <trkpt lat="44.37959" lon="2.44608">
        <ele>567</ele>
        <time>2017-09-16T09:33:26Z</time>
      </trkpt>
      <trkpt lat="44.37951" lon="2.44601">
        <ele>567</ele>
        <time>2017-09-16T09:33:34Z</time>
      </trkpt>
      <trkpt lat="44.37948" lon="2.44601">
        <ele>567</ele>
        <time>2017-09-16T09:33:36Z</time>
      </trkpt>
      <trkpt lat="44.37935" lon="2.44606">
        <ele>568</ele>
        <time>2017-09-16T09:33:46Z</time>
      </trkpt>
      <trkpt lat="44.3793" lon="2.44609">
        <ele>568</ele>
        <time>2017-09-16T09:33:50Z</time>
      </trkpt>
      <trkpt lat="44.37928" lon="2.4461">
        <ele>568</ele>
        <time>2017-09-16T09:33:52Z</time>
      </trkpt>
      <trkpt lat="44.37926" lon="2.4461">
        <ele>568</ele>
        <time>2017-09-16T09:34:02Z</time>
      </trkpt>
      <trkpt lat="44.37919" lon="2.44613">
        <ele>569</ele>
        <time>2017-09-16T09:34:08Z</time>
      </trkpt>
      <trkpt lat="44.37902" lon="2.44612">
        <ele>571</ele>
        <time>2017-09-16T09:34:23Z</time>
      </trkpt>
      <trkpt lat="44.37899" lon="2.44611">
        <ele>571</ele>
        <time>2017-09-16T09:34:26Z</time>
      </trkpt>
      <trkpt lat="44.37896" lon="2.4461">
        <ele>571</ele>
        <time>2017-09-16T09:34:30Z</time>
      </trkpt>
      <trkpt lat="44.37887" lon="2.44607">
        <ele>571</ele>
        <time>2017-09-16T09:34:40Z</time>
      </trkpt>
      <trkpt lat="44.37866" lon="2.4461">
        <ele>570</ele>
        <time>2017-09-16T09:34:56Z</time>
      </trkpt>
      <trkpt lat="44.37853" lon="2.44617">
        <ele>570</ele>
        <time>2017-09-16T09:35:06Z</time>
      </trkpt>
      <trkpt lat="44.37836" lon="2.44624">
        <ele>570</ele>
        <time>2017-09-16T09:35:23Z</time>
      </trkpt>
      <trkpt lat="44.37834" lon="2.44626">
        <ele>570</ele>
        <time>2017-09-16T09:35:25Z</time>
      </trkpt>
      <trkpt lat="44.3782" lon="2.44635">
        <ele>568</ele>
        <time>2017-09-16T09:35:40Z</time>
      </trkpt>
      <trkpt lat="44.37817" lon="2.44638">
        <ele>568</ele>
        <time>2017-09-16T09:35:44Z</time>
      </trkpt>
      <trkpt lat="44.37815" lon="2.4464">
        <ele>568</ele>
        <time>2017-09-16T09:35:47Z</time>
      </trkpt>
      <trkpt lat="44.3781" lon="2.44645">
        <ele>568</ele>
        <time>2017-09-16T09:35:52Z</time>
      </trkpt>
      <trkpt lat="44.37808" lon="2.44647">
        <ele>568</ele>
        <time>2017-09-16T09:35:54Z</time>
      </trkpt>
      <trkpt lat="44.37805" lon="2.44648">
        <ele>568</ele>
        <time>2017-09-16T09:35:56Z</time>
      </trkpt>
      <trkpt lat="44.37801" lon="2.44647">
        <ele>568</ele>
        <time>2017-09-16T09:35:59Z</time>
      </trkpt>
      <trkpt lat="44.37795" lon="2.44645">
        <ele>567</ele>
        <time>2017-09-16T09:36:04Z</time>
      </trkpt>
      <trkpt lat="44.37771" lon="2.4462">
        <ele>566</ele>
        <time>2017-09-16T09:36:25Z</time>
      </trkpt>
      <trkpt lat="44.37753" lon="2.44599">
        <ele>564</ele>
        <time>2017-09-16T09:36:43Z</time>
      </trkpt>
      <trkpt lat="44.3774" lon="2.44585">
        <ele>561</ele>
        <time>2017-09-16T09:36:57Z</time>
      </trkpt>
      <trkpt lat="44.37732" lon="2.44575">
        <ele>559</ele>
        <time>2017-09-16T09:37:06Z</time>
      </trkpt>
      <trkpt lat="44.37729" lon="2.44572">
        <ele>559</ele>
        <time>2017-09-16T09:37:09Z</time>
      </trkpt>
      <trkpt lat="44.37726" lon="2.44568">
        <ele>558</ele>
        <time>2017-09-16T09:37:12Z</time>
      </trkpt>
      <trkpt lat="44.3772" lon="2.44563">
        <ele>558</ele>
        <time>2017-09-16T09:37:17Z</time>
      </trkpt>
      <trkpt lat="44.37718" lon="2.44559">
        <ele>557</ele>
        <time>2017-09-16T09:37:19Z</time>
      </trkpt>
      <trkpt lat="44.37713" lon="2.44554">
        <ele>557</ele>
        <time>2017-09-16T09:37:24Z</time>
      </trkpt>
      <trkpt lat="44.37711" lon="2.44552">
        <ele>557</ele>
        <time>2017-09-16T09:37:27Z</time>
      </trkpt>
      <trkpt lat="44.37709" lon="2.44549">
        <ele>557</ele>
        <time>2017-09-16T09:37:30Z</time>
      </trkpt>
      <trkpt lat="44.37705" lon="2.4454">
        <ele>557</ele>
        <time>2017-09-16T09:37:47Z</time>
      </trkpt>
      <trkpt lat="44.377" lon="2.44532">
        <ele>556</ele>
        <time>2017-09-16T09:37:56Z</time>
      </trkpt>
      <trkpt lat="44.37697" lon="2.44528">
        <ele>556</ele>
        <time>2017-09-16T09:38:00Z</time>
      </trkpt>
      <trkpt lat="44.37694" lon="2.44514">
        <ele>556</ele>
        <time>2017-09-16T09:38:08Z</time>
      </trkpt>
      <trkpt lat="44.37693" lon="2.44508">
        <ele>556</ele>
        <time>2017-09-16T09:38:13Z</time>
      </trkpt>
      <trkpt lat="44.37691" lon="2.44503">
        <ele>556</ele>
        <time>2017-09-16T09:38:18Z</time>
      </trkpt>
      <trkpt lat="44.37687" lon="2.44499">
        <ele>555</ele>
        <time>2017-09-16T09:38:23Z</time>
      </trkpt>
      <trkpt lat="44.37685" lon="2.44494">
        <ele>555</ele>
        <time>2017-09-16T09:38:27Z</time>
      </trkpt>
      <trkpt lat="44.37683" lon="2.44489">
        <ele>555</ele>
        <time>2017-09-16T09:38:32Z</time>
      </trkpt>
      <trkpt lat="44.37681" lon="2.44485">
        <ele>555</ele>
        <time>2017-09-16T09:38:35Z</time>
      </trkpt>
      <trkpt lat="44.37679" lon="2.4448">
        <ele>554</ele>
        <time>2017-09-16T09:38:39Z</time>
      </trkpt>
      <trkpt lat="44.37675" lon="2.44476">
        <ele>554</ele>
        <time>2017-09-16T09:38:43Z</time>
      </trkpt>
      <trkpt lat="44.37671" lon="2.4447">
        <ele>554</ele>
        <time>2017-09-16T09:38:50Z</time>
      </trkpt>
      <trkpt lat="44.37664" lon="2.44456">
        <ele>557</ele>
        <time>2017-09-16T09:38:57Z</time>
      </trkpt>
      <trkpt lat="44.37661" lon="2.44453">
        <ele>558</ele>
        <time>2017-09-16T09:38:59Z</time>
      </trkpt>
      <trkpt lat="44.37657" lon="2.4445">
        <ele>558</ele>
        <time>2017-09-16T09:39:05Z</time>
      </trkpt>
      <trkpt lat="44.37652" lon="2.4444">
        <ele>558</ele>
        <time>2017-09-16T09:39:13Z</time>
      </trkpt>
      <trkpt lat="44.3765" lon="2.44435">
        <ele>558</ele>
        <time>2017-09-16T09:39:16Z</time>
      </trkpt>
      <trkpt lat="44.37648" lon="2.4443">
        <ele>558</ele>
        <time>2017-09-16T09:39:19Z</time>
      </trkpt>
      <trkpt lat="44.37645" lon="2.44426">
        <ele>558</ele>
        <time>2017-09-16T09:39:22Z</time>
      </trkpt>
      <trkpt lat="44.37641" lon="2.44423">
        <ele>558</ele>
        <time>2017-09-16T09:39:25Z</time>
      </trkpt>
      <trkpt lat="44.37636" lon="2.44422">
        <ele>558</ele>
        <time>2017-09-16T09:39:29Z</time>
      </trkpt>
      <trkpt lat="44.37632" lon="2.44422">
        <ele>559</ele>
        <time>2017-09-16T09:39:33Z</time>
      </trkpt>
      <trkpt lat="44.37626" lon="2.44419">
        <ele>559</ele>
        <time>2017-09-16T09:39:37Z</time>
      </trkpt>
      <trkpt lat="44.3762" lon="2.44416">
        <ele>564</ele>
        <time>2017-09-16T09:39:42Z</time>
      </trkpt>
      <trkpt lat="44.37616" lon="2.44414">
        <ele>564</ele>
        <time>2017-09-16T09:39:46Z</time>
      </trkpt>
      <trkpt lat="44.37593" lon="2.44418">
        <ele>563</ele>
        <time>2017-09-16T09:40:06Z</time>
      </trkpt>
      <trkpt lat="44.3759" lon="2.44417">
        <ele>565</ele>
        <time>2017-09-16T09:40:09Z</time>
      </trkpt>
      <trkpt lat="44.37588" lon="2.44417">
        <ele>564</ele>
        <time>2017-09-16T09:40:11Z</time>
      </trkpt>
      <trkpt lat="44.37581" lon="2.44418">
        <ele>564</ele>
        <time>2017-09-16T09:40:17Z</time>
      </trkpt>
      <trkpt lat="44.37572" lon="2.44419">
        <ele>562</ele>
        <time>2017-09-16T09:40:24Z</time>
      </trkpt>
      <trkpt lat="44.37569" lon="2.44421">
        <ele>562</ele>
        <time>2017-09-16T09:40:26Z</time>
      </trkpt>
      <trkpt lat="44.37566" lon="2.4442">
        <ele>561</ele>
        <time>2017-09-16T09:40:28Z</time>
      </trkpt>
      <trkpt lat="44.37564" lon="2.44418">
        <ele>561</ele>
        <time>2017-09-16T09:40:31Z</time>
      </trkpt>
      <trkpt lat="44.37561" lon="2.44416">
        <ele>567</ele>
        <time>2017-09-16T09:40:34Z</time>
      </trkpt>
      <trkpt lat="44.37561" lon="2.44411">
        <ele>567</ele>
        <time>2017-09-16T09:40:40Z</time>
      </trkpt>
      <trkpt lat="44.37572" lon="2.444">
        <ele>568</ele>
        <time>2017-09-16T09:40:52Z</time>
      </trkpt>
      <trkpt lat="44.37581" lon="2.44372">
        <ele>571</ele>
        <time>2017-09-16T09:41:13Z</time>
      </trkpt>
      <trkpt lat="44.37581" lon="2.44367">
        <ele>572</ele>
        <time>2017-09-16T09:41:16Z</time>
      </trkpt>
      <trkpt lat="44.37582" lon="2.44364">
        <ele>572</ele>
        <time>2017-09-16T09:41:18Z</time>
      </trkpt>
      <trkpt lat="44.37583" lon="2.4436">
        <ele>573</ele>
        <time>2017-09-16T09:41:21Z</time>
      </trkpt>
      <trkpt lat="44.37585" lon="2.44355">
        <ele>570</ele>
        <time>2017-09-16T09:41:24Z</time>
      </trkpt>
      <trkpt lat="44.37587" lon="2.44345">
        <ele>573</ele>
        <time>2017-09-16T09:41:30Z</time>
      </trkpt>
      <trkpt lat="44.37588" lon="2.44336">
        <ele>576</ele>
        <time>2017-09-16T09:41:35Z</time>
      </trkpt>
      <trkpt lat="44.37588" lon="2.44327">
        <ele>576</ele>
        <time>2017-09-16T09:41:40Z</time>
      </trkpt>
      <trkpt lat="44.3759" lon="2.44323">
        <ele>576</ele>
        <time>2017-09-16T09:41:43Z</time>
      </trkpt>
      <trkpt lat="44.37589" lon="2.44312">
        <ele>575</ele>
        <time>2017-09-16T09:41:49Z</time>
      </trkpt>
      <trkpt lat="44.37589" lon="2.44307">
        <ele>575</ele>
        <time>2017-09-16T09:41:53Z</time>
      </trkpt>
      <trkpt lat="44.3759" lon="2.44295">
        <ele>575</ele>
        <time>2017-09-16T09:42:00Z</time>
      </trkpt>
      <trkpt lat="44.37589" lon="2.44289">
        <ele>575</ele>
        <time>2017-09-16T09:42:05Z</time>
      </trkpt>
      <trkpt lat="44.37588" lon="2.44283">
        <ele>576</ele>
        <time>2017-09-16T09:42:09Z</time>
      </trkpt>
      <trkpt lat="44.37588" lon="2.44276">
        <ele>577</ele>
        <time>2017-09-16T09:42:13Z</time>
      </trkpt>
      <trkpt lat="44.37582" lon="2.44236">
        <ele>589</ele>
        <time>2017-09-16T09:42:35Z</time>
      </trkpt>
      <trkpt lat="44.3757" lon="2.44213">
        <ele>591</ele>
        <time>2017-09-16T09:42:48Z</time>
      </trkpt>
      <trkpt lat="44.37568" lon="2.44211">
        <ele>591</ele>
        <time>2017-09-16T09:42:50Z</time>
      </trkpt>
      <trkpt lat="44.37565" lon="2.4421">
        <ele>591</ele>
        <time>2017-09-16T09:42:52Z</time>
      </trkpt>
      <trkpt lat="44.37563" lon="2.4421">
        <ele>591</ele>
        <time>2017-09-16T09:42:55Z</time>
      </trkpt>
      <trkpt lat="44.37561" lon="2.44209">
        <ele>591</ele>
        <time>2017-09-16T09:42:57Z</time>
      </trkpt>
      <trkpt lat="44.37561" lon="2.44206">
        <ele>591</ele>
        <time>2017-09-16T09:43:57Z</time>
      </trkpt>
      <trkpt lat="44.37561" lon="2.44202">
        <ele>591</ele>
        <time>2017-09-16T09:44:00Z</time>
      </trkpt>
      <trkpt lat="44.37561" lon="2.44198">
        <ele>591</ele>
        <time>2017-09-16T09:44:03Z</time>
      </trkpt>
      <trkpt lat="44.37558" lon="2.44197">
        <ele>591</ele>
        <time>2017-09-16T09:44:06Z</time>
      </trkpt>
      <trkpt lat="44.37557" lon="2.44197">
        <ele>591</ele>
        <time>2017-09-16T09:44:08Z</time>
      </trkpt>
      <trkpt lat="44.37556" lon="2.44197">
        <ele>591</ele>
        <time>2017-09-16T09:45:25Z</time>
      </trkpt>
      <trkpt lat="44.37557" lon="2.44194">
        <ele>591</ele>
        <time>2017-09-16T09:45:35Z</time>
      </trkpt>
      <trkpt lat="44.37559" lon="2.44195">
        <ele>591</ele>
        <time>2017-09-16T09:46:19Z</time>
      </trkpt>
      <trkpt lat="44.37559" lon="2.44195">
        <ele>591</ele>
        <time>2017-09-16T09:46:19Z</time>
      </trkpt>
      <trkpt lat="44.37557" lon="2.44195">
        <ele>591</ele>
        <time>2017-09-16T09:46:22Z</time>
      </trkpt>
      <trkpt lat="44.37554" lon="2.44191">
        <ele>591</ele>
        <time>2017-09-16T09:47:03Z</time>
      </trkpt>
      <trkpt lat="44.37556" lon="2.44187">
        <ele>591</ele>
        <time>2017-09-16T09:47:11Z</time>
      </trkpt>
      <trkpt lat="44.37557" lon="2.44182">
        <ele>591</ele>
        <time>2017-09-16T09:47:14Z</time>
      </trkpt>
      <trkpt lat="44.37558" lon="2.44177">
        <ele>591</ele>
        <time>2017-09-16T09:47:17Z</time>
      </trkpt>
      <trkpt lat="44.37559" lon="2.44174">
        <ele>591</ele>
        <time>2017-09-16T09:47:34Z</time>
      </trkpt>
      <trkpt lat="44.37559" lon="2.44168">
        <ele>591</ele>
        <time>2017-09-16T09:48:11Z</time>
      </trkpt>
      <trkpt lat="44.37557" lon="2.44165">
        <ele>592</ele>
        <time>2017-09-16T09:48:14Z</time>
      </trkpt>
      <trkpt lat="44.37556" lon="2.44162">
        <ele>593</ele>
        <time>2017-09-16T09:48:16Z</time>
      </trkpt>
      <trkpt lat="44.37556" lon="2.44157">
        <ele>593</ele>
        <time>2017-09-16T09:48:20Z</time>
      </trkpt>
      <trkpt lat="44.3756" lon="2.44129">
        <ele>593</ele>
        <time>2017-09-16T09:48:38Z</time>
      </trkpt>
      <trkpt lat="44.37561" lon="2.44123">
        <ele>593</ele>
        <time>2017-09-16T09:48:41Z</time>
      </trkpt>
      <trkpt lat="44.37563" lon="2.44118">
        <ele>593</ele>
        <time>2017-09-16T09:48:45Z</time>
      </trkpt>
      <trkpt lat="44.37576" lon="2.44071">
        <ele>595</ele>
        <time>2017-09-16T09:49:12Z</time>
      </trkpt>
      <trkpt lat="44.37577" lon="2.44066">
        <ele>595</ele>
        <time>2017-09-16T09:49:15Z</time>
      </trkpt>
      <trkpt lat="44.37579" lon="2.44061">
        <ele>596</ele>
        <time>2017-09-16T09:49:18Z</time>
      </trkpt>
      <trkpt lat="44.3758" lon="2.44056">
        <ele>596</ele>
        <time>2017-09-16T09:49:21Z</time>
      </trkpt>
      <trkpt lat="44.37581" lon="2.43998">
        <ele>598</ele>
        <time>2017-09-16T09:49:53Z</time>
      </trkpt>
      <trkpt lat="44.3758" lon="2.43983">
        <ele>599</ele>
        <time>2017-09-16T09:50:01Z</time>
      </trkpt>
      <trkpt lat="44.3758" lon="2.43937">
        <ele>599</ele>
        <time>2017-09-16T09:50:25Z</time>
      </trkpt>
      <trkpt lat="44.37579" lon="2.43895">
        <ele>600</ele>
        <time>2017-09-16T09:50:46Z</time>
      </trkpt>
      <trkpt lat="44.37578" lon="2.43879">
        <ele>600</ele>
        <time>2017-09-16T09:50:53Z</time>
      </trkpt>
      <trkpt lat="44.37577" lon="2.43874">
        <ele>600</ele>
        <time>2017-09-16T09:50:56Z</time>
      </trkpt>
      <trkpt lat="44.37578" lon="2.43852">
        <ele>600</ele>
        <time>2017-09-16T09:51:08Z</time>
      </trkpt>
      <trkpt lat="44.37577" lon="2.43794">
        <ele>601</ele>
        <time>2017-09-16T09:51:38Z</time>
      </trkpt>
      <trkpt lat="44.37578" lon="2.4374">
        <ele>602</ele>
        <time>2017-09-16T09:52:09Z</time>
      </trkpt>
      <trkpt lat="44.37581" lon="2.43712">
        <ele>603</ele>
        <time>2017-09-16T09:52:25Z</time>
      </trkpt>
      <trkpt lat="44.37595" lon="2.4366">
        <ele>601</ele>
        <time>2017-09-16T09:52:55Z</time>
      </trkpt>
      <trkpt lat="44.376" lon="2.43646">
        <ele>601</ele>
        <time>2017-09-16T09:53:02Z</time>
      </trkpt>
      <trkpt lat="44.37601" lon="2.43636">
        <ele>601</ele>
        <time>2017-09-16T09:53:07Z</time>
      </trkpt>
      <trkpt lat="44.37606" lon="2.43624">
        <ele>601</ele>
        <time>2017-09-16T09:53:32Z</time>
      </trkpt>
      <trkpt lat="44.37606" lon="2.43614">
        <ele>601</ele>
        <time>2017-09-16T09:53:38Z</time>
      </trkpt>
      <trkpt lat="44.37608" lon="2.43609">
        <ele>601</ele>
        <time>2017-09-16T09:53:42Z</time>
      </trkpt>
      <trkpt lat="44.37609" lon="2.43598">
        <ele>601</ele>
        <time>2017-09-16T09:53:49Z</time>
      </trkpt>
      <trkpt lat="44.37611" lon="2.43589">
        <ele>601</ele>
        <time>2017-09-16T09:53:53Z</time>
      </trkpt>
      <trkpt lat="44.37612" lon="2.43586">
        <ele>601</ele>
        <time>2017-09-16T09:53:55Z</time>
      </trkpt>
      <trkpt lat="44.37615" lon="2.43576">
        <ele>602</ele>
        <time>2017-09-16T09:54:01Z</time>
      </trkpt>
      <trkpt lat="44.37616" lon="2.43574">
        <ele>602</ele>
        <time>2017-09-16T09:54:03Z</time>
      </trkpt>
      <trkpt lat="44.37619" lon="2.43571">
        <ele>602</ele>
        <time>2017-09-16T09:54:32Z</time>
      </trkpt>
      <trkpt lat="44.37631" lon="2.43522">
        <ele>602</ele>
        <time>2017-09-16T09:55:02Z</time>
      </trkpt>
      <trkpt lat="44.37637" lon="2.43495">
        <ele>603</ele>
        <time>2017-09-16T09:55:16Z</time>
      </trkpt>
      <trkpt lat="44.37638" lon="2.43492">
        <ele>603</ele>
        <time>2017-09-16T09:55:19Z</time>
      </trkpt>
      <trkpt lat="44.37638" lon="2.43488">
        <ele>603</ele>
        <time>2017-09-16T09:55:26Z</time>
      </trkpt>
      <trkpt lat="44.3764" lon="2.43482">
        <ele>603</ele>
        <time>2017-09-16T09:55:30Z</time>
      </trkpt>
      <trkpt lat="44.37641" lon="2.43475">
        <ele>603</ele>
        <time>2017-09-16T09:55:34Z</time>
      </trkpt>
      <trkpt lat="44.37649" lon="2.43441">
        <ele>604</ele>
        <time>2017-09-16T09:55:53Z</time>
      </trkpt>
      <trkpt lat="44.37652" lon="2.43432">
        <ele>604</ele>
        <time>2017-09-16T09:55:58Z</time>
      </trkpt>
      <trkpt lat="44.37653" lon="2.43426">
        <ele>604</ele>
        <time>2017-09-16T09:56:01Z</time>
      </trkpt>
      <trkpt lat="44.37655" lon="2.43413">
        <ele>605</ele>
        <time>2017-09-16T09:56:08Z</time>
      </trkpt>
      <trkpt lat="44.37657" lon="2.43409">
        <ele>605</ele>
        <time>2017-09-16T09:56:11Z</time>
      </trkpt>
      <trkpt lat="44.37658" lon="2.43405">
        <ele>605</ele>
        <time>2017-09-16T09:56:13Z</time>
      </trkpt>
      <trkpt lat="44.37658" lon="2.43401">
        <ele>606</ele>
        <time>2017-09-16T09:56:15Z</time>
      </trkpt>
      <trkpt lat="44.37659" lon="2.43391">
        <ele>606</ele>
        <time>2017-09-16T09:56:21Z</time>
      </trkpt>
      <trkpt lat="44.37661" lon="2.43385">
        <ele>606</ele>
        <time>2017-09-16T09:56:24Z</time>
      </trkpt>
      <trkpt lat="44.37668" lon="2.43334">
        <ele>605</ele>
        <time>2017-09-16T09:56:51Z</time>
      </trkpt>
      <trkpt lat="44.37673" lon="2.4328">
        <ele>606</ele>
        <time>2017-09-16T09:57:21Z</time>
      </trkpt>
      <trkpt lat="44.37672" lon="2.4327">
        <ele>607</ele>
        <time>2017-09-16T09:57:28Z</time>
      </trkpt>
      <trkpt lat="44.37674" lon="2.43261">
        <ele>607</ele>
        <time>2017-09-16T09:57:34Z</time>
      </trkpt>
      <trkpt lat="44.37678" lon="2.43203">
        <ele>609</ele>
        <time>2017-09-16T09:58:06Z</time>
      </trkpt>
      <trkpt lat="44.37675" lon="2.43182">
        <ele>611</ele>
        <time>2017-09-16T09:58:17Z</time>
      </trkpt>
      <trkpt lat="44.37673" lon="2.43175">
        <ele>612</ele>
        <time>2017-09-16T09:58:21Z</time>
      </trkpt>
      <trkpt lat="44.37667" lon="2.43117">
        <ele>611</ele>
        <time>2017-09-16T09:58:53Z</time>
      </trkpt>
      <trkpt lat="44.37664" lon="2.43094">
        <ele>614</ele>
        <time>2017-09-16T09:59:08Z</time>
      </trkpt>
      <trkpt lat="44.37664" lon="2.43089">
        <ele>614</ele>
        <time>2017-09-16T09:59:11Z</time>
      </trkpt>
      <trkpt lat="44.37664" lon="2.43086">
        <ele>613</ele>
        <time>2017-09-16T09:59:13Z</time>
      </trkpt>
      <trkpt lat="44.37665" lon="2.43082">
        <ele>613</ele>
        <time>2017-09-16T09:59:16Z</time>
      </trkpt>
      <trkpt lat="44.37662" lon="2.43041">
        <ele>614</ele>
        <time>2017-09-16T09:59:40Z</time>
      </trkpt>
      <trkpt lat="44.37662" lon="2.43035">
        <ele>614</ele>
        <time>2017-09-16T09:59:43Z</time>
      </trkpt>
      <trkpt lat="44.3766" lon="2.43024">
        <ele>614</ele>
        <time>2017-09-16T09:59:50Z</time>
      </trkpt>
      <trkpt lat="44.37658" lon="2.42994">
        <ele>613</ele>
        <time>2017-09-16T10:00:05Z</time>
      </trkpt>
      <trkpt lat="44.37657" lon="2.42984">
        <ele>613</ele>
        <time>2017-09-16T10:00:10Z</time>
      </trkpt>
      <trkpt lat="44.37656" lon="2.42974">
        <ele>613</ele>
        <time>2017-09-16T10:00:16Z</time>
      </trkpt>
      <trkpt lat="44.37656" lon="2.4297">
        <ele>613</ele>
        <time>2017-09-16T10:00:18Z</time>
      </trkpt>
      <trkpt lat="44.37656" lon="2.42968">
        <ele>613</ele>
        <time>2017-09-16T10:00:19Z</time>
      </trkpt>
      <trkpt lat="44.37656" lon="2.42964">
        <ele>613</ele>
        <time>2017-09-16T10:00:21Z</time>
      </trkpt>
      <trkpt lat="44.37656" lon="2.42959">
        <ele>613</ele>
        <time>2017-09-16T10:00:23Z</time>
      </trkpt>
      <trkpt lat="44.37655" lon="2.42957">
        <ele>613</ele>
        <time>2017-09-16T10:00:24Z</time>
      </trkpt>
      <trkpt lat="44.3765" lon="2.42908">
        <ele>611</ele>
        <time>2017-09-16T10:00:50Z</time>
      </trkpt>
      <trkpt lat="44.37635" lon="2.42735">
        <ele>606</ele>
        <time>2017-09-16T10:02:34Z</time>
      </trkpt>
      <trkpt lat="44.37635" lon="2.42735">
        <ele>606</ele>
        <time>2017-09-16T10:02:34Z</time>
      </trkpt>
      <trkpt lat="44.37633" lon="2.42737">
        <ele>606</ele>
        <time>2017-09-16T10:02:39Z</time>
      </trkpt>
      <trkpt lat="44.3763" lon="2.42738">
        <ele>606</ele>
        <time>2017-09-16T10:02:41Z</time>
      </trkpt>
      <trkpt lat="44.37632" lon="2.42731">
        <ele>606</ele>
        <time>2017-09-16T10:03:01Z</time>
      </trkpt>
      <trkpt lat="44.37632" lon="2.42728">
        <ele>606</ele>
        <time>2017-09-16T10:03:03Z</time>
      </trkpt>
      <trkpt lat="44.3763" lon="2.42724">
        <ele>607</ele>
        <time>2017-09-16T10:03:05Z</time>
      </trkpt>
      <trkpt lat="44.37629" lon="2.42721">
        <ele>607</ele>
        <time>2017-09-16T10:03:07Z</time>
      </trkpt>
      <trkpt lat="44.3763" lon="2.42713">
        <ele>607</ele>
        <time>2017-09-16T10:03:11Z</time>
      </trkpt>
      <trkpt lat="44.37631" lon="2.42707">
        <ele>607</ele>
        <time>2017-09-16T10:03:15Z</time>
      </trkpt>
      <trkpt lat="44.37632" lon="2.42702">
        <ele>607</ele>
        <time>2017-09-16T10:03:18Z</time>
      </trkpt>
      <trkpt lat="44.37634" lon="2.42696">
        <ele>607</ele>
        <time>2017-09-16T10:03:22Z</time>
      </trkpt>
      <trkpt lat="44.37652" lon="2.42676">
        <ele>606</ele>
        <time>2017-09-16T10:03:39Z</time>
      </trkpt>
      <trkpt lat="44.37655" lon="2.42675">
        <ele>606</ele>
        <time>2017-09-16T10:03:41Z</time>
      </trkpt>
      <trkpt lat="44.37687" lon="2.42646">
        <ele>602</ele>
        <time>2017-09-16T10:04:10Z</time>
      </trkpt>
      <trkpt lat="44.37689" lon="2.42643">
        <ele>602</ele>
        <time>2017-09-16T10:04:15Z</time>
      </trkpt>
      <trkpt lat="44.37687" lon="2.42641">
        <ele>602</ele>
        <time>2017-09-16T10:04:20Z</time>
      </trkpt>
      <trkpt lat="44.37686" lon="2.42645">
        <ele>602</ele>
        <time>2017-09-16T10:04:24Z</time>
      </trkpt>
      <trkpt lat="44.37681" lon="2.42651">
        <ele>603</ele>
        <time>2017-09-16T10:04:30Z</time>
      </trkpt>
      <trkpt lat="44.37678" lon="2.42653">
        <ele>603</ele>
        <time>2017-09-16T10:04:32Z</time>
      </trkpt>
      <trkpt lat="44.37676" lon="2.42654">
        <ele>603</ele>
        <time>2017-09-16T10:04:34Z</time>
      </trkpt>
      <trkpt lat="44.37674" lon="2.42656">
        <ele>603</ele>
        <time>2017-09-16T10:04:36Z</time>
      </trkpt>
      <trkpt lat="44.37668" lon="2.42663">
        <ele>604</ele>
        <time>2017-09-16T10:04:41Z</time>
      </trkpt>
      <trkpt lat="44.37662" lon="2.42667">
        <ele>605</ele>
        <time>2017-09-16T10:04:45Z</time>
      </trkpt>
      <trkpt lat="44.37661" lon="2.42668">
        <ele>605</ele>
        <time>2017-09-16T10:04:46Z</time>
      </trkpt>
      <trkpt lat="44.37656" lon="2.42675">
        <ele>606</ele>
        <time>2017-09-16T10:04:50Z</time>
      </trkpt>
      <trkpt lat="44.37654" lon="2.42677">
        <ele>606</ele>
        <time>2017-09-16T10:04:52Z</time>
      </trkpt>
      <trkpt lat="44.37647" lon="2.42682">
        <ele>606</ele>
        <time>2017-09-16T10:04:57Z</time>
      </trkpt>
      <trkpt lat="44.37638" lon="2.42691">
        <ele>607</ele>
        <time>2017-09-16T10:05:05Z</time>
      </trkpt>
      <trkpt lat="44.37635" lon="2.42699">
        <ele>607</ele>
        <time>2017-09-16T10:05:09Z</time>
      </trkpt>
      <trkpt lat="44.37634" lon="2.42708">
        <ele>607</ele>
        <time>2017-09-16T10:05:14Z</time>
      </trkpt>
      <trkpt lat="44.37634" lon="2.4272">
        <ele>607</ele>
        <time>2017-09-16T10:05:20Z</time>
      </trkpt>
      <trkpt lat="44.37635" lon="2.42729">
        <ele>606</ele>
        <time>2017-09-16T10:05:24Z</time>
      </trkpt>
      <trkpt lat="44.37636" lon="2.42733">
        <ele>606</ele>
        <time>2017-09-16T10:05:27Z</time>
      </trkpt>
      <trkpt lat="44.37637" lon="2.42739">
        <ele>606</ele>
        <time>2017-09-16T10:05:30Z</time>
      </trkpt>
      <trkpt lat="44.37641" lon="2.42745">
        <ele>606</ele>
        <time>2017-09-16T10:05:35Z</time>
      </trkpt>
      <trkpt lat="44.37649" lon="2.42749">
        <ele>605</ele>
        <time>2017-09-16T10:05:41Z</time>
      </trkpt>
      <trkpt lat="44.37657" lon="2.42757">
        <ele>605</ele>
        <time>2017-09-16T10:05:48Z</time>
      </trkpt>
      <trkpt lat="44.37666" lon="2.42761">
        <ele>605</ele>
        <time>2017-09-16T10:05:55Z</time>
      </trkpt>
      <trkpt lat="44.37673" lon="2.42765">
        <ele>603</ele>
        <time>2017-09-16T10:06:01Z</time>
      </trkpt>
      <trkpt lat="44.37677" lon="2.42766">
        <ele>603</ele>
        <time>2017-09-16T10:06:04Z</time>
      </trkpt>
      <trkpt lat="44.37685" lon="2.42766">
        <ele>603</ele>
        <time>2017-09-16T10:06:10Z</time>
      </trkpt>
      <trkpt lat="44.37692" lon="2.42764">
        <ele>603</ele>
        <time>2017-09-16T10:06:15Z</time>
      </trkpt>
      <trkpt lat="44.37694" lon="2.42763">
        <ele>603</ele>
        <time>2017-09-16T10:06:17Z</time>
      </trkpt>
      <trkpt lat="44.37698" lon="2.42761">
        <ele>603</ele>
        <time>2017-09-16T10:06:20Z</time>
      </trkpt>
      <trkpt lat="44.37701" lon="2.42761">
        <ele>603</ele>
        <time>2017-09-16T10:06:22Z</time>
      </trkpt>
      <trkpt lat="44.37703" lon="2.42761">
        <ele>603</ele>
        <time>2017-09-16T10:06:26Z</time>
      </trkpt>
      <trkpt lat="44.37713" lon="2.42757">
        <ele>602</ele>
        <time>2017-09-16T10:06:36Z</time>
      </trkpt>
      <trkpt lat="44.37715" lon="2.42756">
        <ele>602</ele>
        <time>2017-09-16T10:06:39Z</time>
      </trkpt>
      <trkpt lat="44.37726" lon="2.42753">
        <ele>601</ele>
        <time>2017-09-16T10:06:47Z</time>
      </trkpt>
      <trkpt lat="44.37731" lon="2.42751">
        <ele>600</ele>
        <time>2017-09-16T10:06:51Z</time>
      </trkpt>
      <trkpt lat="44.37749" lon="2.42751">
        <ele>597</ele>
        <time>2017-09-16T10:07:04Z</time>
      </trkpt>
      <trkpt lat="44.37791" lon="2.42745">
        <ele>595</ele>
        <time>2017-09-16T10:07:34Z</time>
      </trkpt>
      <trkpt lat="44.37802" lon="2.42746">
        <ele>595</ele>
        <time>2017-09-16T10:07:42Z</time>
      </trkpt>
      <trkpt lat="44.37845" lon="2.42742">
        <ele>594</ele>
        <time>2017-09-16T10:08:12Z</time>
      </trkpt>
      <trkpt lat="44.37851" lon="2.4274">
        <ele>594</ele>
        <time>2017-09-16T10:08:17Z</time>
      </trkpt>
      <trkpt lat="44.37892" lon="2.42744">
        <ele>592</ele>
        <time>2017-09-16T10:08:47Z</time>
      </trkpt>
      <trkpt lat="44.37906" lon="2.42747">
        <ele>593</ele>
        <time>2017-09-16T10:08:57Z</time>
      </trkpt>
      <trkpt lat="44.37912" lon="2.42749">
        <ele>593</ele>
        <time>2017-09-16T10:09:01Z</time>
      </trkpt>
      <trkpt lat="44.37925" lon="2.42748">
        <ele>592</ele>
        <time>2017-09-16T10:09:09Z</time>
      </trkpt>
      <trkpt lat="44.37936" lon="2.42753">
        <ele>593</ele>
        <time>2017-09-16T10:09:17Z</time>
      </trkpt>
      <trkpt lat="44.37941" lon="2.42757">
        <ele>593</ele>
        <time>2017-09-16T10:09:22Z</time>
      </trkpt>
      <trkpt lat="44.37946" lon="2.42764">
        <ele>593</ele>
        <time>2017-09-16T10:09:27Z</time>
      </trkpt>
      <trkpt lat="44.37949" lon="2.42769">
        <ele>593</ele>
        <time>2017-09-16T10:09:31Z</time>
      </trkpt>
      <trkpt lat="44.37951" lon="2.42772">
        <ele>593</ele>
        <time>2017-09-16T10:09:33Z</time>
      </trkpt>
      <trkpt lat="44.3796" lon="2.42784">
        <ele>593</ele>
        <time>2017-09-16T10:09:42Z</time>
      </trkpt>
      <trkpt lat="44.37967" lon="2.42789">
        <ele>593</ele>
        <time>2017-09-16T10:09:48Z</time>
      </trkpt>
      <trkpt lat="44.37977" lon="2.42789">
        <ele>592</ele>
        <time>2017-09-16T10:09:55Z</time>
      </trkpt>
      <trkpt lat="44.3798" lon="2.42788">
        <ele>592</ele>
        <time>2017-09-16T10:09:57Z</time>
      </trkpt>
      <trkpt lat="44.37985" lon="2.42787">
        <ele>592</ele>
        <time>2017-09-16T10:10:01Z</time>
      </trkpt>
      <trkpt lat="44.37989" lon="2.42788">
        <ele>592</ele>
        <time>2017-09-16T10:10:04Z</time>
      </trkpt>
      <trkpt lat="44.37993" lon="2.42786">
        <ele>592</ele>
        <time>2017-09-16T10:10:07Z</time>
      </trkpt>
      <trkpt lat="44.37996" lon="2.42784">
        <ele>592</ele>
        <time>2017-09-16T10:10:10Z</time>
      </trkpt>
      <trkpt lat="44.37999" lon="2.42778">
        <ele>592</ele>
        <time>2017-09-16T10:10:14Z</time>
      </trkpt>
      <trkpt lat="44.38008" lon="2.42761">
        <ele>588</ele>
        <time>2017-09-16T10:10:25Z</time>
      </trkpt>
      <trkpt lat="44.38019" lon="2.42738">
        <ele>586</ele>
        <time>2017-09-16T10:10:39Z</time>
      </trkpt>
      <trkpt lat="44.38027" lon="2.42713">
        <ele>585</ele>
        <time>2017-09-16T10:10:54Z</time>
      </trkpt>
      <trkpt lat="44.38027" lon="2.42709">
        <ele>584</ele>
        <time>2017-09-16T10:10:56Z</time>
      </trkpt>
      <trkpt lat="44.38028" lon="2.42701">
        <ele>584</ele>
        <time>2017-09-16T10:11:01Z</time>
      </trkpt>
      <trkpt lat="44.38029" lon="2.42697">
        <ele>584</ele>
        <time>2017-09-16T10:11:04Z</time>
      </trkpt>
      <trkpt lat="44.38036" lon="2.42658">
        <ele>582</ele>
        <time>2017-09-16T10:11:25Z</time>
      </trkpt>
      <trkpt lat="44.38037" lon="2.42651">
        <ele>581</ele>
        <time>2017-09-16T10:11:30Z</time>
      </trkpt>
      <trkpt lat="44.38038" lon="2.42645">
        <ele>581</ele>
        <time>2017-09-16T10:11:33Z</time>
      </trkpt>
      <trkpt lat="44.38039" lon="2.42641">
        <ele>581</ele>
        <time>2017-09-16T10:11:35Z</time>
      </trkpt>
      <trkpt lat="44.3804" lon="2.42636">
        <ele>581</ele>
        <time>2017-09-16T10:11:38Z</time>
      </trkpt>
      <trkpt lat="44.38039" lon="2.42632">
        <ele>581</ele>
        <time>2017-09-16T10:11:40Z</time>
      </trkpt>
      <trkpt lat="44.38039" lon="2.42625">
        <ele>581</ele>
        <time>2017-09-16T10:11:44Z</time>
      </trkpt>
      <trkpt lat="44.38039" lon="2.42616">
        <ele>580</ele>
        <time>2017-09-16T10:11:49Z</time>
      </trkpt>
      <trkpt lat="44.38039" lon="2.42608">
        <ele>580</ele>
        <time>2017-09-16T10:11:53Z</time>
      </trkpt>
      <trkpt lat="44.38039" lon="2.42604">
        <ele>580</ele>
        <time>2017-09-16T10:11:55Z</time>
      </trkpt>
      <trkpt lat="44.38038" lon="2.42601">
        <ele>580</ele>
        <time>2017-09-16T10:11:57Z</time>
      </trkpt>
      <trkpt lat="44.38036" lon="2.42599">
        <ele>580</ele>
        <time>2017-09-16T10:11:59Z</time>
      </trkpt>
      <trkpt lat="44.38034" lon="2.42596">
        <ele>580</ele>
        <time>2017-09-16T10:12:02Z</time>
      </trkpt>
      <trkpt lat="44.38027" lon="2.426">
        <ele>580</ele>
        <time>2017-09-16T10:12:10Z</time>
      </trkpt>
      <trkpt lat="44.38018" lon="2.42599">
        <ele>580</ele>
        <time>2017-09-16T10:12:16Z</time>
      </trkpt>
      <trkpt lat="44.38008" lon="2.42606">
        <ele>581</ele>
        <time>2017-09-16T10:12:26Z</time>
      </trkpt>
      <trkpt lat="44.38005" lon="2.42607">
        <ele>581</ele>
        <time>2017-09-16T10:12:29Z</time>
      </trkpt>
      <trkpt lat="44.37999" lon="2.42607">
        <ele>582</ele>
        <time>2017-09-16T10:12:35Z</time>
      </trkpt>
      <trkpt lat="44.37994" lon="2.42608">
        <ele>583</ele>
        <time>2017-09-16T10:12:39Z</time>
      </trkpt>
      <trkpt lat="44.37985" lon="2.42607">
        <ele>583</ele>
        <time>2017-09-16T10:12:47Z</time>
      </trkpt>
      <trkpt lat="44.37977" lon="2.42605">
        <ele>583</ele>
        <time>2017-09-16T10:12:52Z</time>
      </trkpt>
      <trkpt lat="44.37971" lon="2.42597">
        <ele>583</ele>
        <time>2017-09-16T10:12:58Z</time>
      </trkpt>
      <trkpt lat="44.37969" lon="2.42593">
        <ele>583</ele>
        <time>2017-09-16T10:13:00Z</time>
      </trkpt>
      <trkpt lat="44.37967" lon="2.4259">
        <ele>583</ele>
        <time>2017-09-16T10:13:02Z</time>
      </trkpt>
      <trkpt lat="44.37954" lon="2.42569">
        <ele>580</ele>
        <time>2017-09-16T10:13:16Z</time>
      </trkpt>
      <trkpt lat="44.37953" lon="2.42566">
        <ele>580</ele>
        <time>2017-09-16T10:13:18Z</time>
      </trkpt>
      <trkpt lat="44.3795" lon="2.42559">
        <ele>580</ele>
        <time>2017-09-16T10:13:23Z</time>
      </trkpt>
      <trkpt lat="44.37948" lon="2.42554">
        <ele>580</ele>
        <time>2017-09-16T10:13:27Z</time>
      </trkpt>
      <trkpt lat="44.37946" lon="2.42543">
        <ele>580</ele>
        <time>2017-09-16T10:13:34Z</time>
      </trkpt>
      <trkpt lat="44.37946" lon="2.42538">
        <ele>580</ele>
        <time>2017-09-16T10:13:37Z</time>
      </trkpt>
      <trkpt lat="44.37947" lon="2.42532">
        <ele>580</ele>
        <time>2017-09-16T10:13:40Z</time>
      </trkpt>
      <trkpt lat="44.37947" lon="2.4252">
        <ele>580</ele>
        <time>2017-09-16T10:13:47Z</time>
      </trkpt>
      <trkpt lat="44.3795" lon="2.4251">
        <ele>580</ele>
        <time>2017-09-16T10:13:52Z</time>
      </trkpt>
      <trkpt lat="44.37952" lon="2.42506">
        <ele>580</ele>
        <time>2017-09-16T10:13:55Z</time>
      </trkpt>
      <trkpt lat="44.37953" lon="2.42501">
        <ele>580</ele>
        <time>2017-09-16T10:13:58Z</time>
      </trkpt>
      <trkpt lat="44.37955" lon="2.42497">
        <ele>578</ele>
        <time>2017-09-16T10:14:01Z</time>
      </trkpt>
      <trkpt lat="44.37956" lon="2.42492">
        <ele>578</ele>
        <time>2017-09-16T10:14:05Z</time>
      </trkpt>
      <trkpt lat="44.37954" lon="2.4247">
        <ele>578</ele>
        <time>2017-09-16T10:14:17Z</time>
      </trkpt>
      <trkpt lat="44.37941" lon="2.42441">
        <ele>578</ele>
        <time>2017-09-16T10:14:37Z</time>
      </trkpt>
      <trkpt lat="44.3794" lon="2.42436">
        <ele>579</ele>
        <time>2017-09-16T10:14:40Z</time>
      </trkpt>
      <trkpt lat="44.37934" lon="2.42424">
        <ele>579</ele>
        <time>2017-09-16T10:14:51Z</time>
      </trkpt>
      <trkpt lat="44.37932" lon="2.42416">
        <ele>578</ele>
        <time>2017-09-16T10:14:55Z</time>
      </trkpt>
      <trkpt lat="44.37932" lon="2.42411">
        <ele>578</ele>
        <time>2017-09-16T10:14:58Z</time>
      </trkpt>
      <trkpt lat="44.3793" lon="2.42406">
        <ele>578</ele>
        <time>2017-09-16T10:15:01Z</time>
      </trkpt>
      <trkpt lat="44.37929" lon="2.42396">
        <ele>577</ele>
        <time>2017-09-16T10:15:07Z</time>
      </trkpt>
      <trkpt lat="44.37926" lon="2.42387">
        <ele>576</ele>
        <time>2017-09-16T10:15:14Z</time>
      </trkpt>
      <trkpt lat="44.3792" lon="2.42355">
        <ele>576</ele>
        <time>2017-09-16T10:15:32Z</time>
      </trkpt>
      <trkpt lat="44.37914" lon="2.42331">
        <ele>580</ele>
        <time>2017-09-16T10:15:45Z</time>
      </trkpt>
      <trkpt lat="44.37909" lon="2.42305">
        <ele>580</ele>
        <time>2017-09-16T10:15:59Z</time>
      </trkpt>
      <trkpt lat="44.37908" lon="2.42302">
        <ele>580</ele>
        <time>2017-09-16T10:16:01Z</time>
      </trkpt>
      <trkpt lat="44.37907" lon="2.42296">
        <ele>579</ele>
        <time>2017-09-16T10:16:04Z</time>
      </trkpt>
      <trkpt lat="44.37905" lon="2.42285">
        <ele>579</ele>
        <time>2017-09-16T10:16:11Z</time>
      </trkpt>
      <trkpt lat="44.379" lon="2.42251">
        <ele>576</ele>
        <time>2017-09-16T10:16:31Z</time>
      </trkpt>
      <trkpt lat="44.37895" lon="2.4223">
        <ele>572</ele>
        <time>2017-09-16T10:16:42Z</time>
      </trkpt>
      <trkpt lat="44.37875" lon="2.42199">
        <ele>572</ele>
        <time>2017-09-16T10:17:03Z</time>
      </trkpt>
      <trkpt lat="44.37871" lon="2.42197">
        <ele>572</ele>
        <time>2017-09-16T10:17:06Z</time>
      </trkpt>
      <trkpt lat="44.37869" lon="2.42194">
        <ele>573</ele>
        <time>2017-09-16T10:17:09Z</time>
      </trkpt>
      <trkpt lat="44.37867" lon="2.42192">
        <ele>573</ele>
        <time>2017-09-16T10:17:11Z</time>
      </trkpt>
      <trkpt lat="44.37864" lon="2.42188">
        <ele>573</ele>
        <time>2017-09-16T10:17:14Z</time>
      </trkpt>
      <trkpt lat="44.37863" lon="2.42185">
        <ele>573</ele>
        <time>2017-09-16T10:17:17Z</time>
      </trkpt>
      <trkpt lat="44.37858" lon="2.42182">
        <ele>573</ele>
        <time>2017-09-16T10:17:21Z</time>
      </trkpt>
      <trkpt lat="44.37857" lon="2.42178">
        <ele>574</ele>
        <time>2017-09-16T10:17:23Z</time>
      </trkpt>
      <trkpt lat="44.37856" lon="2.42176">
        <ele>574</ele>
        <time>2017-09-16T10:17:25Z</time>
      </trkpt>
      <trkpt lat="44.37856" lon="2.42165">
        <ele>570</ele>
        <time>2017-09-16T10:17:31Z</time>
      </trkpt>
      <trkpt lat="44.37859" lon="2.42154">
        <ele>569</ele>
        <time>2017-09-16T10:17:38Z</time>
      </trkpt>
      <trkpt lat="44.37865" lon="2.42147">
        <ele>567</ele>
        <time>2017-09-16T10:17:57Z</time>
      </trkpt>
      <trkpt lat="44.37869" lon="2.42143">
        <ele>566</ele>
        <time>2017-09-16T10:18:02Z</time>
      </trkpt>
      <trkpt lat="44.3787" lon="2.42138">
        <ele>566</ele>
        <time>2017-09-16T10:18:05Z</time>
      </trkpt>
      <trkpt lat="44.37873" lon="2.42134">
        <ele>565</ele>
        <time>2017-09-16T10:18:09Z</time>
      </trkpt>
      <trkpt lat="44.37879" lon="2.42124">
        <ele>564</ele>
        <time>2017-09-16T10:18:16Z</time>
      </trkpt>
      <trkpt lat="44.37883" lon="2.42114">
        <ele>563</ele>
        <time>2017-09-16T10:18:22Z</time>
      </trkpt>
      <trkpt lat="44.37885" lon="2.42106">
        <ele>563</ele>
        <time>2017-09-16T10:18:27Z</time>
      </trkpt>
      <trkpt lat="44.37889" lon="2.42082">
        <ele>555</ele>
        <time>2017-09-16T10:18:41Z</time>
      </trkpt>
      <trkpt lat="44.3789" lon="2.42076">
        <ele>555</ele>
        <time>2017-09-16T10:18:45Z</time>
      </trkpt>
      <trkpt lat="44.37892" lon="2.42065">
        <ele>554</ele>
        <time>2017-09-16T10:18:51Z</time>
      </trkpt>
      <trkpt lat="44.37891" lon="2.42054">
        <ele>554</ele>
        <time>2017-09-16T10:18:57Z</time>
      </trkpt>
      <trkpt lat="44.37888" lon="2.42044">
        <ele>553</ele>
        <time>2017-09-16T10:19:03Z</time>
      </trkpt>
      <trkpt lat="44.37886" lon="2.4204">
        <ele>553</ele>
        <time>2017-09-16T10:19:06Z</time>
      </trkpt>
      <trkpt lat="44.37882" lon="2.42039">
        <ele>553</ele>
        <time>2017-09-16T10:19:09Z</time>
      </trkpt>
      <trkpt lat="44.37879" lon="2.42036">
        <ele>553</ele>
        <time>2017-09-16T10:19:12Z</time>
      </trkpt>
      <trkpt lat="44.37876" lon="2.42033">
        <ele>553</ele>
        <time>2017-09-16T10:19:14Z</time>
      </trkpt>
      <trkpt lat="44.37872" lon="2.42031">
        <ele>553</ele>
        <time>2017-09-16T10:19:17Z</time>
      </trkpt>
      <trkpt lat="44.37868" lon="2.4203">
        <ele>553</ele>
        <time>2017-09-16T10:19:20Z</time>
      </trkpt>
      <trkpt lat="44.37865" lon="2.42028">
        <ele>553</ele>
        <time>2017-09-16T10:19:23Z</time>
      </trkpt>
      <trkpt lat="44.37861" lon="2.42027">
        <ele>553</ele>
        <time>2017-09-16T10:19:26Z</time>
      </trkpt>
      <trkpt lat="44.37859" lon="2.42027">
        <ele>553</ele>
        <time>2017-09-16T10:19:28Z</time>
      </trkpt>
      <trkpt lat="44.37853" lon="2.42027">
        <ele>553</ele>
        <time>2017-09-16T10:19:31Z</time>
      </trkpt>
      <trkpt lat="44.3785" lon="2.42028">
        <ele>553</ele>
        <time>2017-09-16T10:19:34Z</time>
      </trkpt>
      <trkpt lat="44.37842" lon="2.42028">
        <ele>553</ele>
        <time>2017-09-16T10:19:40Z</time>
      </trkpt>
      <trkpt lat="44.37827" lon="2.42033">
        <ele>556</ele>
        <time>2017-09-16T10:19:52Z</time>
      </trkpt>
      <trkpt lat="44.37787" lon="2.42035">
        <ele>556</ele>
        <time>2017-09-16T10:20:23Z</time>
      </trkpt>
      <trkpt lat="44.3777" lon="2.42029">
        <ele>555</ele>
        <time>2017-09-16T10:20:36Z</time>
      </trkpt>
      <trkpt lat="44.37768" lon="2.42027">
        <ele>554</ele>
        <time>2017-09-16T10:20:38Z</time>
      </trkpt>
      <trkpt lat="44.37766" lon="2.42024">
        <ele>554</ele>
        <time>2017-09-16T10:20:40Z</time>
      </trkpt>
      <trkpt lat="44.37757" lon="2.42013">
        <ele>550</ele>
        <time>2017-09-16T10:20:50Z</time>
      </trkpt>
      <trkpt lat="44.37752" lon="2.42006">
        <ele>548</ele>
        <time>2017-09-16T10:20:54Z</time>
      </trkpt>
      <trkpt lat="44.37751" lon="2.42001">
        <ele>546</ele>
        <time>2017-09-16T10:20:56Z</time>
      </trkpt>
      <trkpt lat="44.37746" lon="2.4199">
        <ele>545</ele>
        <time>2017-09-16T10:21:02Z</time>
      </trkpt>
      <trkpt lat="44.37741" lon="2.41984">
        <ele>545</ele>
        <time>2017-09-16T10:21:07Z</time>
      </trkpt>
      <trkpt lat="44.37739" lon="2.41981">
        <ele>544</ele>
        <time>2017-09-16T10:21:10Z</time>
      </trkpt>
      <trkpt lat="44.37735" lon="2.41973">
        <ele>544</ele>
        <time>2017-09-16T10:21:15Z</time>
      </trkpt>
      <trkpt lat="44.37734" lon="2.41968">
        <ele>544</ele>
        <time>2017-09-16T10:21:18Z</time>
      </trkpt>
      <trkpt lat="44.37731" lon="2.41962">
        <ele>543</ele>
        <time>2017-09-16T10:21:22Z</time>
      </trkpt>
      <trkpt lat="44.37727" lon="2.41947">
        <ele>542</ele>
        <time>2017-09-16T10:21:52Z</time>
      </trkpt>
      <trkpt lat="44.37724" lon="2.41942">
        <ele>542</ele>
        <time>2017-09-16T10:21:55Z</time>
      </trkpt>
      <trkpt lat="44.37723" lon="2.41939">
        <ele>542</ele>
        <time>2017-09-16T10:21:57Z</time>
      </trkpt>
      <trkpt lat="44.37725" lon="2.41928">
        <ele>540</ele>
        <time>2017-09-16T10:22:03Z</time>
      </trkpt>
      <trkpt lat="44.37726" lon="2.41921">
        <ele>540</ele>
        <time>2017-09-16T10:22:09Z</time>
      </trkpt>
      <trkpt lat="44.37735" lon="2.41891">
        <ele>535</ele>
        <time>2017-09-16T10:22:30Z</time>
      </trkpt>
      <trkpt lat="44.37736" lon="2.41887">
        <ele>535</ele>
        <time>2017-09-16T10:22:32Z</time>
      </trkpt>
      <trkpt lat="44.3774" lon="2.4185">
        <ele>535</ele>
        <time>2017-09-16T10:22:52Z</time>
      </trkpt>
      <trkpt lat="44.3774" lon="2.41846">
        <ele>535</ele>
        <time>2017-09-16T10:22:54Z</time>
      </trkpt>
      <trkpt lat="44.3774" lon="2.41841">
        <ele>535</ele>
        <time>2017-09-16T10:22:56Z</time>
      </trkpt>
      <trkpt lat="44.3774" lon="2.41828">
        <ele>536</ele>
        <time>2017-09-16T10:23:02Z</time>
      </trkpt>
      <trkpt lat="44.3774" lon="2.41824">
        <ele>536</ele>
        <time>2017-09-16T10:23:04Z</time>
      </trkpt>
      <trkpt lat="44.37739" lon="2.41816">
        <ele>536</ele>
        <time>2017-09-16T10:23:08Z</time>
      </trkpt>
      <trkpt lat="44.37739" lon="2.418">
        <ele>537</ele>
        <time>2017-09-16T10:23:17Z</time>
      </trkpt>
      <trkpt lat="44.37738" lon="2.41796">
        <ele>538</ele>
        <time>2017-09-16T10:23:19Z</time>
      </trkpt>
      <trkpt lat="44.37739" lon="2.41787">
        <ele>539</ele>
        <time>2017-09-16T10:23:25Z</time>
      </trkpt>
      <trkpt lat="44.37736" lon="2.41764">
        <ele>541</ele>
        <time>2017-09-16T10:23:37Z</time>
      </trkpt>
      <trkpt lat="44.37736" lon="2.41756">
        <ele>542</ele>
        <time>2017-09-16T10:23:42Z</time>
      </trkpt>
      <trkpt lat="44.37736" lon="2.4175">
        <ele>545</ele>
        <time>2017-09-16T10:23:46Z</time>
      </trkpt>
      <trkpt lat="44.37735" lon="2.41746">
        <ele>545</ele>
        <time>2017-09-16T10:23:48Z</time>
      </trkpt>
      <trkpt lat="44.37735" lon="2.41742">
        <ele>545</ele>
        <time>2017-09-16T10:23:53Z</time>
      </trkpt>
      <trkpt lat="44.37734" lon="2.41739">
        <ele>545</ele>
        <time>2017-09-16T10:23:55Z</time>
      </trkpt>
      <trkpt lat="44.37734" lon="2.41737">
        <ele>545</ele>
        <time>2017-09-16T10:23:57Z</time>
      </trkpt>
      <trkpt lat="44.37734" lon="2.41734">
        <ele>545</ele>
        <time>2017-09-16T10:23:59Z</time>
      </trkpt>
      <trkpt lat="44.37734" lon="2.4173">
        <ele>546</ele>
        <time>2017-09-16T10:24:02Z</time>
      </trkpt>
      <trkpt lat="44.37733" lon="2.41725">
        <ele>546</ele>
        <time>2017-09-16T10:24:04Z</time>
      </trkpt>
      <trkpt lat="44.37731" lon="2.41722">
        <ele>546</ele>
        <time>2017-09-16T10:24:06Z</time>
      </trkpt>
      <trkpt lat="44.37731" lon="2.41718">
        <ele>546</ele>
        <time>2017-09-16T10:24:08Z</time>
      </trkpt>
      <trkpt lat="44.37731" lon="2.41709">
        <ele>546</ele>
        <time>2017-09-16T10:24:14Z</time>
      </trkpt>
      <trkpt lat="44.37731" lon="2.41699">
        <ele>547</ele>
        <time>2017-09-16T10:24:21Z</time>
      </trkpt>
      <trkpt lat="44.37731" lon="2.41686">
        <ele>548</ele>
        <time>2017-09-16T10:24:29Z</time>
      </trkpt>
      <trkpt lat="44.37731" lon="2.4168">
        <ele>549</ele>
        <time>2017-09-16T10:24:32Z</time>
      </trkpt>
      <trkpt lat="44.3773" lon="2.41668">
        <ele>549</ele>
        <time>2017-09-16T10:24:38Z</time>
      </trkpt>
      <trkpt lat="44.37731" lon="2.41656">
        <ele>554</ele>
        <time>2017-09-16T10:24:45Z</time>
      </trkpt>
      <trkpt lat="44.37732" lon="2.41645">
        <ele>554</ele>
        <time>2017-09-16T10:24:53Z</time>
      </trkpt>
      <trkpt lat="44.37735" lon="2.41641">
        <ele>554</ele>
        <time>2017-09-16T10:24:58Z</time>
      </trkpt>
      <trkpt lat="44.37737" lon="2.41639">
        <ele>554</ele>
        <time>2017-09-16T10:25:02Z</time>
      </trkpt>
      <trkpt lat="44.37744" lon="2.4164">
        <ele>554</ele>
        <time>2017-09-16T10:25:07Z</time>
      </trkpt>
      <trkpt lat="44.37767" lon="2.41636">
        <ele>553</ele>
        <time>2017-09-16T10:25:26Z</time>
      </trkpt>
      <trkpt lat="44.37776" lon="2.41629">
        <ele>552</ele>
        <time>2017-09-16T10:25:34Z</time>
      </trkpt>
      <trkpt lat="44.3778" lon="2.41625">
        <ele>552</ele>
        <time>2017-09-16T10:25:37Z</time>
      </trkpt>
      <trkpt lat="44.37782" lon="2.41621">
        <ele>552</ele>
        <time>2017-09-16T10:25:40Z</time>
      </trkpt>
      <trkpt lat="44.37783" lon="2.41616">
        <ele>552</ele>
        <time>2017-09-16T10:25:43Z</time>
      </trkpt>
      <trkpt lat="44.37776" lon="2.41596">
        <ele>553</ele>
        <time>2017-09-16T10:25:55Z</time>
      </trkpt>
      <trkpt lat="44.3775" lon="2.41558">
        <ele>560</ele>
        <time>2017-09-16T10:26:26Z</time>
      </trkpt>
      <trkpt lat="44.3774" lon="2.41547">
        <ele>561</ele>
        <time>2017-09-16T10:26:37Z</time>
      </trkpt>
      <trkpt lat="44.37723" lon="2.41506">
        <ele>562</ele>
        <time>2017-09-16T10:27:03Z</time>
      </trkpt>
      <trkpt lat="44.37721" lon="2.41502">
        <ele>562</ele>
        <time>2017-09-16T10:27:06Z</time>
      </trkpt>
      <trkpt lat="44.37713" lon="2.41485">
        <ele>567</ele>
        <time>2017-09-16T10:27:18Z</time>
      </trkpt>
      <trkpt lat="44.37712" lon="2.41482">
        <ele>568</ele>
        <time>2017-09-16T10:27:21Z</time>
      </trkpt>
      <trkpt lat="44.3771" lon="2.41474">
        <ele>568</ele>
        <time>2017-09-16T10:27:28Z</time>
      </trkpt>
      <trkpt lat="44.37704" lon="2.41462">
        <ele>569</ele>
        <time>2017-09-16T10:27:37Z</time>
      </trkpt>
      <trkpt lat="44.37695" lon="2.41423">
        <ele>572</ele>
        <time>2017-09-16T10:27:57Z</time>
      </trkpt>
      <trkpt lat="44.37686" lon="2.41407">
        <ele>577</ele>
        <time>2017-09-16T10:28:07Z</time>
      </trkpt>
      <trkpt lat="44.37681" lon="2.414">
        <ele>577</ele>
        <time>2017-09-16T10:28:12Z</time>
      </trkpt>
      <trkpt lat="44.37676" lon="2.41392">
        <ele>577</ele>
        <time>2017-09-16T10:28:17Z</time>
      </trkpt>
      <trkpt lat="44.3767" lon="2.41386">
        <ele>577</ele>
        <time>2017-09-16T10:28:23Z</time>
      </trkpt>
      <trkpt lat="44.37667" lon="2.41381">
        <ele>577</ele>
        <time>2017-09-16T10:28:26Z</time>
      </trkpt>
      <trkpt lat="44.37646" lon="2.41359">
        <ele>584</ele>
        <time>2017-09-16T10:28:45Z</time>
      </trkpt>
      <trkpt lat="44.37643" lon="2.41354">
        <ele>584</ele>
        <time>2017-09-16T10:28:49Z</time>
      </trkpt>
      <trkpt lat="44.37634" lon="2.41347">
        <ele>585</ele>
        <time>2017-09-16T10:28:57Z</time>
      </trkpt>
      <trkpt lat="44.3763" lon="2.41343">
        <ele>585</ele>
        <time>2017-09-16T10:29:01Z</time>
      </trkpt>
      <trkpt lat="44.37623" lon="2.41338">
        <ele>586</ele>
        <time>2017-09-16T10:29:08Z</time>
      </trkpt>
      <trkpt lat="44.37619" lon="2.41332">
        <ele>588</ele>
        <time>2017-09-16T10:29:13Z</time>
      </trkpt>
      <trkpt lat="44.37617" lon="2.41325">
        <ele>588</ele>
        <time>2017-09-16T10:29:18Z</time>
      </trkpt>
      <trkpt lat="44.37615" lon="2.41319">
        <ele>589</ele>
        <time>2017-09-16T10:29:23Z</time>
      </trkpt>
      <trkpt lat="44.37614" lon="2.41312">
        <ele>589</ele>
        <time>2017-09-16T10:29:28Z</time>
      </trkpt>
      <trkpt lat="44.37612" lon="2.41306">
        <ele>589</ele>
        <time>2017-09-16T10:29:31Z</time>
      </trkpt>
      <trkpt lat="44.3761" lon="2.41299">
        <ele>589</ele>
        <time>2017-09-16T10:29:35Z</time>
      </trkpt>
      <trkpt lat="44.37596" lon="2.41276">
        <ele>591</ele>
        <time>2017-09-16T10:29:47Z</time>
      </trkpt>
      <trkpt lat="44.37592" lon="2.41265">
        <ele>593</ele>
        <time>2017-09-16T10:29:54Z</time>
      </trkpt>
      <trkpt lat="44.37592" lon="2.4126">
        <ele>593</ele>
        <time>2017-09-16T10:29:59Z</time>
      </trkpt>
      <trkpt lat="44.37595" lon="2.41253">
        <ele>594</ele>
        <time>2017-09-16T10:30:03Z</time>
      </trkpt>
      <trkpt lat="44.37598" lon="2.4124">
        <ele>594</ele>
        <time>2017-09-16T10:30:10Z</time>
      </trkpt>
      <trkpt lat="44.37597" lon="2.41233">
        <ele>594</ele>
        <time>2017-09-16T10:30:13Z</time>
      </trkpt>
      <trkpt lat="44.37594" lon="2.41212">
        <ele>594</ele>
        <time>2017-09-16T10:30:23Z</time>
      </trkpt>
      <trkpt lat="44.3759" lon="2.41193">
        <ele>595</ele>
        <time>2017-09-16T10:30:32Z</time>
      </trkpt>
      <trkpt lat="44.37587" lon="2.41181">
        <ele>596</ele>
        <time>2017-09-16T10:30:39Z</time>
      </trkpt>
      <trkpt lat="44.37586" lon="2.41177">
        <ele>597</ele>
        <time>2017-09-16T10:30:41Z</time>
      </trkpt>
      <trkpt lat="44.37587" lon="2.41172">
        <ele>597</ele>
        <time>2017-09-16T10:30:44Z</time>
      </trkpt>
      <trkpt lat="44.37578" lon="2.41138">
        <ele>600</ele>
        <time>2017-09-16T10:31:02Z</time>
      </trkpt>
      <trkpt lat="44.37577" lon="2.41135">
        <ele>601</ele>
        <time>2017-09-16T10:31:04Z</time>
      </trkpt>
      <trkpt lat="44.37574" lon="2.41131">
        <ele>601</ele>
        <time>2017-09-16T10:31:07Z</time>
      </trkpt>
      <trkpt lat="44.37573" lon="2.41127">
        <ele>601</ele>
        <time>2017-09-16T10:31:10Z</time>
      </trkpt>
      <trkpt lat="44.37572" lon="2.41123">
        <ele>601</ele>
        <time>2017-09-16T10:31:12Z</time>
      </trkpt>
      <trkpt lat="44.37572" lon="2.41116">
        <ele>601</ele>
        <time>2017-09-16T10:31:15Z</time>
      </trkpt>
      <trkpt lat="44.37564" lon="2.41083">
        <ele>601</ele>
        <time>2017-09-16T10:31:35Z</time>
      </trkpt>
      <trkpt lat="44.37563" lon="2.41084">
        <ele>601</ele>
        <time>2017-09-16T10:33:16Z</time>
      </trkpt>
      <trkpt lat="44.37564" lon="2.41081">
        <ele>601</ele>
        <time>2017-09-16T10:33:28Z</time>
      </trkpt>
      <trkpt lat="44.37551" lon="2.41027">
        <ele>601</ele>
        <time>2017-09-16T10:33:59Z</time>
      </trkpt>
      <trkpt lat="44.37549" lon="2.41024">
        <ele>601</ele>
        <time>2017-09-16T10:34:02Z</time>
      </trkpt>
      <trkpt lat="44.37548" lon="2.41014">
        <ele>601</ele>
        <time>2017-09-16T10:34:08Z</time>
      </trkpt>
      <trkpt lat="44.37546" lon="2.41006">
        <ele>601</ele>
        <time>2017-09-16T10:34:12Z</time>
      </trkpt>
      <trkpt lat="44.37544" lon="2.41003">
        <ele>601</ele>
        <time>2017-09-16T10:34:14Z</time>
      </trkpt>
      <trkpt lat="44.37535" lon="2.40949">
        <ele>602</ele>
        <time>2017-09-16T10:34:44Z</time>
      </trkpt>
      <trkpt lat="44.37531" lon="2.40913">
        <ele>603</ele>
        <time>2017-09-16T10:35:03Z</time>
      </trkpt>
      <trkpt lat="44.37528" lon="2.40903">
        <ele>603</ele>
        <time>2017-09-16T10:35:09Z</time>
      </trkpt>
      <trkpt lat="44.37528" lon="2.40899">
        <ele>603</ele>
        <time>2017-09-16T10:35:11Z</time>
      </trkpt>
      <trkpt lat="44.37529" lon="2.40889">
        <ele>603</ele>
        <time>2017-09-16T10:35:17Z</time>
      </trkpt>
      <trkpt lat="44.37529" lon="2.40886">
        <ele>603</ele>
        <time>2017-09-16T10:35:19Z</time>
      </trkpt>
      <trkpt lat="44.37528" lon="2.40882">
        <ele>603</ele>
        <time>2017-09-16T10:35:21Z</time>
      </trkpt>
      <trkpt lat="44.37528" lon="2.40878">
        <ele>603</ele>
        <time>2017-09-16T10:35:23Z</time>
      </trkpt>
      <trkpt lat="44.37531" lon="2.40871">
        <ele>603</ele>
        <time>2017-09-16T10:35:27Z</time>
      </trkpt>
      <trkpt lat="44.37536" lon="2.40848">
        <ele>603</ele>
        <time>2017-09-16T10:35:41Z</time>
      </trkpt>
      <trkpt lat="44.37537" lon="2.40845">
        <ele>603</ele>
        <time>2017-09-16T10:35:43Z</time>
      </trkpt>
      <trkpt lat="44.37552" lon="2.40795">
        <ele>607</ele>
        <time>2017-09-16T10:36:13Z</time>
      </trkpt>
      <trkpt lat="44.37555" lon="2.40788">
        <ele>607</ele>
        <time>2017-09-16T10:36:18Z</time>
      </trkpt>
      <trkpt lat="44.37556" lon="2.40785">
        <ele>607</ele>
        <time>2017-09-16T10:36:20Z</time>
      </trkpt>
      <trkpt lat="44.37554" lon="2.40786">
        <ele>607</ele>
        <time>2017-09-16T10:37:07Z</time>
      </trkpt>
      <trkpt lat="44.37552" lon="2.40786">
        <ele>607</ele>
        <time>2017-09-16T10:37:09Z</time>
      </trkpt>
      <trkpt lat="44.37549" lon="2.40806">
        <ele>606</ele>
        <time>2017-09-16T10:37:21Z</time>
      </trkpt>
      <trkpt lat="44.37543" lon="2.4082">
        <ele>606</ele>
        <time>2017-09-16T10:37:29Z</time>
      </trkpt>
      <trkpt lat="44.37539" lon="2.40834">
        <ele>603</ele>
        <time>2017-09-16T10:37:37Z</time>
      </trkpt>
      <trkpt lat="44.37529" lon="2.4086">
        <ele>603</ele>
        <time>2017-09-16T10:37:51Z</time>
      </trkpt>
      <trkpt lat="44.37528" lon="2.40867">
        <ele>603</ele>
        <time>2017-09-16T10:37:55Z</time>
      </trkpt>
      <trkpt lat="44.37526" lon="2.4087">
        <ele>603</ele>
        <time>2017-09-16T10:37:57Z</time>
      </trkpt>
      <trkpt lat="44.37524" lon="2.40872">
        <ele>603</ele>
        <time>2017-09-16T10:37:59Z</time>
      </trkpt>
      <trkpt lat="44.37522" lon="2.40872">
        <ele>603</ele>
        <time>2017-09-16T10:38:01Z</time>
      </trkpt>
      <trkpt lat="44.37519" lon="2.40871">
        <ele>603</ele>
        <time>2017-09-16T10:38:03Z</time>
      </trkpt>
      <trkpt lat="44.37517" lon="2.40861">
        <ele>603</ele>
        <time>2017-09-16T10:38:09Z</time>
      </trkpt>
      <trkpt lat="44.37513" lon="2.40851">
        <ele>603</ele>
        <time>2017-09-16T10:38:15Z</time>
      </trkpt>
      <trkpt lat="44.37512" lon="2.40848">
        <ele>603</ele>
        <time>2017-09-16T10:38:17Z</time>
      </trkpt>
      <trkpt lat="44.37503" lon="2.40827">
        <ele>605</ele>
        <time>2017-09-16T10:38:31Z</time>
      </trkpt>
      <trkpt lat="44.37502" lon="2.4082">
        <ele>605</ele>
        <time>2017-09-16T10:38:35Z</time>
      </trkpt>
      <trkpt lat="44.375" lon="2.40816">
        <ele>600</ele>
        <time>2017-09-16T10:38:38Z</time>
      </trkpt>
      <trkpt lat="44.37496" lon="2.40805">
        <ele>599</ele>
        <time>2017-09-16T10:38:44Z</time>
      </trkpt>
      <trkpt lat="44.37498" lon="2.40805">
        <ele>599</ele>
        <time>2017-09-16T10:39:49Z</time>
      </trkpt>
      <trkpt lat="44.37496" lon="2.40804">
        <ele>599</ele>
        <time>2017-09-16T10:40:07Z</time>
      </trkpt>
      <trkpt lat="44.37496" lon="2.40801">
        <ele>599</ele>
        <time>2017-09-16T10:41:07Z</time>
      </trkpt>
      <trkpt lat="44.37495" lon="2.408">
        <ele>599</ele>
        <time>2017-09-16T10:42:56Z</time>
      </trkpt>
      <trkpt lat="44.37495" lon="2.40798">
        <ele>599</ele>
        <time>2017-09-16T10:43:44Z</time>
      </trkpt>
      <trkpt lat="44.37494" lon="2.40797">
        <ele>599</ele>
        <time>2017-09-16T10:44:14Z</time>
      </trkpt>
      <trkpt lat="44.37492" lon="2.40793">
        <ele>599</ele>
        <time>2017-09-16T10:44:18Z</time>
      </trkpt>
      <trkpt lat="44.37488" lon="2.40785">
        <ele>599</ele>
        <time>2017-09-16T10:44:24Z</time>
      </trkpt>
      <trkpt lat="44.37478" lon="2.40766">
        <ele>599</ele>
        <time>2017-09-16T10:44:38Z</time>
      </trkpt>
      <trkpt lat="44.37476" lon="2.4076">
        <ele>599</ele>
        <time>2017-09-16T10:44:43Z</time>
      </trkpt>
      <trkpt lat="44.37474" lon="2.40758">
        <ele>599</ele>
        <time>2017-09-16T10:44:45Z</time>
      </trkpt>
      <trkpt lat="44.37473" lon="2.40755">
        <ele>599</ele>
        <time>2017-09-16T10:44:49Z</time>
      </trkpt>
      <trkpt lat="44.3747" lon="2.40751">
        <ele>598</ele>
        <time>2017-09-16T10:44:58Z</time>
      </trkpt>
      <trkpt lat="44.37451" lon="2.40712">
        <ele>598</ele>
        <time>2017-09-16T10:45:25Z</time>
      </trkpt>
      <trkpt lat="44.37443" lon="2.4068">
        <ele>598</ele>
        <time>2017-09-16T10:45:43Z</time>
      </trkpt>
      <trkpt lat="44.3744" lon="2.4067">
        <ele>597</ele>
        <time>2017-09-16T10:45:50Z</time>
      </trkpt>
      <trkpt lat="44.37437" lon="2.40662">
        <ele>599</ele>
        <time>2017-09-16T10:45:55Z</time>
      </trkpt>
      <trkpt lat="44.37416" lon="2.40618">
        <ele>589</ele>
        <time>2017-09-16T10:46:25Z</time>
      </trkpt>
      <trkpt lat="44.37394" lon="2.40576">
        <ele>595</ele>
        <time>2017-09-16T10:46:55Z</time>
      </trkpt>
      <trkpt lat="44.37383" lon="2.40559">
        <ele>595</ele>
        <time>2017-09-16T10:47:06Z</time>
      </trkpt>
      <trkpt lat="44.3737" lon="2.4055">
        <ele>594</ele>
        <time>2017-09-16T10:47:17Z</time>
      </trkpt>
      <trkpt lat="44.37335" lon="2.40539">
        <ele>593</ele>
        <time>2017-09-16T10:47:48Z</time>
      </trkpt>
      <trkpt lat="44.37332" lon="2.40536">
        <ele>582</ele>
        <time>2017-09-16T10:47:51Z</time>
      </trkpt>
      <trkpt lat="44.37329" lon="2.40533">
        <ele>583</ele>
        <time>2017-09-16T10:47:55Z</time>
      </trkpt>
      <trkpt lat="44.37318" lon="2.40521">
        <ele>584</ele>
        <time>2017-09-16T10:48:06Z</time>
      </trkpt>
      <trkpt lat="44.37306" lon="2.40503">
        <ele>583</ele>
        <time>2017-09-16T10:48:20Z</time>
      </trkpt>
      <trkpt lat="44.373" lon="2.40496">
        <ele>589</ele>
        <time>2017-09-16T10:48:26Z</time>
      </trkpt>
      <trkpt lat="44.37278" lon="2.40481">
        <ele>587</ele>
        <time>2017-09-16T10:48:45Z</time>
      </trkpt>
      <trkpt lat="44.37275" lon="2.40481">
        <ele>586</ele>
        <time>2017-09-16T10:48:48Z</time>
      </trkpt>
      <trkpt lat="44.37255" lon="2.40478">
        <ele>584</ele>
        <time>2017-09-16T10:49:03Z</time>
      </trkpt>
      <trkpt lat="44.37217" lon="2.40466">
        <ele>575</ele>
        <time>2017-09-16T10:49:33Z</time>
      </trkpt>
      <trkpt lat="44.37204" lon="2.40459">
        <ele>574</ele>
        <time>2017-09-16T10:49:45Z</time>
      </trkpt>
      <trkpt lat="44.37177" lon="2.40444">
        <ele>573</ele>
        <time>2017-09-16T10:50:15Z</time>
      </trkpt>
      <trkpt lat="44.37172" lon="2.40439">
        <ele>572</ele>
        <time>2017-09-16T10:50:21Z</time>
      </trkpt>
      <trkpt lat="44.37159" lon="2.40416">
        <ele>567</ele>
        <time>2017-09-16T10:50:39Z</time>
      </trkpt>
      <trkpt lat="44.3715" lon="2.40399">
        <ele>563</ele>
        <time>2017-09-16T10:50:52Z</time>
      </trkpt>
      <trkpt lat="44.37142" lon="2.40373">
        <ele>560</ele>
        <time>2017-09-16T10:51:08Z</time>
      </trkpt>
      <trkpt lat="44.3714" lon="2.40363">
        <ele>560</ele>
        <time>2017-09-16T10:51:14Z</time>
      </trkpt>
      <trkpt lat="44.37138" lon="2.40344">
        <ele>561</ele>
        <time>2017-09-16T10:51:25Z</time>
      </trkpt>
      <trkpt lat="44.37139" lon="2.40322">
        <ele>565</ele>
        <time>2017-09-16T10:51:38Z</time>
      </trkpt>
      <trkpt lat="44.37141" lon="2.4031">
        <ele>565</ele>
        <time>2017-09-16T10:51:46Z</time>
      </trkpt>
      <trkpt lat="44.37142" lon="2.40303">
        <ele>566</ele>
        <time>2017-09-16T10:51:50Z</time>
      </trkpt>
      <trkpt lat="44.37142" lon="2.40297">
        <ele>566</ele>
        <time>2017-09-16T10:51:54Z</time>
      </trkpt>
      <trkpt lat="44.37133" lon="2.4028">
        <ele>566</ele>
        <time>2017-09-16T10:52:08Z</time>
      </trkpt>
      <trkpt lat="44.37129" lon="2.40278">
        <ele>566</ele>
        <time>2017-09-16T10:52:26Z</time>
      </trkpt>
      <trkpt lat="44.3712" lon="2.40273">
        <ele>565</ele>
        <time>2017-09-16T10:52:33Z</time>
      </trkpt>
      <trkpt lat="44.37117" lon="2.40271">
        <ele>565</ele>
        <time>2017-09-16T10:52:37Z</time>
      </trkpt>
      <trkpt lat="44.37113" lon="2.40269">
        <ele>564</ele>
        <time>2017-09-16T10:52:40Z</time>
      </trkpt>
      <trkpt lat="44.3711" lon="2.40266">
        <ele>564</ele>
        <time>2017-09-16T10:52:43Z</time>
      </trkpt>
      <trkpt lat="44.37072" lon="2.40253">
        <ele>555</ele>
        <time>2017-09-16T10:53:13Z</time>
      </trkpt>
      <trkpt lat="44.3707" lon="2.40253">
        <ele>554</ele>
        <time>2017-09-16T10:53:15Z</time>
      </trkpt>
      <trkpt lat="44.37068" lon="2.40252">
        <ele>554</ele>
        <time>2017-09-16T10:53:17Z</time>
      </trkpt>
      <trkpt lat="44.37037" lon="2.40231">
        <ele>557</ele>
        <time>2017-09-16T10:53:46Z</time>
      </trkpt>
      <trkpt lat="44.37034" lon="2.40229">
        <ele>557</ele>
        <time>2017-09-16T10:53:48Z</time>
      </trkpt>
      <trkpt lat="44.37024" lon="2.40216">
        <ele>557</ele>
        <time>2017-09-16T10:53:59Z</time>
      </trkpt>
      <trkpt lat="44.36994" lon="2.40181">
        <ele>549</ele>
        <time>2017-09-16T10:54:30Z</time>
      </trkpt>
      <trkpt lat="44.36983" lon="2.40169">
        <ele>549</ele>
        <time>2017-09-16T10:54:42Z</time>
      </trkpt>
      <trkpt lat="44.36977" lon="2.40161">
        <ele>554</ele>
        <time>2017-09-16T10:54:49Z</time>
      </trkpt>
      <trkpt lat="44.36975" lon="2.40159">
        <ele>554</ele>
        <time>2017-09-16T10:54:51Z</time>
      </trkpt>
      <trkpt lat="44.36972" lon="2.40154">
        <ele>553</ele>
        <time>2017-09-16T10:54:55Z</time>
      </trkpt>
      <trkpt lat="44.36969" lon="2.40151">
        <ele>553</ele>
        <time>2017-09-16T10:54:57Z</time>
      </trkpt>
      <trkpt lat="44.36967" lon="2.4015">
        <ele>553</ele>
        <time>2017-09-16T10:54:59Z</time>
      </trkpt>
      <trkpt lat="44.3695" lon="2.40128">
        <ele>552</ele>
        <time>2017-09-16T10:55:17Z</time>
      </trkpt>
      <trkpt lat="44.36948" lon="2.40126">
        <ele>552</ele>
        <time>2017-09-16T10:55:20Z</time>
      </trkpt>
      <trkpt lat="44.36926" lon="2.40099">
        <ele>552</ele>
        <time>2017-09-16T10:55:43Z</time>
      </trkpt>
      <trkpt lat="44.36924" lon="2.40096">
        <ele>552</ele>
        <time>2017-09-16T10:55:46Z</time>
      </trkpt>
      <trkpt lat="44.36922" lon="2.40091">
        <ele>552</ele>
        <time>2017-09-16T10:55:49Z</time>
      </trkpt>
      <trkpt lat="44.36919" lon="2.40088">
        <ele>551</ele>
        <time>2017-09-16T10:55:52Z</time>
      </trkpt>
      <trkpt lat="44.36916" lon="2.40085">
        <ele>550</ele>
        <time>2017-09-16T10:55:55Z</time>
      </trkpt>
      <trkpt lat="44.3691" lon="2.4008">
        <ele>550</ele>
        <time>2017-09-16T10:56:01Z</time>
      </trkpt>
      <trkpt lat="44.36898" lon="2.40068">
        <ele>548</ele>
        <time>2017-09-16T10:56:12Z</time>
      </trkpt>
      <trkpt lat="44.36895" lon="2.40067">
        <ele>548</ele>
        <time>2017-09-16T10:56:14Z</time>
      </trkpt>
      <trkpt lat="44.36892" lon="2.40064">
        <ele>547</ele>
        <time>2017-09-16T10:56:17Z</time>
      </trkpt>
      <trkpt lat="44.36889" lon="2.40062">
        <ele>547</ele>
        <time>2017-09-16T10:56:20Z</time>
      </trkpt>
      <trkpt lat="44.36863" lon="2.40056">
        <ele>545</ele>
        <time>2017-09-16T10:56:40Z</time>
      </trkpt>
      <trkpt lat="44.36847" lon="2.40054">
        <ele>544</ele>
        <time>2017-09-16T10:56:52Z</time>
      </trkpt>
      <trkpt lat="44.36835" lon="2.40051">
        <ele>543</ele>
        <time>2017-09-16T10:57:04Z</time>
      </trkpt>
      <trkpt lat="44.36832" lon="2.40049">
        <ele>536</ele>
        <time>2017-09-16T10:57:07Z</time>
      </trkpt>
      <trkpt lat="44.36832" lon="2.40045">
        <ele>536</ele>
        <time>2017-09-16T10:57:11Z</time>
      </trkpt>
      <trkpt lat="44.36832" lon="2.4004">
        <ele>536</ele>
        <time>2017-09-16T10:57:14Z</time>
      </trkpt>
      <trkpt lat="44.36833" lon="2.40031">
        <ele>543</ele>
        <time>2017-09-16T10:57:22Z</time>
      </trkpt>
      <trkpt lat="44.36835" lon="2.40024">
        <ele>542</ele>
        <time>2017-09-16T10:57:54Z</time>
      </trkpt>
      <trkpt lat="44.36841" lon="2.40015">
        <ele>541</ele>
        <time>2017-09-16T10:58:04Z</time>
      </trkpt>
      <trkpt lat="44.36847" lon="2.39997">
        <ele>539</ele>
        <time>2017-09-16T10:58:18Z</time>
      </trkpt>
      <trkpt lat="44.36849" lon="2.39991">
        <ele>539</ele>
        <time>2017-09-16T10:58:22Z</time>
      </trkpt>
      <trkpt lat="44.36851" lon="2.39987">
        <ele>539</ele>
        <time>2017-09-16T10:58:26Z</time>
      </trkpt>
      <trkpt lat="44.36855" lon="2.39983">
        <ele>539</ele>
        <time>2017-09-16T10:58:30Z</time>
      </trkpt>
      <trkpt lat="44.36857" lon="2.39979">
        <ele>540</ele>
        <time>2017-09-16T10:58:35Z</time>
      </trkpt>
      <trkpt lat="44.36862" lon="2.39972">
        <ele>540</ele>
        <time>2017-09-16T10:58:42Z</time>
      </trkpt>
      <trkpt lat="44.36867" lon="2.39963">
        <ele>540</ele>
        <time>2017-09-16T10:58:50Z</time>
      </trkpt>
      <trkpt lat="44.36869" lon="2.39959">
        <ele>540</ele>
        <time>2017-09-16T10:58:53Z</time>
      </trkpt>
      <trkpt lat="44.36871" lon="2.39956">
        <ele>540</ele>
        <time>2017-09-16T10:58:56Z</time>
      </trkpt>
      <trkpt lat="44.36884" lon="2.39938">
        <ele>541</ele>
        <time>2017-09-16T10:59:12Z</time>
      </trkpt>
      <trkpt lat="44.36886" lon="2.39931">
        <ele>542</ele>
        <time>2017-09-16T10:59:18Z</time>
      </trkpt>
      <trkpt lat="44.36901" lon="2.39901">
        <ele>537</ele>
        <time>2017-09-16T10:59:41Z</time>
      </trkpt>
      <trkpt lat="44.36903" lon="2.39896">
        <ele>537</ele>
        <time>2017-09-16T10:59:44Z</time>
      </trkpt>
      <trkpt lat="44.36917" lon="2.39875">
        <ele>550</ele>
        <time>2017-09-16T11:00:01Z</time>
      </trkpt>
      <trkpt lat="44.36923" lon="2.39867">
        <ele>549</ele>
        <time>2017-09-16T11:00:07Z</time>
      </trkpt>
      <trkpt lat="44.3693" lon="2.39857">
        <ele>548</ele>
        <time>2017-09-16T11:00:14Z</time>
      </trkpt>
      <trkpt lat="44.36932" lon="2.39852">
        <ele>547</ele>
        <time>2017-09-16T11:00:17Z</time>
      </trkpt>
      <trkpt lat="44.36935" lon="2.39848">
        <ele>547</ele>
        <time>2017-09-16T11:00:21Z</time>
      </trkpt>
      <trkpt lat="44.36938" lon="2.39843">
        <ele>547</ele>
        <time>2017-09-16T11:00:25Z</time>
      </trkpt>
      <trkpt lat="44.36942" lon="2.39835">
        <ele>548</ele>
        <time>2017-09-16T11:00:32Z</time>
      </trkpt>
      <trkpt lat="44.3695" lon="2.39822">
        <ele>543</ele>
        <time>2017-09-16T11:00:41Z</time>
      </trkpt>
      <trkpt lat="44.36954" lon="2.39817">
        <ele>543</ele>
        <time>2017-09-16T11:00:46Z</time>
      </trkpt>
      <trkpt lat="44.36958" lon="2.39811">
        <ele>544</ele>
        <time>2017-09-16T11:00:50Z</time>
      </trkpt>
      <trkpt lat="44.36963" lon="2.39803">
        <ele>544</ele>
        <time>2017-09-16T11:00:57Z</time>
      </trkpt>
      <trkpt lat="44.3697" lon="2.39793">
        <ele>544</ele>
        <time>2017-09-16T11:01:04Z</time>
      </trkpt>
      <trkpt lat="44.36983" lon="2.3978">
        <ele>546</ele>
        <time>2017-09-16T11:01:16Z</time>
      </trkpt>
      <trkpt lat="44.36987" lon="2.39777">
        <ele>546</ele>
        <time>2017-09-16T11:01:20Z</time>
      </trkpt>
      <trkpt lat="44.36992" lon="2.39772">
        <ele>547</ele>
        <time>2017-09-16T11:01:24Z</time>
      </trkpt>
      <trkpt lat="44.37" lon="2.39758">
        <ele>556</ele>
        <time>2017-09-16T11:01:35Z</time>
      </trkpt>
      <trkpt lat="44.37002" lon="2.3975">
        <ele>554</ele>
        <time>2017-09-16T11:01:46Z</time>
      </trkpt>
      <trkpt lat="44.37" lon="2.39745">
        <ele>550</ele>
        <time>2017-09-16T11:01:58Z</time>
      </trkpt>
      <trkpt lat="44.36984" lon="2.39735">
        <ele>543</ele>
        <time>2017-09-16T11:02:20Z</time>
      </trkpt>
      <trkpt lat="44.36982" lon="2.39731">
        <ele>542</ele>
        <time>2017-09-16T11:02:23Z</time>
      </trkpt>
      <trkpt lat="44.3698" lon="2.39726">
        <ele>541</ele>
        <time>2017-09-16T11:02:30Z</time>
      </trkpt>
      <trkpt lat="44.3698" lon="2.3972">
        <ele>540</ele>
        <time>2017-09-16T11:02:36Z</time>
      </trkpt>
      <trkpt lat="44.36982" lon="2.39713">
        <ele>540</ele>
        <time>2017-09-16T11:02:42Z</time>
      </trkpt>
      <trkpt lat="44.36992" lon="2.39694">
        <ele>542</ele>
        <time>2017-09-16T11:02:58Z</time>
      </trkpt>
      <trkpt lat="44.37003" lon="2.39679">
        <ele>556</ele>
        <time>2017-09-16T11:03:12Z</time>
      </trkpt>
      <trkpt lat="44.37006" lon="2.39674">
        <ele>555</ele>
        <time>2017-09-16T11:03:15Z</time>
      </trkpt>
      <trkpt lat="44.37008" lon="2.39668">
        <ele>555</ele>
        <time>2017-09-16T11:03:19Z</time>
      </trkpt>
      <trkpt lat="44.37013" lon="2.39657">
        <ele>557</ele>
        <time>2017-09-16T11:03:26Z</time>
      </trkpt>
      <trkpt lat="44.37015" lon="2.39652">
        <ele>557</ele>
        <time>2017-09-16T11:03:29Z</time>
      </trkpt>
      <trkpt lat="44.37021" lon="2.39641">
        <ele>559</ele>
        <time>2017-09-16T11:03:37Z</time>
      </trkpt>
      <trkpt lat="44.37024" lon="2.39634">
        <ele>559</ele>
        <time>2017-09-16T11:03:41Z</time>
      </trkpt>
      <trkpt lat="44.37028" lon="2.39629">
        <ele>559</ele>
        <time>2017-09-16T11:03:45Z</time>
      </trkpt>
      <trkpt lat="44.37031" lon="2.39624">
        <ele>560</ele>
        <time>2017-09-16T11:03:49Z</time>
      </trkpt>
      <trkpt lat="44.37032" lon="2.39611">
        <ele>559</ele>
        <time>2017-09-16T11:03:59Z</time>
      </trkpt>
      <trkpt lat="44.37035" lon="2.39606">
        <ele>559</ele>
        <time>2017-09-16T11:04:03Z</time>
      </trkpt>
      <trkpt lat="44.37039" lon="2.39591">
        <ele>560</ele>
        <time>2017-09-16T11:04:13Z</time>
      </trkpt>
      <trkpt lat="44.3704" lon="2.39583">
        <ele>557</ele>
        <time>2017-09-16T11:04:18Z</time>
      </trkpt>
      <trkpt lat="44.37039" lon="2.39574">
        <ele>557</ele>
        <time>2017-09-16T11:04:23Z</time>
      </trkpt>
      <trkpt lat="44.3704" lon="2.39566">
        <ele>557</ele>
        <time>2017-09-16T11:04:32Z</time>
      </trkpt>
      <trkpt lat="44.37038" lon="2.39559">
        <ele>557</ele>
        <time>2017-09-16T11:04:44Z</time>
      </trkpt>
      <trkpt lat="44.37041" lon="2.39543">
        <ele>557</ele>
        <time>2017-09-16T11:04:56Z</time>
      </trkpt>
      <trkpt lat="44.37045" lon="2.39537">
        <ele>558</ele>
        <time>2017-09-16T11:05:04Z</time>
      </trkpt>
      <trkpt lat="44.37047" lon="2.39533">
        <ele>558</ele>
        <time>2017-09-16T11:05:17Z</time>
      </trkpt>
      <trkpt lat="44.37045" lon="2.39526">
        <ele>558</ele>
        <time>2017-09-16T11:05:24Z</time>
      </trkpt>
      <trkpt lat="44.37046" lon="2.39521">
        <ele>558</ele>
        <time>2017-09-16T11:05:29Z</time>
      </trkpt>
      <trkpt lat="44.37044" lon="2.39516">
        <ele>557</ele>
        <time>2017-09-16T11:05:33Z</time>
      </trkpt>
      <trkpt lat="44.37039" lon="2.39514">
        <ele>556</ele>
        <time>2017-09-16T11:14:01Z</time>
      </trkpt>
      <trkpt lat="44.37035" lon="2.39516">
        <ele>556</ele>
        <time>2017-09-16T11:05:59Z</time>
      </trkpt>
      <trkpt lat="44.37033" lon="2.39512">
        <ele>555</ele>
        <time>2017-09-16T11:06:44Z</time>
      </trkpt>
      <trkpt lat="44.37034" lon="2.39507">
        <ele>555</ele>
        <time>2017-09-16T11:06:47Z</time>
      </trkpt>
      <trkpt lat="44.37034" lon="2.39502">
        <ele>555</ele>
        <time>2017-09-16T11:06:50Z</time>
      </trkpt>
      <trkpt lat="44.37034" lon="2.39497">
        <ele>554</ele>
        <time>2017-09-16T11:06:53Z</time>
      </trkpt>
      <trkpt lat="44.37034" lon="2.39486">
        <ele>554</ele>
        <time>2017-09-16T11:07:00Z</time>
      </trkpt>
      <trkpt lat="44.37034" lon="2.3948">
        <ele>554</ele>
        <time>2017-09-16T11:07:06Z</time>
      </trkpt>
      <trkpt lat="44.37035" lon="2.39478">
        <ele>555</ele>
        <time>2017-09-16T11:11:07Z</time>
      </trkpt>
      <trkpt lat="44.37033" lon="2.39476">
        <ele>554</ele>
        <time>2017-09-16T11:11:33Z</time>
      </trkpt>
      <trkpt lat="44.37033" lon="2.39479">
        <ele>554</ele>
        <time>2017-09-16T11:13:05Z</time>
      </trkpt>
      <trkpt lat="44.37033" lon="2.39486">
        <ele>554</ele>
        <time>2017-09-16T11:13:42Z</time>
      </trkpt>
      <trkpt lat="44.37034" lon="2.39492">
        <ele>554</ele>
        <time>2017-09-16T11:13:46Z</time>
      </trkpt>
      <trkpt lat="44.37038" lon="2.39506">
        <ele>556</ele>
        <time>2017-09-16T11:13:55Z</time>
      </trkpt>
      <trkpt lat="44.37039" lon="2.39514">
        <ele>556</ele>
        <time>2017-09-16T11:14:01Z</time>
      </trkpt>
      <trkpt lat="44.37043" lon="2.39516">
        <ele>557</ele>
        <time>2017-09-16T11:14:12Z</time>
      </trkpt>
      <trkpt lat="44.37043" lon="2.3951">
        <ele>557</ele>
        <time>2017-09-16T11:14:33Z</time>
      </trkpt>
      <trkpt lat="44.37042" lon="2.39506">
        <ele>557</ele>
        <time>2017-09-16T11:14:55Z</time>
      </trkpt>
      <trkpt lat="44.37039" lon="2.3951">
        <ele>556</ele>
        <time>2017-09-16T11:15:47Z</time>
      </trkpt>
      <trkpt lat="44.37039" lon="2.39517">
        <ele>556</ele>
        <time>2017-09-16T11:16:03Z</time>
      </trkpt>
      <trkpt lat="44.37038" lon="2.39521">
        <ele>556</ele>
        <time>2017-09-16T11:16:53Z</time>
      </trkpt>
      <trkpt lat="44.37033" lon="2.39521">
        <ele>555</ele>
        <time>2017-09-16T11:18:40Z</time>
      </trkpt>
      <trkpt lat="44.37033" lon="2.39517">
        <ele>555</ele>
        <time>2017-09-16T11:20:44Z</time>
      </trkpt>
      <trkpt lat="44.37042" lon="2.39513">
        <ele>557</ele>
        <time>2017-09-16T12:19:18Z</time>
      </trkpt>
      <trkpt lat="44.37042" lon="2.39513">
        <ele>557</ele>
        <time>2017-09-16T12:19:18Z</time>
      </trkpt>
      <trkpt lat="44.37041" lon="2.39508">
        <ele>557</ele>
        <time>2017-09-16T12:19:26Z</time>
      </trkpt>
      <trkpt lat="44.3704" lon="2.39506">
        <ele>556</ele>
        <time>2017-09-16T12:20:25Z</time>
      </trkpt>
      <trkpt lat="44.37039" lon="2.39509">
        <ele>556</ele>
        <time>2017-09-16T12:21:37Z</time>
      </trkpt>
      <trkpt lat="44.37039" lon="2.39513">
        <ele>556</ele>
        <time>2017-09-16T12:21:44Z</time>
      </trkpt>
      <trkpt lat="44.37041" lon="2.39529">
        <ele>557</ele>
        <time>2017-09-16T12:21:57Z</time>
      </trkpt>
      <trkpt lat="44.37043" lon="2.39536">
        <ele>557</ele>
        <time>2017-09-16T12:22:02Z</time>
      </trkpt>
      <trkpt lat="44.37042" lon="2.39542">
        <ele>557</ele>
        <time>2017-09-16T12:22:06Z</time>
      </trkpt>
      <trkpt lat="44.37039" lon="2.39555">
        <ele>557</ele>
        <time>2017-09-16T12:22:14Z</time>
      </trkpt>
      <trkpt lat="44.37038" lon="2.39549">
        <ele>557</ele>
        <time>2017-09-16T12:22:29Z</time>
      </trkpt>
      <trkpt lat="44.37036" lon="2.39537">
        <ele>556</ele>
        <time>2017-09-16T12:22:38Z</time>
      </trkpt>
      <trkpt lat="44.37035" lon="2.39532">
        <ele>556</ele>
        <time>2017-09-16T12:22:41Z</time>
      </trkpt>
      <trkpt lat="44.37033" lon="2.39529">
        <ele>556</ele>
        <time>2017-09-16T12:22:43Z</time>
      </trkpt>
      <trkpt lat="44.37029" lon="2.39519">
        <ele>555</ele>
        <time>2017-09-16T12:22:49Z</time>
      </trkpt>
      <trkpt lat="44.37027" lon="2.39512">
        <ele>554</ele>
        <time>2017-09-16T12:22:55Z</time>
      </trkpt>
      <trkpt lat="44.37022" lon="2.39497">
        <ele>551</ele>
        <time>2017-09-16T12:23:05Z</time>
      </trkpt>
      <trkpt lat="44.3702" lon="2.39492">
        <ele>551</ele>
        <time>2017-09-16T12:23:10Z</time>
      </trkpt>
      <trkpt lat="44.37017" lon="2.3949">
        <ele>551</ele>
        <time>2017-09-16T12:24:07Z</time>
      </trkpt>
      <trkpt lat="44.37016" lon="2.39485">
        <ele>551</ele>
        <time>2017-09-16T12:24:09Z</time>
      </trkpt>
      <trkpt lat="44.37009" lon="2.3947">
        <ele>552</ele>
        <time>2017-09-16T12:24:22Z</time>
      </trkpt>
      <trkpt lat="44.37005" lon="2.39462">
        <ele>552</ele>
        <time>2017-09-16T12:24:27Z</time>
      </trkpt>
      <trkpt lat="44.36998" lon="2.39447">
        <ele>537</ele>
        <time>2017-09-16T12:24:38Z</time>
      </trkpt>
      <trkpt lat="44.36994" lon="2.39441">
        <ele>537</ele>
        <time>2017-09-16T12:24:42Z</time>
      </trkpt>
      <trkpt lat="44.36991" lon="2.39435">
        <ele>538</ele>
        <time>2017-09-16T12:24:47Z</time>
      </trkpt>
      <trkpt lat="44.36988" lon="2.3943">
        <ele>538</ele>
        <time>2017-09-16T12:24:50Z</time>
      </trkpt>
      <trkpt lat="44.36985" lon="2.39423">
        <ele>539</ele>
        <time>2017-09-16T12:24:53Z</time>
      </trkpt>
      <trkpt lat="44.36982" lon="2.39418">
        <ele>538</ele>
        <time>2017-09-16T12:24:56Z</time>
      </trkpt>
      <trkpt lat="44.36976" lon="2.39405">
        <ele>538</ele>
        <time>2017-09-16T12:25:04Z</time>
      </trkpt>
      <trkpt lat="44.36971" lon="2.39393">
        <ele>536</ele>
        <time>2017-09-16T12:25:12Z</time>
      </trkpt>
      <trkpt lat="44.36968" lon="2.39389">
        <ele>536</ele>
        <time>2017-09-16T12:25:14Z</time>
      </trkpt>
      <trkpt lat="44.36962" lon="2.39378">
        <ele>535</ele>
        <time>2017-09-16T12:25:20Z</time>
      </trkpt>
      <trkpt lat="44.3696" lon="2.39371">
        <ele>535</ele>
        <time>2017-09-16T12:25:24Z</time>
      </trkpt>
      <trkpt lat="44.36955" lon="2.39358">
        <ele>534</ele>
        <time>2017-09-16T12:25:33Z</time>
      </trkpt>
      <trkpt lat="44.36951" lon="2.39349">
        <ele>534</ele>
        <time>2017-09-16T12:25:38Z</time>
      </trkpt>
      <trkpt lat="44.36949" lon="2.39341">
        <ele>534</ele>
        <time>2017-09-16T12:25:44Z</time>
      </trkpt>
      <trkpt lat="44.3695" lon="2.39314">
        <ele>531</ele>
        <time>2017-09-16T12:25:59Z</time>
      </trkpt>
      <trkpt lat="44.36951" lon="2.39309">
        <ele>530</ele>
        <time>2017-09-16T12:26:02Z</time>
      </trkpt>
      <trkpt lat="44.36952" lon="2.39304">
        <ele>530</ele>
        <time>2017-09-16T12:26:06Z</time>
      </trkpt>
      <trkpt lat="44.36953" lon="2.39298">
        <ele>530</ele>
        <time>2017-09-16T12:26:10Z</time>
      </trkpt>
      <trkpt lat="44.36953" lon="2.39292">
        <ele>529</ele>
        <time>2017-09-16T12:26:13Z</time>
      </trkpt>
      <trkpt lat="44.36957" lon="2.39272">
        <ele>528</ele>
        <time>2017-09-16T12:26:25Z</time>
      </trkpt>
      <trkpt lat="44.3696" lon="2.39267">
        <ele>528</ele>
        <time>2017-09-16T12:26:28Z</time>
      </trkpt>
      <trkpt lat="44.36962" lon="2.39263">
        <ele>528</ele>
        <time>2017-09-16T12:26:32Z</time>
      </trkpt>
      <trkpt lat="44.36963" lon="2.39258">
        <ele>527</ele>
        <time>2017-09-16T12:26:35Z</time>
      </trkpt>
      <trkpt lat="44.36961" lon="2.39249">
        <ele>517</ele>
        <time>2017-09-16T12:26:40Z</time>
      </trkpt>
      <trkpt lat="44.36959" lon="2.39244">
        <ele>517</ele>
        <time>2017-09-16T12:26:46Z</time>
      </trkpt>
      <trkpt lat="44.36957" lon="2.39236">
        <ele>516</ele>
        <time>2017-09-16T12:26:54Z</time>
      </trkpt>
      <trkpt lat="44.36955" lon="2.39229">
        <ele>515</ele>
        <time>2017-09-16T12:26:59Z</time>
      </trkpt>
      <trkpt lat="44.36952" lon="2.39223">
        <ele>515</ele>
        <time>2017-09-16T12:27:04Z</time>
      </trkpt>
      <trkpt lat="44.36943" lon="2.39217">
        <ele>515</ele>
        <time>2017-09-16T12:27:13Z</time>
      </trkpt>
      <trkpt lat="44.36932" lon="2.39218">
        <ele>516</ele>
        <time>2017-09-16T12:27:26Z</time>
      </trkpt>
      <trkpt lat="44.36929" lon="2.39218">
        <ele>516</ele>
        <time>2017-09-16T12:27:29Z</time>
      </trkpt>
      <trkpt lat="44.36922" lon="2.39218">
        <ele>516</ele>
        <time>2017-09-16T12:27:36Z</time>
      </trkpt>
      <trkpt lat="44.36919" lon="2.3922">
        <ele>516</ele>
        <time>2017-09-16T12:27:41Z</time>
      </trkpt>
      <trkpt lat="44.36916" lon="2.39221">
        <ele>513</ele>
        <time>2017-09-16T12:27:45Z</time>
      </trkpt>
      <trkpt lat="44.36913" lon="2.39222">
        <ele>513</ele>
        <time>2017-09-16T12:27:48Z</time>
      </trkpt>
      <trkpt lat="44.3691" lon="2.39221">
        <ele>513</ele>
        <time>2017-09-16T12:27:52Z</time>
      </trkpt>
      <trkpt lat="44.36906" lon="2.3922">
        <ele>512</ele>
        <time>2017-09-16T12:27:56Z</time>
      </trkpt>
      <trkpt lat="44.36907" lon="2.39216">
        <ele>511</ele>
        <time>2017-09-16T12:28:08Z</time>
      </trkpt>
      <trkpt lat="44.36907" lon="2.39211">
        <ele>511</ele>
        <time>2017-09-16T12:28:12Z</time>
      </trkpt>
      <trkpt lat="44.36907" lon="2.39206">
        <ele>510</ele>
        <time>2017-09-16T12:28:18Z</time>
      </trkpt>
      <trkpt lat="44.36905" lon="2.392">
        <ele>509</ele>
        <time>2017-09-16T12:28:23Z</time>
      </trkpt>
      <trkpt lat="44.36904" lon="2.39197">
        <ele>509</ele>
        <time>2017-09-16T12:28:25Z</time>
      </trkpt>
      <trkpt lat="44.36902" lon="2.39195">
        <ele>509</ele>
        <time>2017-09-16T12:28:30Z</time>
      </trkpt>
      <trkpt lat="44.36896" lon="2.39194">
        <ele>508</ele>
        <time>2017-09-16T12:28:34Z</time>
      </trkpt>
      <trkpt lat="44.3689" lon="2.39194">
        <ele>507</ele>
        <time>2017-09-16T12:28:38Z</time>
      </trkpt>
      <trkpt lat="44.36882" lon="2.392">
        <ele>507</ele>
        <time>2017-09-16T12:28:45Z</time>
      </trkpt>
      <trkpt lat="44.36879" lon="2.39202">
        <ele>507</ele>
        <time>2017-09-16T12:28:47Z</time>
      </trkpt>
      <trkpt lat="44.3687" lon="2.3921">
        <ele>506</ele>
        <time>2017-09-16T12:28:55Z</time>
      </trkpt>
      <trkpt lat="44.36863" lon="2.39218">
        <ele>506</ele>
        <time>2017-09-16T12:29:03Z</time>
      </trkpt>
      <trkpt lat="44.36854" lon="2.39248">
        <ele>504</ele>
        <time>2017-09-16T12:29:23Z</time>
      </trkpt>
      <trkpt lat="44.36851" lon="2.39278">
        <ele>509</ele>
        <time>2017-09-16T12:29:40Z</time>
      </trkpt>
      <trkpt lat="44.36851" lon="2.39288">
        <ele>509</ele>
        <time>2017-09-16T12:29:46Z</time>
      </trkpt>
      <trkpt lat="44.36853" lon="2.39298">
        <ele>509</ele>
        <time>2017-09-16T12:29:53Z</time>
      </trkpt>
      <trkpt lat="44.36854" lon="2.39304">
        <ele>509</ele>
        <time>2017-09-16T12:29:57Z</time>
      </trkpt>
      <trkpt lat="44.36854" lon="2.39311">
        <ele>509</ele>
        <time>2017-09-16T12:30:02Z</time>
      </trkpt>
      <trkpt lat="44.36852" lon="2.39316">
        <ele>508</ele>
        <time>2017-09-16T12:30:06Z</time>
      </trkpt>
      <trkpt lat="44.36851" lon="2.39324">
        <ele>507</ele>
        <time>2017-09-16T12:30:10Z</time>
      </trkpt>
      <trkpt lat="44.36847" lon="2.39331">
        <ele>505</ele>
        <time>2017-09-16T12:30:16Z</time>
      </trkpt>
      <trkpt lat="44.36845" lon="2.39329">
        <ele>504</ele>
        <time>2017-09-16T12:30:29Z</time>
      </trkpt>
      <trkpt lat="44.36843" lon="2.39325">
        <ele>504</ele>
        <time>2017-09-16T12:30:33Z</time>
      </trkpt>
      <trkpt lat="44.36833" lon="2.39297">
        <ele>489</ele>
        <time>2017-09-16T12:30:57Z</time>
      </trkpt>
      <trkpt lat="44.36832" lon="2.39292">
        <ele>489</ele>
        <time>2017-09-16T12:31:00Z</time>
      </trkpt>
      <trkpt lat="44.36832" lon="2.39288">
        <ele>489</ele>
        <time>2017-09-16T12:31:03Z</time>
      </trkpt>
      <trkpt lat="44.3683" lon="2.39284">
        <ele>489</ele>
        <time>2017-09-16T12:31:07Z</time>
      </trkpt>
      <trkpt lat="44.36829" lon="2.3928">
        <ele>489</ele>
        <time>2017-09-16T12:31:10Z</time>
      </trkpt>
      <trkpt lat="44.36827" lon="2.39276">
        <ele>490</ele>
        <time>2017-09-16T12:31:13Z</time>
      </trkpt>
      <trkpt lat="44.36824" lon="2.39267">
        <ele>491</ele>
        <time>2017-09-16T12:31:19Z</time>
      </trkpt>
      <trkpt lat="44.36823" lon="2.39263">
        <ele>491</ele>
        <time>2017-09-16T12:31:21Z</time>
      </trkpt>
      <trkpt lat="44.36822" lon="2.39258">
        <ele>492</ele>
        <time>2017-09-16T12:31:25Z</time>
      </trkpt>
      <trkpt lat="44.36822" lon="2.39257">
        <ele>492</ele>
        <time>2017-09-16T12:35:05Z</time>
      </trkpt>
      <trkpt lat="44.36822" lon="2.39253">
        <ele>493</ele>
        <time>2017-09-16T12:35:15Z</time>
      </trkpt>
      <trkpt lat="44.36822" lon="2.39249">
        <ele>492</ele>
        <time>2017-09-16T12:35:21Z</time>
      </trkpt>
      <trkpt lat="44.36819" lon="2.39247">
        <ele>491</ele>
        <time>2017-09-16T12:35:23Z</time>
      </trkpt>
      <trkpt lat="44.36816" lon="2.39245">
        <ele>489</ele>
        <time>2017-09-16T12:35:26Z</time>
      </trkpt>
      <trkpt lat="44.36809" lon="2.39246">
        <ele>487</ele>
        <time>2017-09-16T12:35:30Z</time>
      </trkpt>
      <trkpt lat="44.36804" lon="2.39252">
        <ele>487</ele>
        <time>2017-09-16T12:35:36Z</time>
      </trkpt>
      <trkpt lat="44.36802" lon="2.39256">
        <ele>487</ele>
        <time>2017-09-16T12:35:39Z</time>
      </trkpt>
      <trkpt lat="44.36797" lon="2.39264">
        <ele>485</ele>
        <time>2017-09-16T12:35:45Z</time>
      </trkpt>
      <trkpt lat="44.36795" lon="2.39269">
        <ele>484</ele>
        <time>2017-09-16T12:35:48Z</time>
      </trkpt>
      <trkpt lat="44.36794" lon="2.39277">
        <ele>484</ele>
        <time>2017-09-16T12:35:54Z</time>
      </trkpt>
      <trkpt lat="44.36793" lon="2.39285">
        <ele>484</ele>
        <time>2017-09-16T12:36:00Z</time>
      </trkpt>
      <trkpt lat="44.36794" lon="2.39288">
        <ele>484</ele>
        <time>2017-09-16T12:36:05Z</time>
      </trkpt>
      <trkpt lat="44.36795" lon="2.39303">
        <ele>484</ele>
        <time>2017-09-16T12:36:14Z</time>
      </trkpt>
      <trkpt lat="44.36796" lon="2.39311">
        <ele>484</ele>
        <time>2017-09-16T12:36:19Z</time>
      </trkpt>
      <trkpt lat="44.36797" lon="2.39316">
        <ele>484</ele>
        <time>2017-09-16T12:36:22Z</time>
      </trkpt>
      <trkpt lat="44.36797" lon="2.3932">
        <ele>484</ele>
        <time>2017-09-16T12:36:25Z</time>
      </trkpt>
      <trkpt lat="44.36795" lon="2.39328">
        <ele>484</ele>
        <time>2017-09-16T12:36:34Z</time>
      </trkpt>
      <trkpt lat="44.36795" lon="2.39333">
        <ele>484</ele>
        <time>2017-09-16T12:36:37Z</time>
      </trkpt>
      <trkpt lat="44.36796" lon="2.39348">
        <ele>479</ele>
        <time>2017-09-16T12:36:47Z</time>
      </trkpt>
      <trkpt lat="44.36796" lon="2.39354">
        <ele>478</ele>
        <time>2017-09-16T12:36:50Z</time>
      </trkpt>
      <trkpt lat="44.36795" lon="2.39359">
        <ele>478</ele>
        <time>2017-09-16T12:36:53Z</time>
      </trkpt>
      <trkpt lat="44.36795" lon="2.39364">
        <ele>477</ele>
        <time>2017-09-16T12:36:56Z</time>
      </trkpt>
      <trkpt lat="44.36796" lon="2.39368">
        <ele>477</ele>
        <time>2017-09-16T12:36:59Z</time>
      </trkpt>
      <trkpt lat="44.36796" lon="2.39373">
        <ele>477</ele>
        <time>2017-09-16T12:37:03Z</time>
      </trkpt>
      <trkpt lat="44.36799" lon="2.39392">
        <ele>476</ele>
        <time>2017-09-16T12:37:18Z</time>
      </trkpt>
      <trkpt lat="44.368" lon="2.39403">
        <ele>476</ele>
        <time>2017-09-16T12:37:25Z</time>
      </trkpt>
      <trkpt lat="44.36799" lon="2.39409">
        <ele>476</ele>
        <time>2017-09-16T12:37:29Z</time>
      </trkpt>
      <trkpt lat="44.36798" lon="2.39414">
        <ele>475</ele>
        <time>2017-09-16T12:37:32Z</time>
      </trkpt>
      <trkpt lat="44.36796" lon="2.39418">
        <ele>467</ele>
        <time>2017-09-16T12:37:35Z</time>
      </trkpt>
      <trkpt lat="44.36792" lon="2.39418">
        <ele>466</ele>
        <time>2017-09-16T12:37:38Z</time>
      </trkpt>
      <trkpt lat="44.36778" lon="2.39408">
        <ele>470</ele>
        <time>2017-09-16T12:37:53Z</time>
      </trkpt>
      <trkpt lat="44.36773" lon="2.39401">
        <ele>469</ele>
        <time>2017-09-16T12:38:01Z</time>
      </trkpt>
      <trkpt lat="44.36771" lon="2.39397">
        <ele>469</ele>
        <time>2017-09-16T12:38:05Z</time>
      </trkpt>
      <trkpt lat="44.36769" lon="2.3939">
        <ele>470</ele>
        <time>2017-09-16T12:38:11Z</time>
      </trkpt>
      <trkpt lat="44.36758" lon="2.39371">
        <ele>471</ele>
        <time>2017-09-16T12:38:31Z</time>
      </trkpt>
      <trkpt lat="44.36756" lon="2.39368">
        <ele>471</ele>
        <time>2017-09-16T12:38:33Z</time>
      </trkpt>
      <trkpt lat="44.3675" lon="2.39357">
        <ele>457</ele>
        <time>2017-09-16T12:38:43Z</time>
      </trkpt>
      <trkpt lat="44.36747" lon="2.39355">
        <ele>458</ele>
        <time>2017-09-16T12:38:45Z</time>
      </trkpt>
      <trkpt lat="44.36744" lon="2.39355">
        <ele>457</ele>
        <time>2017-09-16T12:38:48Z</time>
      </trkpt>
      <trkpt lat="44.36742" lon="2.39356">
        <ele>457</ele>
        <time>2017-09-16T12:38:56Z</time>
      </trkpt>
      <trkpt lat="44.36743" lon="2.39367">
        <ele>455</ele>
        <time>2017-09-16T12:39:08Z</time>
      </trkpt>
      <trkpt lat="44.36744" lon="2.39373">
        <ele>455</ele>
        <time>2017-09-16T12:39:12Z</time>
      </trkpt>
      <trkpt lat="44.3674" lon="2.39374">
        <ele>454</ele>
        <time>2017-09-16T12:39:23Z</time>
      </trkpt>
      <trkpt lat="44.36738" lon="2.3937">
        <ele>455</ele>
        <time>2017-09-16T12:39:28Z</time>
      </trkpt>
      <trkpt lat="44.36737" lon="2.39365">
        <ele>455</ele>
        <time>2017-09-16T12:39:33Z</time>
      </trkpt>
      <trkpt lat="44.36735" lon="2.3936">
        <ele>456</ele>
        <time>2017-09-16T12:39:38Z</time>
      </trkpt>
      <trkpt lat="44.36733" lon="2.39357">
        <ele>456</ele>
        <time>2017-09-16T12:39:41Z</time>
      </trkpt>
      <trkpt lat="44.36717" lon="2.39343">
        <ele>454</ele>
        <time>2017-09-16T12:39:58Z</time>
      </trkpt>
      <trkpt lat="44.36713" lon="2.39341">
        <ele>454</ele>
        <time>2017-09-16T12:40:02Z</time>
      </trkpt>
      <trkpt lat="44.36692" lon="2.39326">
        <ele>452</ele>
        <time>2017-09-16T12:40:22Z</time>
      </trkpt>
      <trkpt lat="44.3669" lon="2.39322">
        <ele>452</ele>
        <time>2017-09-16T12:40:26Z</time>
      </trkpt>
      <trkpt lat="44.36687" lon="2.39319">
        <ele>452</ele>
        <time>2017-09-16T12:40:29Z</time>
      </trkpt>
      <trkpt lat="44.36683" lon="2.39314">
        <ele>452</ele>
        <time>2017-09-16T12:40:33Z</time>
      </trkpt>
      <trkpt lat="44.36682" lon="2.39309">
        <ele>452</ele>
        <time>2017-09-16T12:40:36Z</time>
      </trkpt>
      <trkpt lat="44.3668" lon="2.39304">
        <ele>452</ele>
        <time>2017-09-16T12:40:40Z</time>
      </trkpt>
      <trkpt lat="44.36677" lon="2.39296">
        <ele>452</ele>
        <time>2017-09-16T12:40:45Z</time>
      </trkpt>
      <trkpt lat="44.36675" lon="2.3929">
        <ele>452</ele>
        <time>2017-09-16T12:40:48Z</time>
      </trkpt>
      <trkpt lat="44.36673" lon="2.39281">
        <ele>452</ele>
        <time>2017-09-16T12:40:53Z</time>
      </trkpt>
      <trkpt lat="44.36672" lon="2.39276">
        <ele>452</ele>
        <time>2017-09-16T12:40:56Z</time>
      </trkpt>
      <trkpt lat="44.36671" lon="2.39271">
        <ele>451</ele>
        <time>2017-09-16T12:40:59Z</time>
      </trkpt>
      <trkpt lat="44.36668" lon="2.39253">
        <ele>446</ele>
        <time>2017-09-16T12:41:08Z</time>
      </trkpt>
      <trkpt lat="44.36667" lon="2.3925">
        <ele>445</ele>
        <time>2017-09-16T12:41:10Z</time>
      </trkpt>
      <trkpt lat="44.36667" lon="2.39246">
        <ele>446</ele>
        <time>2017-09-16T12:41:13Z</time>
      </trkpt>
      <trkpt lat="44.36667" lon="2.39241">
        <ele>447</ele>
        <time>2017-09-16T12:41:16Z</time>
      </trkpt>
      <trkpt lat="44.36667" lon="2.39236">
        <ele>443</ele>
        <time>2017-09-16T12:41:19Z</time>
      </trkpt>
      <trkpt lat="44.36668" lon="2.39231">
        <ele>449</ele>
        <time>2017-09-16T12:41:24Z</time>
      </trkpt>
      <trkpt lat="44.36668" lon="2.39228">
        <ele>449</ele>
        <time>2017-09-16T12:41:27Z</time>
      </trkpt>
      <trkpt lat="44.36666" lon="2.39225">
        <ele>442</ele>
        <time>2017-09-16T12:41:31Z</time>
      </trkpt>
      <trkpt lat="44.36663" lon="2.39228">
        <ele>442</ele>
        <time>2017-09-16T12:41:37Z</time>
      </trkpt>
      <trkpt lat="44.36659" lon="2.39236">
        <ele>443</ele>
        <time>2017-09-16T12:41:43Z</time>
      </trkpt>
      <trkpt lat="44.36657" lon="2.39239">
        <ele>443</ele>
        <time>2017-09-16T12:41:45Z</time>
      </trkpt>
      <trkpt lat="44.36655" lon="2.3924">
        <ele>443</ele>
        <time>2017-09-16T12:41:47Z</time>
      </trkpt>
      <trkpt lat="44.36652" lon="2.39238">
        <ele>442</ele>
        <time>2017-09-16T12:41:50Z</time>
      </trkpt>
      <trkpt lat="44.36652" lon="2.39236">
        <ele>442</ele>
        <time>2017-09-16T12:41:52Z</time>
      </trkpt>
      <trkpt lat="44.36651" lon="2.39233">
        <ele>442</ele>
        <time>2017-09-16T12:41:58Z</time>
      </trkpt>
      <trkpt lat="44.36652" lon="2.39229">
        <ele>442</ele>
        <time>2017-09-16T12:42:01Z</time>
      </trkpt>
      <trkpt lat="44.36653" lon="2.39224">
        <ele>441</ele>
        <time>2017-09-16T12:42:06Z</time>
      </trkpt>
      <trkpt lat="44.36654" lon="2.3922">
        <ele>441</ele>
        <time>2017-09-16T12:42:09Z</time>
      </trkpt>
      <trkpt lat="44.36655" lon="2.39213">
        <ele>441</ele>
        <time>2017-09-16T12:42:15Z</time>
      </trkpt>
      <trkpt lat="44.36655" lon="2.3921">
        <ele>440</ele>
        <time>2017-09-16T12:42:17Z</time>
      </trkpt>
      <trkpt lat="44.36655" lon="2.39205">
        <ele>440</ele>
        <time>2017-09-16T12:42:21Z</time>
      </trkpt>
      <trkpt lat="44.36653" lon="2.39185">
        <ele>439</ele>
        <time>2017-09-16T12:42:35Z</time>
      </trkpt>
      <trkpt lat="44.36653" lon="2.39181">
        <ele>439</ele>
        <time>2017-09-16T12:42:37Z</time>
      </trkpt>
      <trkpt lat="44.36658" lon="2.39173">
        <ele>439</ele>
        <time>2017-09-16T12:42:44Z</time>
      </trkpt>
      <trkpt lat="44.36662" lon="2.39169">
        <ele>438</ele>
        <time>2017-09-16T12:42:49Z</time>
      </trkpt>
      <trkpt lat="44.36668" lon="2.39156">
        <ele>441</ele>
        <time>2017-09-16T12:42:59Z</time>
      </trkpt>
      <trkpt lat="44.3667" lon="2.39146">
        <ele>443</ele>
        <time>2017-09-16T12:43:05Z</time>
      </trkpt>
      <trkpt lat="44.3667" lon="2.39144">
        <ele>444</ele>
        <time>2017-09-16T12:43:08Z</time>
      </trkpt>
      <trkpt lat="44.36666" lon="2.39135">
        <ele>439</ele>
        <time>2017-09-16T12:43:14Z</time>
      </trkpt>
      <trkpt lat="44.36663" lon="2.39132">
        <ele>439</ele>
        <time>2017-09-16T12:43:17Z</time>
      </trkpt>
      <trkpt lat="44.36632" lon="2.39099">
        <ele>439</ele>
        <time>2017-09-16T12:43:49Z</time>
      </trkpt>
      <trkpt lat="44.3663" lon="2.39096">
        <ele>439</ele>
        <time>2017-09-16T12:43:51Z</time>
      </trkpt>
      <trkpt lat="44.36628" lon="2.39094">
        <ele>439</ele>
        <time>2017-09-16T12:43:53Z</time>
      </trkpt>
      <trkpt lat="44.36618" lon="2.39085">
        <ele>438</ele>
        <time>2017-09-16T12:44:03Z</time>
      </trkpt>
      <trkpt lat="44.36615" lon="2.39078">
        <ele>443</ele>
        <time>2017-09-16T12:44:08Z</time>
      </trkpt>
      <trkpt lat="44.36613" lon="2.39073">
        <ele>443</ele>
        <time>2017-09-16T12:44:11Z</time>
      </trkpt>
      <trkpt lat="44.36611" lon="2.39071">
        <ele>442</ele>
        <time>2017-09-16T12:44:14Z</time>
      </trkpt>
      <trkpt lat="44.36605" lon="2.39057">
        <ele>443</ele>
        <time>2017-09-16T12:44:23Z</time>
      </trkpt>
      <trkpt lat="44.36604" lon="2.39053">
        <ele>443</ele>
        <time>2017-09-16T12:44:25Z</time>
      </trkpt>
      <trkpt lat="44.36601" lon="2.3904">
        <ele>444</ele>
        <time>2017-09-16T12:44:33Z</time>
      </trkpt>
      <trkpt lat="44.36599" lon="2.39037">
        <ele>444</ele>
        <time>2017-09-16T12:44:35Z</time>
      </trkpt>
      <trkpt lat="44.36598" lon="2.39033">
        <ele>444</ele>
        <time>2017-09-16T12:44:41Z</time>
      </trkpt>
      <trkpt lat="44.36597" lon="2.3903">
        <ele>444</ele>
        <time>2017-09-16T12:44:44Z</time>
      </trkpt>
      <trkpt lat="44.36596" lon="2.39026">
        <ele>444</ele>
        <time>2017-09-16T12:44:47Z</time>
      </trkpt>
      <trkpt lat="44.36595" lon="2.39021">
        <ele>443</ele>
        <time>2017-09-16T12:44:50Z</time>
      </trkpt>
      <trkpt lat="44.36594" lon="2.39017">
        <ele>443</ele>
        <time>2017-09-16T12:44:53Z</time>
      </trkpt>
      <trkpt lat="44.36593" lon="2.39014">
        <ele>443</ele>
        <time>2017-09-16T12:44:55Z</time>
      </trkpt>
      <trkpt lat="44.36591" lon="2.39002">
        <ele>442</ele>
        <time>2017-09-16T12:45:01Z</time>
      </trkpt>
      <trkpt lat="44.36588" lon="2.38981">
        <ele>449</ele>
        <time>2017-09-16T12:45:14Z</time>
      </trkpt>
      <trkpt lat="44.36582" lon="2.38957">
        <ele>440</ele>
        <time>2017-09-16T12:45:28Z</time>
      </trkpt>
      <trkpt lat="44.36581" lon="2.38953">
        <ele>441</ele>
        <time>2017-09-16T12:45:31Z</time>
      </trkpt>
      <trkpt lat="44.36576" lon="2.3893">
        <ele>443</ele>
        <time>2017-09-16T12:45:46Z</time>
      </trkpt>
      <trkpt lat="44.36571" lon="2.3892">
        <ele>443</ele>
        <time>2017-09-16T12:45:52Z</time>
      </trkpt>
      <trkpt lat="44.36563" lon="2.38896">
        <ele>443</ele>
        <time>2017-09-16T12:46:07Z</time>
      </trkpt>
      <trkpt lat="44.36563" lon="2.38892">
        <ele>443</ele>
        <time>2017-09-16T12:46:09Z</time>
      </trkpt>
      <trkpt lat="44.36559" lon="2.38883">
        <ele>443</ele>
        <time>2017-09-16T12:46:16Z</time>
      </trkpt>
      <trkpt lat="44.36558" lon="2.38873">
        <ele>443</ele>
        <time>2017-09-16T12:46:23Z</time>
      </trkpt>
      <trkpt lat="44.36557" lon="2.38867">
        <ele>443</ele>
        <time>2017-09-16T12:46:26Z</time>
      </trkpt>
      <trkpt lat="44.36551" lon="2.38856">
        <ele>442</ele>
        <time>2017-09-16T12:46:33Z</time>
      </trkpt>
      <trkpt lat="44.36548" lon="2.38846">
        <ele>442</ele>
        <time>2017-09-16T12:46:39Z</time>
      </trkpt>
      <trkpt lat="44.36547" lon="2.38839">
        <ele>442</ele>
        <time>2017-09-16T12:46:44Z</time>
      </trkpt>
      <trkpt lat="44.36548" lon="2.38829">
        <ele>443</ele>
        <time>2017-09-16T12:46:50Z</time>
      </trkpt>
      <trkpt lat="44.36549" lon="2.38823">
        <ele>443</ele>
        <time>2017-09-16T12:46:54Z</time>
      </trkpt>
      <trkpt lat="44.36547" lon="2.38799">
        <ele>442</ele>
        <time>2017-09-16T12:47:09Z</time>
      </trkpt>
      <trkpt lat="44.36546" lon="2.38794">
        <ele>442</ele>
        <time>2017-09-16T12:47:11Z</time>
      </trkpt>
      <trkpt lat="44.36544" lon="2.38787">
        <ele>442</ele>
        <time>2017-09-16T12:47:15Z</time>
      </trkpt>
      <trkpt lat="44.36543" lon="2.38781">
        <ele>442</ele>
        <time>2017-09-16T12:47:19Z</time>
      </trkpt>
      <trkpt lat="44.36541" lon="2.38774">
        <ele>442</ele>
        <time>2017-09-16T12:47:23Z</time>
      </trkpt>
      <trkpt lat="44.3654" lon="2.3877">
        <ele>442</ele>
        <time>2017-09-16T12:47:25Z</time>
      </trkpt>
      <trkpt lat="44.36539" lon="2.38755">
        <ele>441</ele>
        <time>2017-09-16T12:47:35Z</time>
      </trkpt>
      <trkpt lat="44.36539" lon="2.38751">
        <ele>441</ele>
        <time>2017-09-16T12:47:38Z</time>
      </trkpt>
      <trkpt lat="44.36537" lon="2.38738">
        <ele>440</ele>
        <time>2017-09-16T12:47:46Z</time>
      </trkpt>
      <trkpt lat="44.36535" lon="2.38733">
        <ele>440</ele>
        <time>2017-09-16T12:47:49Z</time>
      </trkpt>
      <trkpt lat="44.36522" lon="2.38685">
        <ele>438</ele>
        <time>2017-09-16T12:48:19Z</time>
      </trkpt>
      <trkpt lat="44.36519" lon="2.38674">
        <ele>437</ele>
        <time>2017-09-16T12:48:26Z</time>
      </trkpt>
      <trkpt lat="44.36517" lon="2.38661">
        <ele>435</ele>
        <time>2017-09-16T12:48:35Z</time>
      </trkpt>
      <trkpt lat="44.36515" lon="2.38646">
        <ele>435</ele>
        <time>2017-09-16T12:48:44Z</time>
      </trkpt>
      <trkpt lat="44.36527" lon="2.38594">
        <ele>435</ele>
        <time>2017-09-16T12:49:15Z</time>
      </trkpt>
      <trkpt lat="44.36533" lon="2.38582">
        <ele>433</ele>
        <time>2017-09-16T12:49:24Z</time>
      </trkpt>
      <trkpt lat="44.36537" lon="2.38573">
        <ele>434</ele>
        <time>2017-09-16T12:49:33Z</time>
      </trkpt>
      <trkpt lat="44.3656" lon="2.38544">
        <ele>434</ele>
        <time>2017-09-16T12:49:56Z</time>
      </trkpt>
      <trkpt lat="44.36568" lon="2.38527">
        <ele>434</ele>
        <time>2017-09-16T12:50:08Z</time>
      </trkpt>
      <trkpt lat="44.36572" lon="2.38513">
        <ele>434</ele>
        <time>2017-09-16T12:50:16Z</time>
      </trkpt>
      <trkpt lat="44.36574" lon="2.38511">
        <ele>434</ele>
        <time>2017-09-16T12:50:18Z</time>
      </trkpt>
      <trkpt lat="44.36576" lon="2.38503">
        <ele>434</ele>
        <time>2017-09-16T12:50:23Z</time>
      </trkpt>
      <trkpt lat="44.36578" lon="2.38501">
        <ele>434</ele>
        <time>2017-09-16T12:50:25Z</time>
      </trkpt>
      <trkpt lat="44.36586" lon="2.38481">
        <ele>435</ele>
        <time>2017-09-16T12:50:39Z</time>
      </trkpt>
      <trkpt lat="44.36604" lon="2.38449">
        <ele>434</ele>
        <time>2017-09-16T12:51:02Z</time>
      </trkpt>
      <trkpt lat="44.3662" lon="2.38419">
        <ele>434</ele>
        <time>2017-09-16T12:51:22Z</time>
      </trkpt>
      <trkpt lat="44.36622" lon="2.38417">
        <ele>434</ele>
        <time>2017-09-16T12:51:24Z</time>
      </trkpt>
      <trkpt lat="44.36634" lon="2.38396">
        <ele>432</ele>
        <time>2017-09-16T12:51:39Z</time>
      </trkpt>
      <trkpt lat="44.36642" lon="2.38386">
        <ele>432</ele>
        <time>2017-09-16T12:51:48Z</time>
      </trkpt>
      <trkpt lat="44.36648" lon="2.38376">
        <ele>432</ele>
        <time>2017-09-16T12:51:56Z</time>
      </trkpt>
      <trkpt lat="44.36668" lon="2.38361">
        <ele>434</ele>
        <time>2017-09-16T12:52:13Z</time>
      </trkpt>
      <trkpt lat="44.36697" lon="2.38349">
        <ele>434</ele>
        <time>2017-09-16T12:52:37Z</time>
      </trkpt>
      <trkpt lat="44.36708" lon="2.38341">
        <ele>434</ele>
        <time>2017-09-16T12:52:47Z</time>
      </trkpt>
      <trkpt lat="44.3671" lon="2.3834">
        <ele>434</ele>
        <time>2017-09-16T12:52:48Z</time>
      </trkpt>
      <trkpt lat="44.36748" lon="2.38314">
        <ele>433</ele>
        <time>2017-09-16T12:53:18Z</time>
      </trkpt>
      <trkpt lat="44.36785" lon="2.38293">
        <ele>435</ele>
        <time>2017-09-16T12:53:48Z</time>
      </trkpt>
      <trkpt lat="44.36818" lon="2.38267">
        <ele>434</ele>
        <time>2017-09-16T12:54:18Z</time>
      </trkpt>
      <trkpt lat="44.36827" lon="2.38254">
        <ele>434</ele>
        <time>2017-09-16T12:54:27Z</time>
      </trkpt>
      <trkpt lat="44.36828" lon="2.38251">
        <ele>433</ele>
        <time>2017-09-16T12:54:29Z</time>
      </trkpt>
      <trkpt lat="44.36839" lon="2.38245">
        <ele>434</ele>
        <time>2017-09-16T12:54:38Z</time>
      </trkpt>
      <trkpt lat="44.36875" lon="2.38239">
        <ele>436</ele>
        <time>2017-09-16T12:55:09Z</time>
      </trkpt>
      <trkpt lat="44.36878" lon="2.38236">
        <ele>436</ele>
        <time>2017-09-16T12:55:13Z</time>
      </trkpt>
      <trkpt lat="44.36884" lon="2.38234">
        <ele>437</ele>
        <time>2017-09-16T12:55:19Z</time>
      </trkpt>
      <trkpt lat="44.36887" lon="2.38231">
        <ele>437</ele>
        <time>2017-09-16T12:55:22Z</time>
      </trkpt>
      <trkpt lat="44.36894" lon="2.38229">
        <ele>437</ele>
        <time>2017-09-16T12:55:29Z</time>
      </trkpt>
      <trkpt lat="44.36902" lon="2.38228">
        <ele>438</ele>
        <time>2017-09-16T12:55:37Z</time>
      </trkpt>
      <trkpt lat="44.36904" lon="2.38226">
        <ele>438</ele>
        <time>2017-09-16T12:56:29Z</time>
      </trkpt>
      <trkpt lat="44.36942" lon="2.38206">
        <ele>443</ele>
        <time>2017-09-16T12:56:59Z</time>
      </trkpt>
      <trkpt lat="44.36949" lon="2.38202">
        <ele>443</ele>
        <time>2017-09-16T12:57:05Z</time>
      </trkpt>
      <trkpt lat="44.36962" lon="2.38193">
        <ele>443</ele>
        <time>2017-09-16T12:57:15Z</time>
      </trkpt>
      <trkpt lat="44.3698" lon="2.38187">
        <ele>443</ele>
        <time>2017-09-16T12:57:30Z</time>
      </trkpt>
      <trkpt lat="44.36989" lon="2.38182">
        <ele>443</ele>
        <time>2017-09-16T12:57:37Z</time>
      </trkpt>
      <trkpt lat="44.37007" lon="2.38176">
        <ele>448</ele>
        <time>2017-09-16T12:57:52Z</time>
      </trkpt>
      <trkpt lat="44.3701" lon="2.38171">
        <ele>448</ele>
        <time>2017-09-16T12:57:55Z</time>
      </trkpt>
      <trkpt lat="44.37034" lon="2.38153">
        <ele>447</ele>
        <time>2017-09-16T12:58:18Z</time>
      </trkpt>
      <trkpt lat="44.37043" lon="2.3814">
        <ele>447</ele>
        <time>2017-09-16T12:58:27Z</time>
      </trkpt>
      <trkpt lat="44.37064" lon="2.3812">
        <ele>448</ele>
        <time>2017-09-16T12:58:46Z</time>
      </trkpt>
      <trkpt lat="44.37079" lon="2.3811">
        <ele>449</ele>
        <time>2017-09-16T12:58:58Z</time>
      </trkpt>
      <trkpt lat="44.3708" lon="2.38106">
        <ele>449</ele>
        <time>2017-09-16T12:59:10Z</time>
      </trkpt>
      <trkpt lat="44.37101" lon="2.38097">
        <ele>462</ele>
        <time>2017-09-16T12:59:38Z</time>
      </trkpt>
      <trkpt lat="44.37112" lon="2.38085">
        <ele>465</ele>
        <time>2017-09-16T12:59:51Z</time>
      </trkpt>
      <trkpt lat="44.37121" lon="2.38068">
        <ele>463</ele>
        <time>2017-09-16T13:00:04Z</time>
      </trkpt>
      <trkpt lat="44.37128" lon="2.38046">
        <ele>464</ele>
        <time>2017-09-16T13:00:19Z</time>
      </trkpt>
      <trkpt lat="44.3713" lon="2.38039">
        <ele>465</ele>
        <time>2017-09-16T13:00:23Z</time>
      </trkpt>
      <trkpt lat="44.37149" lon="2.37999">
        <ele>467</ele>
        <time>2017-09-16T13:00:49Z</time>
      </trkpt>
      <trkpt lat="44.37151" lon="2.37985">
        <ele>467</ele>
        <time>2017-09-16T13:00:58Z</time>
      </trkpt>
      <trkpt lat="44.37156" lon="2.37972">
        <ele>465</ele>
        <time>2017-09-16T13:01:06Z</time>
      </trkpt>
      <trkpt lat="44.37156" lon="2.37967">
        <ele>464</ele>
        <time>2017-09-16T13:01:09Z</time>
      </trkpt>
      <trkpt lat="44.37157" lon="2.37961">
        <ele>464</ele>
        <time>2017-09-16T13:01:37Z</time>
      </trkpt>
      <trkpt lat="44.37155" lon="2.37936">
        <ele>464</ele>
        <time>2017-09-16T13:01:51Z</time>
      </trkpt>
      <trkpt lat="44.37157" lon="2.37898">
        <ele>463</ele>
        <time>2017-09-16T13:02:09Z</time>
      </trkpt>
      <trkpt lat="44.37158" lon="2.37892">
        <ele>462</ele>
        <time>2017-09-16T13:02:12Z</time>
      </trkpt>
      <trkpt lat="44.3716" lon="2.37876">
        <ele>461</ele>
        <time>2017-09-16T13:02:20Z</time>
      </trkpt>
      <trkpt lat="44.37162" lon="2.3787">
        <ele>461</ele>
        <time>2017-09-16T13:02:23Z</time>
      </trkpt>
      <trkpt lat="44.37162" lon="2.37866">
        <ele>462</ele>
        <time>2017-09-16T13:02:26Z</time>
      </trkpt>
      <trkpt lat="44.37162" lon="2.3786">
        <ele>462</ele>
        <time>2017-09-16T13:02:30Z</time>
      </trkpt>
      <trkpt lat="44.37163" lon="2.37854">
        <ele>464</ele>
        <time>2017-09-16T13:02:34Z</time>
      </trkpt>
      <trkpt lat="44.3716" lon="2.37831">
        <ele>468</ele>
        <time>2017-09-16T13:02:46Z</time>
      </trkpt>
      <trkpt lat="44.37149" lon="2.37788">
        <ele>460</ele>
        <time>2017-09-16T13:03:09Z</time>
      </trkpt>
      <trkpt lat="44.3715" lon="2.37773">
        <ele>461</ele>
        <time>2017-09-16T13:03:16Z</time>
      </trkpt>
      <trkpt lat="44.37151" lon="2.37767">
        <ele>462</ele>
        <time>2017-09-16T13:03:19Z</time>
      </trkpt>
      <trkpt lat="44.3716" lon="2.3775">
        <ele>468</ele>
        <time>2017-09-16T13:03:29Z</time>
      </trkpt>
      <trkpt lat="44.37172" lon="2.37728">
        <ele>481</ele>
        <time>2017-09-16T13:03:45Z</time>
      </trkpt>
      <trkpt lat="44.37174" lon="2.37709">
        <ele>484</ele>
        <time>2017-09-16T13:03:55Z</time>
      </trkpt>
      <trkpt lat="44.37169" lon="2.377">
        <ele>484</ele>
        <time>2017-09-16T13:04:01Z</time>
      </trkpt>
      <trkpt lat="44.37162" lon="2.37694">
        <ele>466</ele>
        <time>2017-09-16T13:04:07Z</time>
      </trkpt>
      <trkpt lat="44.3716" lon="2.37688">
        <ele>467</ele>
        <time>2017-09-16T13:04:12Z</time>
      </trkpt>
      <trkpt lat="44.37156" lon="2.37675">
        <ele>469</ele>
        <time>2017-09-16T13:04:21Z</time>
      </trkpt>
      <trkpt lat="44.37158" lon="2.3765">
        <ele>471</ele>
        <time>2017-09-16T13:04:33Z</time>
      </trkpt>
      <trkpt lat="44.37159" lon="2.37644">
        <ele>470</ele>
        <time>2017-09-16T13:04:36Z</time>
      </trkpt>
      <trkpt lat="44.37164" lon="2.37622">
        <ele>471</ele>
        <time>2017-09-16T13:04:47Z</time>
      </trkpt>
      <trkpt lat="44.37163" lon="2.37608">
        <ele>473</ele>
        <time>2017-09-16T13:04:53Z</time>
      </trkpt>
      <trkpt lat="44.3716" lon="2.376">
        <ele>474</ele>
        <time>2017-09-16T13:04:57Z</time>
      </trkpt>
      <trkpt lat="44.37157" lon="2.37585">
        <ele>478</ele>
        <time>2017-09-16T13:05:06Z</time>
      </trkpt>
      <trkpt lat="44.37152" lon="2.37567">
        <ele>478</ele>
        <time>2017-09-16T13:05:14Z</time>
      </trkpt>
      <trkpt lat="44.37151" lon="2.37561">
        <ele>477</ele>
        <time>2017-09-16T13:05:18Z</time>
      </trkpt>
      <trkpt lat="44.37156" lon="2.37513">
        <ele>483</ele>
        <time>2017-09-16T13:05:48Z</time>
      </trkpt>
      <trkpt lat="44.37156" lon="2.37507">
        <ele>485</ele>
        <time>2017-09-16T13:05:51Z</time>
      </trkpt>
      <trkpt lat="44.37148" lon="2.37473">
        <ele>486</ele>
        <time>2017-09-16T13:06:09Z</time>
      </trkpt>
      <trkpt lat="44.37145" lon="2.37453">
        <ele>487</ele>
        <time>2017-09-16T13:06:20Z</time>
      </trkpt>
      <trkpt lat="44.37146" lon="2.37447">
        <ele>487</ele>
        <time>2017-09-16T13:06:24Z</time>
      </trkpt>
      <trkpt lat="44.37145" lon="2.3744">
        <ele>488</ele>
        <time>2017-09-16T13:06:28Z</time>
      </trkpt>
      <trkpt lat="44.3714" lon="2.37427">
        <ele>489</ele>
        <time>2017-09-16T13:06:35Z</time>
      </trkpt>
      <trkpt lat="44.37129" lon="2.37406">
        <ele>489</ele>
        <time>2017-09-16T13:06:48Z</time>
      </trkpt>
      <trkpt lat="44.37124" lon="2.37393">
        <ele>488</ele>
        <time>2017-09-16T13:06:56Z</time>
      </trkpt>
      <trkpt lat="44.37123" lon="2.37383">
        <ele>488</ele>
        <time>2017-09-16T13:07:02Z</time>
      </trkpt>
      <trkpt lat="44.37123" lon="2.37377">
        <ele>488</ele>
        <time>2017-09-16T13:07:05Z</time>
      </trkpt>
      <trkpt lat="44.37123" lon="2.37367">
        <ele>488</ele>
        <time>2017-09-16T13:07:11Z</time>
      </trkpt>
      <trkpt lat="44.37127" lon="2.37358">
        <ele>488</ele>
        <time>2017-09-16T13:07:17Z</time>
      </trkpt>
      <trkpt lat="44.37139" lon="2.37342">
        <ele>491</ele>
        <time>2017-09-16T13:07:28Z</time>
      </trkpt>
      <trkpt lat="44.37148" lon="2.37335">
        <ele>494</ele>
        <time>2017-09-16T13:07:36Z</time>
      </trkpt>
      <trkpt lat="44.37155" lon="2.3733">
        <ele>494</ele>
        <time>2017-09-16T13:07:42Z</time>
      </trkpt>
      <trkpt lat="44.37162" lon="2.37326">
        <ele>496</ele>
        <time>2017-09-16T13:07:48Z</time>
      </trkpt>
      <trkpt lat="44.37175" lon="2.37315">
        <ele>505</ele>
        <time>2017-09-16T13:07:59Z</time>
      </trkpt>
      <trkpt lat="44.37179" lon="2.37309">
        <ele>506</ele>
        <time>2017-09-16T13:08:03Z</time>
      </trkpt>
      <trkpt lat="44.37182" lon="2.37304">
        <ele>507</ele>
        <time>2017-09-16T13:08:11Z</time>
      </trkpt>
      <trkpt lat="44.37188" lon="2.37292">
        <ele>507</ele>
        <time>2017-09-16T13:08:25Z</time>
      </trkpt>
      <trkpt lat="44.37191" lon="2.37282">
        <ele>507</ele>
        <time>2017-09-16T13:08:36Z</time>
      </trkpt>
      <trkpt lat="44.37192" lon="2.37278">
        <ele>507</ele>
        <time>2017-09-16T13:08:39Z</time>
      </trkpt>
      <trkpt lat="44.37192" lon="2.37247">
        <ele>500</ele>
        <time>2017-09-16T13:08:57Z</time>
      </trkpt>
      <trkpt lat="44.37193" lon="2.37242">
        <ele>501</ele>
        <time>2017-09-16T13:09:00Z</time>
      </trkpt>
      <trkpt lat="44.37195" lon="2.37232">
        <ele>501</ele>
        <time>2017-09-16T13:09:13Z</time>
      </trkpt>
      <trkpt lat="44.37196" lon="2.37228">
        <ele>501</ele>
        <time>2017-09-16T13:09:15Z</time>
      </trkpt>
      <trkpt lat="44.37206" lon="2.37211">
        <ele>503</ele>
        <time>2017-09-16T13:09:26Z</time>
      </trkpt>
      <trkpt lat="44.37208" lon="2.37208">
        <ele>503</ele>
        <time>2017-09-16T13:09:28Z</time>
      </trkpt>
      <trkpt lat="44.37217" lon="2.37186">
        <ele>504</ele>
        <time>2017-09-16T13:09:40Z</time>
      </trkpt>
      <trkpt lat="44.37232" lon="2.37162">
        <ele>505</ele>
        <time>2017-09-16T13:09:57Z</time>
      </trkpt>
      <trkpt lat="44.37234" lon="2.37158">
        <ele>505</ele>
        <time>2017-09-16T13:10:00Z</time>
      </trkpt>
      <trkpt lat="44.37236" lon="2.37153">
        <ele>504</ele>
        <time>2017-09-16T13:10:03Z</time>
      </trkpt>
      <trkpt lat="44.3724" lon="2.37138">
        <ele>502</ele>
        <time>2017-09-16T13:10:14Z</time>
      </trkpt>
      <trkpt lat="44.3724" lon="2.37132">
        <ele>502</ele>
        <time>2017-09-16T13:10:17Z</time>
      </trkpt>
      <trkpt lat="44.37241" lon="2.37127">
        <ele>501</ele>
        <time>2017-09-16T13:10:20Z</time>
      </trkpt>
      <trkpt lat="44.37247" lon="2.37117">
        <ele>501</ele>
        <time>2017-09-16T13:10:27Z</time>
      </trkpt>
      <trkpt lat="44.37249" lon="2.3711">
        <ele>502</ele>
        <time>2017-09-16T13:10:31Z</time>
      </trkpt>
      <trkpt lat="44.37255" lon="2.37099">
        <ele>515</ele>
        <time>2017-09-16T13:10:43Z</time>
      </trkpt>
      <trkpt lat="44.3726" lon="2.37095">
        <ele>515</ele>
        <time>2017-09-16T13:10:47Z</time>
      </trkpt>
      <trkpt lat="44.37269" lon="2.37085">
        <ele>516</ele>
        <time>2017-09-16T13:10:56Z</time>
      </trkpt>
      <trkpt lat="44.37308" lon="2.37051">
        <ele>517</ele>
        <time>2017-09-16T13:11:28Z</time>
      </trkpt>
      <trkpt lat="44.37332" lon="2.37029">
        <ele>518</ele>
        <time>2017-09-16T13:11:49Z</time>
      </trkpt>
      <trkpt lat="44.37358" lon="2.37">
        <ele>528</ele>
        <time>2017-09-16T13:12:13Z</time>
      </trkpt>
      <trkpt lat="44.37361" lon="2.36991">
        <ele>529</ele>
        <time>2017-09-16T13:12:18Z</time>
      </trkpt>
      <trkpt lat="44.37367" lon="2.36971">
        <ele>530</ele>
        <time>2017-09-16T13:12:29Z</time>
      </trkpt>
      <trkpt lat="44.37369" lon="2.36966">
        <ele>531</ele>
        <time>2017-09-16T13:12:32Z</time>
      </trkpt>
      <trkpt lat="44.37373" lon="2.36965">
        <ele>531</ele>
        <time>2017-09-16T13:12:37Z</time>
      </trkpt>
      <trkpt lat="44.37363" lon="2.37009">
        <ele>536</ele>
        <time>2017-09-16T13:13:07Z</time>
      </trkpt>
      <trkpt lat="44.37352" lon="2.37025">
        <ele>535</ele>
        <time>2017-09-16T13:13:18Z</time>
      </trkpt>
      <trkpt lat="44.3735" lon="2.3703">
        <ele>536</ele>
        <time>2017-09-16T13:13:23Z</time>
      </trkpt>
      <trkpt lat="44.37349" lon="2.37034">
        <ele>536</ele>
        <time>2017-09-16T13:13:26Z</time>
      </trkpt>
      <trkpt lat="44.37346" lon="2.37038">
        <ele>536</ele>
        <time>2017-09-16T13:13:36Z</time>
      </trkpt>
      <trkpt lat="44.37342" lon="2.37046">
        <ele>537</ele>
        <time>2017-09-16T13:13:41Z</time>
      </trkpt>
      <trkpt lat="44.37324" lon="2.37091">
        <ele>529</ele>
        <time>2017-09-16T13:14:05Z</time>
      </trkpt>
      <trkpt lat="44.37322" lon="2.37101">
        <ele>528</ele>
        <time>2017-09-16T13:14:10Z</time>
      </trkpt>
      <trkpt lat="44.37323" lon="2.37119">
        <ele>527</ele>
        <time>2017-09-16T13:14:20Z</time>
      </trkpt>
      <trkpt lat="44.37325" lon="2.37128">
        <ele>528</ele>
        <time>2017-09-16T13:14:25Z</time>
      </trkpt>
      <trkpt lat="44.37327" lon="2.37135">
        <ele>528</ele>
        <time>2017-09-16T13:14:29Z</time>
      </trkpt>
      <trkpt lat="44.37332" lon="2.37159">
        <ele>534</ele>
        <time>2017-09-16T13:14:42Z</time>
      </trkpt>
      <trkpt lat="44.3734" lon="2.37183">
        <ele>547</ele>
        <time>2017-09-16T13:14:56Z</time>
      </trkpt>
      <trkpt lat="44.3734" lon="2.37189">
        <ele>549</ele>
        <time>2017-09-16T13:14:59Z</time>
      </trkpt>
      <trkpt lat="44.37336" lon="2.37203">
        <ele>551</ele>
        <time>2017-09-16T13:15:06Z</time>
      </trkpt>
      <trkpt lat="44.37333" lon="2.37207">
        <ele>551</ele>
        <time>2017-09-16T13:15:09Z</time>
      </trkpt>
      <trkpt lat="44.3733" lon="2.37219">
        <ele>535</ele>
        <time>2017-09-16T13:15:15Z</time>
      </trkpt>
      <trkpt lat="44.37325" lon="2.37253">
        <ele>543</ele>
        <time>2017-09-16T13:15:32Z</time>
      </trkpt>
      <trkpt lat="44.37325" lon="2.37259">
        <ele>542</ele>
        <time>2017-09-16T13:15:35Z</time>
      </trkpt>
      <trkpt lat="44.37316" lon="2.3729">
        <ele>540</ele>
        <time>2017-09-16T13:15:52Z</time>
      </trkpt>
      <trkpt lat="44.37304" lon="2.37323">
        <ele>540</ele>
        <time>2017-09-16T13:16:10Z</time>
      </trkpt>
      <trkpt lat="44.37302" lon="2.37333">
        <ele>540</ele>
        <time>2017-09-16T13:16:16Z</time>
      </trkpt>
      <trkpt lat="44.37304" lon="2.37336">
        <ele>543</ele>
        <time>2017-09-16T13:16:28Z</time>
      </trkpt>
      <trkpt lat="44.37309" lon="2.37335">
        <ele>545</ele>
        <time>2017-09-16T13:16:32Z</time>
      </trkpt>
      <trkpt lat="44.37317" lon="2.37329">
        <ele>545</ele>
        <time>2017-09-16T13:16:40Z</time>
      </trkpt>
      <trkpt lat="44.37337" lon="2.37318">
        <ele>557</ele>
        <time>2017-09-16T13:17:00Z</time>
      </trkpt>
      <trkpt lat="44.37342" lon="2.37315">
        <ele>558</ele>
        <time>2017-09-16T13:17:04Z</time>
      </trkpt>
      <trkpt lat="44.37347" lon="2.37307">
        <ele>559</ele>
        <time>2017-09-16T13:17:11Z</time>
      </trkpt>
      <trkpt lat="44.37349" lon="2.37304">
        <ele>559</ele>
        <time>2017-09-16T13:17:14Z</time>
      </trkpt>
      <trkpt lat="44.37352" lon="2.37302">
        <ele>560</ele>
        <time>2017-09-16T13:17:17Z</time>
      </trkpt>
      <trkpt lat="44.37355" lon="2.37299">
        <ele>560</ele>
        <time>2017-09-16T13:17:20Z</time>
      </trkpt>
      <trkpt lat="44.37359" lon="2.37295">
        <ele>561</ele>
        <time>2017-09-16T13:17:24Z</time>
      </trkpt>
      <trkpt lat="44.37361" lon="2.37289">
        <ele>561</ele>
        <time>2017-09-16T13:17:28Z</time>
      </trkpt>
      <trkpt lat="44.37368" lon="2.3728">
        <ele>561</ele>
        <time>2017-09-16T13:17:37Z</time>
      </trkpt>
      <trkpt lat="44.37393" lon="2.37255">
        <ele>566</ele>
        <time>2017-09-16T13:18:05Z</time>
      </trkpt>
      <trkpt lat="44.37414" lon="2.37237">
        <ele>567</ele>
        <time>2017-09-16T13:18:26Z</time>
      </trkpt>
      <trkpt lat="44.37417" lon="2.37236">
        <ele>577</ele>
        <time>2017-09-16T13:18:29Z</time>
      </trkpt>
      <trkpt lat="44.37419" lon="2.3723">
        <ele>579</ele>
        <time>2017-09-16T13:18:33Z</time>
      </trkpt>
      <trkpt lat="44.3742" lon="2.37225">
        <ele>579</ele>
        <time>2017-09-16T13:18:35Z</time>
      </trkpt>
      <trkpt lat="44.37425" lon="2.37204">
        <ele>580</ele>
        <time>2017-09-16T13:18:48Z</time>
      </trkpt>
      <trkpt lat="44.37427" lon="2.3719">
        <ele>579</ele>
        <time>2017-09-16T13:18:57Z</time>
      </trkpt>
      <trkpt lat="44.37436" lon="2.37167">
        <ele>579</ele>
        <time>2017-09-16T13:19:10Z</time>
      </trkpt>
      <trkpt lat="44.37438" lon="2.37161">
        <ele>578</ele>
        <time>2017-09-16T13:19:15Z</time>
      </trkpt>
      <trkpt lat="44.37443" lon="2.37151">
        <ele>579</ele>
        <time>2017-09-16T13:19:24Z</time>
      </trkpt>
      <trkpt lat="44.3745" lon="2.37141">
        <ele>580</ele>
        <time>2017-09-16T13:19:35Z</time>
      </trkpt>
      <trkpt lat="44.37457" lon="2.37131">
        <ele>581</ele>
        <time>2017-09-16T13:19:44Z</time>
      </trkpt>
      <trkpt lat="44.3746" lon="2.37127">
        <ele>582</ele>
        <time>2017-09-16T13:19:48Z</time>
      </trkpt>
      <trkpt lat="44.37477" lon="2.37111">
        <ele>584</ele>
        <time>2017-09-16T13:20:05Z</time>
      </trkpt>
      <trkpt lat="44.37489" lon="2.371">
        <ele>587</ele>
        <time>2017-09-16T13:20:16Z</time>
      </trkpt>
      <trkpt lat="44.37495" lon="2.37091">
        <ele>590</ele>
        <time>2017-09-16T13:20:24Z</time>
      </trkpt>
      <trkpt lat="44.37499" lon="2.37085">
        <ele>593</ele>
        <time>2017-09-16T13:20:29Z</time>
      </trkpt>
      <trkpt lat="44.37521" lon="2.37051">
        <ele>596</ele>
        <time>2017-09-16T13:20:54Z</time>
      </trkpt>
      <trkpt lat="44.37525" lon="2.37047">
        <ele>596</ele>
        <time>2017-09-16T13:20:58Z</time>
      </trkpt>
      <trkpt lat="44.37528" lon="2.37043">
        <ele>596</ele>
        <time>2017-09-16T13:21:02Z</time>
      </trkpt>
      <trkpt lat="44.37536" lon="2.37029">
        <ele>596</ele>
        <time>2017-09-16T13:21:16Z</time>
      </trkpt>
      <trkpt lat="44.37538" lon="2.37025">
        <ele>596</ele>
        <time>2017-09-16T13:21:28Z</time>
      </trkpt>
      <trkpt lat="44.37541" lon="2.3702">
        <ele>596</ele>
        <time>2017-09-16T13:21:35Z</time>
      </trkpt>
      <trkpt lat="44.37548" lon="2.37012">
        <ele>597</ele>
        <time>2017-09-16T13:21:43Z</time>
      </trkpt>
      <trkpt lat="44.3755" lon="2.37007">
        <ele>597</ele>
        <time>2017-09-16T13:21:47Z</time>
      </trkpt>
      <trkpt lat="44.37559" lon="2.36991">
        <ele>594</ele>
        <time>2017-09-16T13:21:58Z</time>
      </trkpt>
      <trkpt lat="44.37578" lon="2.3697">
        <ele>594</ele>
        <time>2017-09-16T13:22:15Z</time>
      </trkpt>
      <trkpt lat="44.37581" lon="2.36968">
        <ele>594</ele>
        <time>2017-09-16T13:22:18Z</time>
      </trkpt>
      <trkpt lat="44.37584" lon="2.36965">
        <ele>603</ele>
        <time>2017-09-16T13:22:21Z</time>
      </trkpt>
      <trkpt lat="44.37587" lon="2.36963">
        <ele>603</ele>
        <time>2017-09-16T13:22:23Z</time>
      </trkpt>
      <trkpt lat="44.37615" lon="2.36961">
        <ele>603</ele>
        <time>2017-09-16T13:22:48Z</time>
      </trkpt>
      <trkpt lat="44.3764" lon="2.36966">
        <ele>605</ele>
        <time>2017-09-16T13:23:09Z</time>
      </trkpt>
      <trkpt lat="44.37645" lon="2.36963">
        <ele>605</ele>
        <time>2017-09-16T13:23:13Z</time>
      </trkpt>
      <trkpt lat="44.37649" lon="2.36962">
        <ele>605</ele>
        <time>2017-09-16T13:23:16Z</time>
      </trkpt>
      <trkpt lat="44.3766" lon="2.36962">
        <ele>605</ele>
        <time>2017-09-16T13:23:24Z</time>
      </trkpt>
      <trkpt lat="44.37665" lon="2.3696">
        <ele>605</ele>
        <time>2017-09-16T13:23:28Z</time>
      </trkpt>
      <trkpt lat="44.3767" lon="2.3696">
        <ele>608</ele>
        <time>2017-09-16T13:23:41Z</time>
      </trkpt>
      <trkpt lat="44.37681" lon="2.36959">
        <ele>608</ele>
        <time>2017-09-16T13:24:05Z</time>
      </trkpt>
      <trkpt lat="44.37686" lon="2.36959">
        <ele>609</ele>
        <time>2017-09-16T13:24:09Z</time>
      </trkpt>
      <trkpt lat="44.37692" lon="2.36961">
        <ele>609</ele>
        <time>2017-09-16T13:24:13Z</time>
      </trkpt>
      <trkpt lat="44.37709" lon="2.36965">
        <ele>609</ele>
        <time>2017-09-16T13:24:30Z</time>
      </trkpt>
      <trkpt lat="44.37724" lon="2.36973">
        <ele>610</ele>
        <time>2017-09-16T13:24:39Z</time>
      </trkpt>
      <trkpt lat="44.37733" lon="2.36977">
        <ele>611</ele>
        <time>2017-09-16T13:24:45Z</time>
      </trkpt>
      <trkpt lat="44.37737" lon="2.36977">
        <ele>611</ele>
        <time>2017-09-16T13:24:48Z</time>
      </trkpt>
      <trkpt lat="44.37742" lon="2.36979">
        <ele>611</ele>
        <time>2017-09-16T13:24:52Z</time>
      </trkpt>
      <trkpt lat="44.37755" lon="2.36981">
        <ele>614</ele>
        <time>2017-09-16T13:25:02Z</time>
      </trkpt>
      <trkpt lat="44.37771" lon="2.3698">
        <ele>614</ele>
        <time>2017-09-16T13:25:12Z</time>
      </trkpt>
      <trkpt lat="44.37774" lon="2.36981">
        <ele>614</ele>
        <time>2017-09-16T13:25:14Z</time>
      </trkpt>
      <trkpt lat="44.37776" lon="2.36981">
        <ele>614</ele>
        <time>2017-09-16T13:25:16Z</time>
      </trkpt>
      <trkpt lat="44.37786" lon="2.36985">
        <ele>615</ele>
        <time>2017-09-16T13:25:26Z</time>
      </trkpt>
      <trkpt lat="44.37791" lon="2.36986">
        <ele>615</ele>
        <time>2017-09-16T13:25:30Z</time>
      </trkpt>
      <trkpt lat="44.378" lon="2.36993">
        <ele>615</ele>
        <time>2017-09-16T13:25:38Z</time>
      </trkpt>
      <trkpt lat="44.37809" lon="2.36999">
        <ele>616</ele>
        <time>2017-09-16T13:25:45Z</time>
      </trkpt>
      <trkpt lat="44.37852" lon="2.3701">
        <ele>617</ele>
        <time>2017-09-16T13:26:16Z</time>
      </trkpt>
      <trkpt lat="44.37879" lon="2.37021">
        <ele>616</ele>
        <time>2017-09-16T13:26:39Z</time>
      </trkpt>
      <trkpt lat="44.37883" lon="2.37023">
        <ele>616</ele>
        <time>2017-09-16T13:26:43Z</time>
      </trkpt>
      <trkpt lat="44.37905" lon="2.37037">
        <ele>615</ele>
        <time>2017-09-16T13:26:59Z</time>
      </trkpt>
      <trkpt lat="44.37908" lon="2.3704">
        <ele>615</ele>
        <time>2017-09-16T13:27:02Z</time>
      </trkpt>
      <trkpt lat="44.37928" lon="2.37056">
        <ele>611</ele>
        <time>2017-09-16T13:27:18Z</time>
      </trkpt>
      <trkpt lat="44.37937" lon="2.37069">
        <ele>611</ele>
        <time>2017-09-16T13:27:32Z</time>
      </trkpt>
      <trkpt lat="44.37942" lon="2.37073">
        <ele>611</ele>
        <time>2017-09-16T13:27:37Z</time>
      </trkpt>
      <trkpt lat="44.37951" lon="2.37091">
        <ele>614</ele>
        <time>2017-09-16T13:27:50Z</time>
      </trkpt>
      <trkpt lat="44.37954" lon="2.37097">
        <ele>614</ele>
        <time>2017-09-16T13:27:54Z</time>
      </trkpt>
      <trkpt lat="44.37958" lon="2.37102">
        <ele>614</ele>
        <time>2017-09-16T13:27:58Z</time>
      </trkpt>
      <trkpt lat="44.37968" lon="2.37112">
        <ele>614</ele>
        <time>2017-09-16T13:28:07Z</time>
      </trkpt>
      <trkpt lat="44.37984" lon="2.37117">
        <ele>614</ele>
        <time>2017-09-16T13:28:18Z</time>
      </trkpt>
      <trkpt lat="44.38" lon="2.37114">
        <ele>611</ele>
        <time>2017-09-16T13:28:35Z</time>
      </trkpt>
      <trkpt lat="44.38005" lon="2.37112">
        <ele>611</ele>
        <time>2017-09-16T13:28:38Z</time>
      </trkpt>
      <trkpt lat="44.3801" lon="2.37112">
        <ele>611</ele>
        <time>2017-09-16T13:28:41Z</time>
      </trkpt>
      <trkpt lat="44.38014" lon="2.37112">
        <ele>611</ele>
        <time>2017-09-16T13:28:44Z</time>
      </trkpt>
      <trkpt lat="44.38029" lon="2.37116">
        <ele>611</ele>
        <time>2017-09-16T13:28:58Z</time>
      </trkpt>
      <trkpt lat="44.38038" lon="2.37119">
        <ele>611</ele>
        <time>2017-09-16T13:29:06Z</time>
      </trkpt>
      <trkpt lat="44.38052" lon="2.37124">
        <ele>611</ele>
        <time>2017-09-16T13:29:19Z</time>
      </trkpt>
      <trkpt lat="44.38056" lon="2.37124">
        <ele>611</ele>
        <time>2017-09-16T13:29:22Z</time>
      </trkpt>
      <trkpt lat="44.38079" lon="2.37129">
        <ele>611</ele>
        <time>2017-09-16T13:29:39Z</time>
      </trkpt>
      <trkpt lat="44.38086" lon="2.37131">
        <ele>610</ele>
        <time>2017-09-16T13:29:43Z</time>
      </trkpt>
      <trkpt lat="44.38088" lon="2.37131">
        <ele>610</ele>
        <time>2017-09-16T13:29:45Z</time>
      </trkpt>
      <trkpt lat="44.38131" lon="2.37144">
        <ele>610</ele>
        <time>2017-09-16T13:30:15Z</time>
      </trkpt>
      <trkpt lat="44.38152" lon="2.37145">
        <ele>610</ele>
        <time>2017-09-16T13:30:33Z</time>
      </trkpt>
      <trkpt lat="44.38156" lon="2.37146">
        <ele>610</ele>
        <time>2017-09-16T13:30:36Z</time>
      </trkpt>
      <trkpt lat="44.38196" lon="2.3715">
        <ele>610</ele>
        <time>2017-09-16T13:31:06Z</time>
      </trkpt>
      <trkpt lat="44.38206" lon="2.3715">
        <ele>610</ele>
        <time>2017-09-16T13:31:14Z</time>
      </trkpt>
      <trkpt lat="44.38214" lon="2.37152">
        <ele>610</ele>
        <time>2017-09-16T13:31:20Z</time>
      </trkpt>
      <trkpt lat="44.3823" lon="2.37152">
        <ele>610</ele>
        <time>2017-09-16T13:31:33Z</time>
      </trkpt>
      <trkpt lat="44.38255" lon="2.37151">
        <ele>609</ele>
        <time>2017-09-16T13:31:50Z</time>
      </trkpt>
      <trkpt lat="44.38265" lon="2.37153">
        <ele>609</ele>
        <time>2017-09-16T13:31:56Z</time>
      </trkpt>
      <trkpt lat="44.3828" lon="2.3716">
        <ele>609</ele>
        <time>2017-09-16T13:32:07Z</time>
      </trkpt>
      <trkpt lat="44.38323" lon="2.37174">
        <ele>607</ele>
        <time>2017-09-16T13:32:39Z</time>
      </trkpt>
      <trkpt lat="44.38368" lon="2.37187">
        <ele>604</ele>
        <time>2017-09-16T13:33:10Z</time>
      </trkpt>
      <trkpt lat="44.38411" lon="2.37199">
        <ele>602</ele>
        <time>2017-09-16T13:33:42Z</time>
      </trkpt>
      <trkpt lat="44.38456" lon="2.37209">
        <ele>600</ele>
        <time>2017-09-16T13:34:13Z</time>
      </trkpt>
      <trkpt lat="44.3846" lon="2.37208">
        <ele>600</ele>
        <time>2017-09-16T13:34:15Z</time>
      </trkpt>
      <trkpt lat="44.38468" lon="2.3721">
        <ele>600</ele>
        <time>2017-09-16T13:34:21Z</time>
      </trkpt>
      <trkpt lat="44.38476" lon="2.37213">
        <ele>600</ele>
        <time>2017-09-16T13:34:27Z</time>
      </trkpt>
      <trkpt lat="44.38498" lon="2.37221">
        <ele>600</ele>
        <time>2017-09-16T13:34:44Z</time>
      </trkpt>
      <trkpt lat="44.38506" lon="2.37222">
        <ele>599</ele>
        <time>2017-09-16T13:34:50Z</time>
      </trkpt>
      <trkpt lat="44.3851" lon="2.37221">
        <ele>599</ele>
        <time>2017-09-16T13:34:53Z</time>
      </trkpt>
      <trkpt lat="44.38513" lon="2.3722">
        <ele>599</ele>
        <time>2017-09-16T13:34:55Z</time>
      </trkpt>
      <trkpt lat="44.38517" lon="2.37202">
        <ele>598</ele>
        <time>2017-09-16T13:35:05Z</time>
      </trkpt>
      <trkpt lat="44.38541" lon="2.37151">
        <ele>596</ele>
        <time>2017-09-16T13:35:36Z</time>
      </trkpt>
      <trkpt lat="44.38558" lon="2.3712">
        <ele>596</ele>
        <time>2017-09-16T13:35:57Z</time>
      </trkpt>
      <trkpt lat="44.38565" lon="2.37105">
        <ele>595</ele>
        <time>2017-09-16T13:36:06Z</time>
      </trkpt>
      <trkpt lat="44.38568" lon="2.37093">
        <ele>595</ele>
        <time>2017-09-16T13:36:12Z</time>
      </trkpt>
      <trkpt lat="44.38577" lon="2.37074">
        <ele>594</ele>
        <time>2017-09-16T13:36:24Z</time>
      </trkpt>
      <trkpt lat="44.38585" lon="2.3704">
        <ele>594</ele>
        <time>2017-09-16T13:36:43Z</time>
      </trkpt>
      <trkpt lat="44.38586" lon="2.3703">
        <ele>594</ele>
        <time>2017-09-16T13:36:49Z</time>
      </trkpt>
      <trkpt lat="44.38587" lon="2.37024">
        <ele>594</ele>
        <time>2017-09-16T13:36:53Z</time>
      </trkpt>
      <trkpt lat="44.38592" lon="2.37008">
        <ele>594</ele>
        <time>2017-09-16T13:37:02Z</time>
      </trkpt>
      <trkpt lat="44.38593" lon="2.36997">
        <ele>593</ele>
        <time>2017-09-16T13:37:09Z</time>
      </trkpt>
      <trkpt lat="44.38601" lon="2.36971">
        <ele>594</ele>
        <time>2017-09-16T13:37:22Z</time>
      </trkpt>
      <trkpt lat="44.38606" lon="2.3696">
        <ele>594</ele>
        <time>2017-09-16T13:37:29Z</time>
      </trkpt>
      <trkpt lat="44.3861" lon="2.36955">
        <ele>594</ele>
        <time>2017-09-16T13:37:32Z</time>
      </trkpt>
      <trkpt lat="44.38616" lon="2.36946">
        <ele>594</ele>
        <time>2017-09-16T13:37:39Z</time>
      </trkpt>
      <trkpt lat="44.38619" lon="2.36942">
        <ele>594</ele>
        <time>2017-09-16T13:37:43Z</time>
      </trkpt>
      <trkpt lat="44.38625" lon="2.36936">
        <ele>595</ele>
        <time>2017-09-16T13:37:49Z</time>
      </trkpt>
      <trkpt lat="44.38633" lon="2.36929">
        <ele>595</ele>
        <time>2017-09-16T13:37:55Z</time>
      </trkpt>
      <trkpt lat="44.38636" lon="2.36925">
        <ele>595</ele>
        <time>2017-09-16T13:37:59Z</time>
      </trkpt>
      <trkpt lat="44.38665" lon="2.36889">
        <ele>596</ele>
        <time>2017-09-16T13:38:30Z</time>
      </trkpt>
      <trkpt lat="44.38694" lon="2.36855">
        <ele>599</ele>
        <time>2017-09-16T13:38:58Z</time>
      </trkpt>
      <trkpt lat="44.38704" lon="2.36841">
        <ele>599</ele>
        <time>2017-09-16T13:39:09Z</time>
      </trkpt>
      <trkpt lat="44.38707" lon="2.36836">
        <ele>599</ele>
        <time>2017-09-16T13:39:12Z</time>
      </trkpt>
      <trkpt lat="44.3871" lon="2.36831">
        <ele>601</ele>
        <time>2017-09-16T13:39:16Z</time>
      </trkpt>
      <trkpt lat="44.38716" lon="2.36819">
        <ele>601</ele>
        <time>2017-09-16T13:39:23Z</time>
      </trkpt>
      <trkpt lat="44.38741" lon="2.36774">
        <ele>602</ele>
        <time>2017-09-16T13:39:54Z</time>
      </trkpt>
      <trkpt lat="44.38745" lon="2.36765">
        <ele>602</ele>
        <time>2017-09-16T13:40:00Z</time>
      </trkpt>
      <trkpt lat="44.38752" lon="2.3676">
        <ele>603</ele>
        <time>2017-09-16T13:40:08Z</time>
      </trkpt>
      <trkpt lat="44.3876" lon="2.36745">
        <ele>604</ele>
        <time>2017-09-16T13:40:17Z</time>
      </trkpt>
      <trkpt lat="44.38775" lon="2.36693">
        <ele>606</ele>
        <time>2017-09-16T13:40:48Z</time>
      </trkpt>
      <trkpt lat="44.38777" lon="2.36688">
        <ele>606</ele>
        <time>2017-09-16T13:40:51Z</time>
      </trkpt>
      <trkpt lat="44.38779" lon="2.36679">
        <ele>606</ele>
        <time>2017-09-16T13:40:56Z</time>
      </trkpt>
      <trkpt lat="44.38783" lon="2.36664">
        <ele>607</ele>
        <time>2017-09-16T13:41:05Z</time>
      </trkpt>
      <trkpt lat="44.38795" lon="2.36613">
        <ele>607</ele>
        <time>2017-09-16T13:41:35Z</time>
      </trkpt>
      <trkpt lat="44.38798" lon="2.36599">
        <ele>607</ele>
        <time>2017-09-16T13:41:43Z</time>
      </trkpt>
      <trkpt lat="44.388" lon="2.36594">
        <ele>607</ele>
        <time>2017-09-16T13:41:46Z</time>
      </trkpt>
      <trkpt lat="44.38807" lon="2.36542">
        <ele>610</ele>
        <time>2017-09-16T13:42:16Z</time>
      </trkpt>
      <trkpt lat="44.38807" lon="2.36536">
        <ele>610</ele>
        <time>2017-09-16T13:42:19Z</time>
      </trkpt>
      <trkpt lat="44.38806" lon="2.36479">
        <ele>614</ele>
        <time>2017-09-16T13:42:49Z</time>
      </trkpt>
      <trkpt lat="44.38805" lon="2.36462">
        <ele>615</ele>
        <time>2017-09-16T13:42:59Z</time>
      </trkpt>
      <trkpt lat="44.38805" lon="2.36405">
        <ele>617</ele>
        <time>2017-09-16T13:43:30Z</time>
      </trkpt>
      <trkpt lat="44.38805" lon="2.3639">
        <ele>617</ele>
        <time>2017-09-16T13:43:59Z</time>
      </trkpt>
      <trkpt lat="44.38806" lon="2.36384">
        <ele>617</ele>
        <time>2017-09-16T13:44:02Z</time>
      </trkpt>
      <trkpt lat="44.38808" lon="2.36379">
        <ele>617</ele>
        <time>2017-09-16T13:44:06Z</time>
      </trkpt>
      <trkpt lat="44.3881" lon="2.36376">
        <ele>617</ele>
        <time>2017-09-16T13:44:10Z</time>
      </trkpt>
      <trkpt lat="44.38813" lon="2.36372">
        <ele>617</ele>
        <time>2017-09-16T13:44:14Z</time>
      </trkpt>
      <trkpt lat="44.38821" lon="2.36367">
        <ele>617</ele>
        <time>2017-09-16T13:44:21Z</time>
      </trkpt>
      <trkpt lat="44.38827" lon="2.36361">
        <ele>617</ele>
        <time>2017-09-16T13:44:28Z</time>
      </trkpt>
      <trkpt lat="44.3883" lon="2.36356">
        <ele>617</ele>
        <time>2017-09-16T13:44:32Z</time>
      </trkpt>
      <trkpt lat="44.38831" lon="2.36351">
        <ele>617</ele>
        <time>2017-09-16T13:44:35Z</time>
      </trkpt>
      <trkpt lat="44.38831" lon="2.36345">
        <ele>617</ele>
        <time>2017-09-16T13:44:38Z</time>
      </trkpt>
      <trkpt lat="44.38819" lon="2.36321">
        <ele>617</ele>
        <time>2017-09-16T13:44:54Z</time>
      </trkpt>
      <trkpt lat="44.3881" lon="2.36305">
        <ele>616</ele>
        <time>2017-09-16T13:45:05Z</time>
      </trkpt>
      <trkpt lat="44.38806" lon="2.36287">
        <ele>616</ele>
        <time>2017-09-16T13:45:16Z</time>
      </trkpt>
      <trkpt lat="44.38805" lon="2.36282">
        <ele>616</ele>
        <time>2017-09-16T13:45:20Z</time>
      </trkpt>
      <trkpt lat="44.38804" lon="2.36276">
        <ele>616</ele>
        <time>2017-09-16T13:45:23Z</time>
      </trkpt>
      <trkpt lat="44.38806" lon="2.36239">
        <ele>615</ele>
        <time>2017-09-16T13:45:43Z</time>
      </trkpt>
      <trkpt lat="44.38807" lon="2.36234">
        <ele>615</ele>
        <time>2017-09-16T13:45:46Z</time>
      </trkpt>
      <trkpt lat="44.38808" lon="2.36217">
        <ele>615</ele>
        <time>2017-09-16T13:45:55Z</time>
      </trkpt>
      <trkpt lat="44.38809" lon="2.36207">
        <ele>615</ele>
        <time>2017-09-16T13:46:01Z</time>
      </trkpt>
      <trkpt lat="44.3881" lon="2.36201">
        <ele>615</ele>
        <time>2017-09-16T13:46:05Z</time>
      </trkpt>
      <trkpt lat="44.38811" lon="2.36194">
        <ele>615</ele>
        <time>2017-09-16T13:46:10Z</time>
      </trkpt>
      <trkpt lat="44.38812" lon="2.36188">
        <ele>615</ele>
        <time>2017-09-16T13:46:16Z</time>
      </trkpt>
      <trkpt lat="44.38814" lon="2.36164">
        <ele>614</ele>
        <time>2017-09-16T13:46:28Z</time>
      </trkpt>
      <trkpt lat="44.3881" lon="2.36126">
        <ele>613</ele>
        <time>2017-09-16T13:46:50Z</time>
      </trkpt>
      <trkpt lat="44.38789" lon="2.36073">
        <ele>611</ele>
        <time>2017-09-16T13:47:21Z</time>
      </trkpt>
      <trkpt lat="44.38767" lon="2.36027">
        <ele>610</ele>
        <time>2017-09-16T13:47:51Z</time>
      </trkpt>
      <trkpt lat="44.38761" lon="2.36007">
        <ele>610</ele>
        <time>2017-09-16T13:48:03Z</time>
      </trkpt>
      <trkpt lat="44.38759" lon="2.36002">
        <ele>610</ele>
        <time>2017-09-16T13:48:06Z</time>
      </trkpt>
      <trkpt lat="44.38756" lon="2.35997">
        <ele>609</ele>
        <time>2017-09-16T13:48:09Z</time>
      </trkpt>
      <trkpt lat="44.38738" lon="2.35953">
        <ele>607</ele>
        <time>2017-09-16T13:48:42Z</time>
      </trkpt>
      <trkpt lat="44.38717" lon="2.35898">
        <ele>608</ele>
        <time>2017-09-16T13:49:12Z</time>
      </trkpt>
      <trkpt lat="44.38705" lon="2.35859">
        <ele>608</ele>
        <time>2017-09-16T13:49:34Z</time>
      </trkpt>
      <trkpt lat="44.38697" lon="2.35812">
        <ele>609</ele>
        <time>2017-09-16T13:50:02Z</time>
      </trkpt>
      <trkpt lat="44.38694" lon="2.35803">
        <ele>609</ele>
        <time>2017-09-16T13:50:08Z</time>
      </trkpt>
      <trkpt lat="44.38687" lon="2.35766">
        <ele>609</ele>
        <time>2017-09-16T13:50:30Z</time>
      </trkpt>
      <trkpt lat="44.38684" lon="2.35748">
        <ele>609</ele>
        <time>2017-09-16T13:50:41Z</time>
      </trkpt>
      <trkpt lat="44.38684" lon="2.35724">
        <ele>610</ele>
        <time>2017-09-16T13:50:54Z</time>
      </trkpt>
      <trkpt lat="44.38683" lon="2.35719">
        <ele>610</ele>
        <time>2017-09-16T13:50:57Z</time>
      </trkpt>
      <trkpt lat="44.38682" lon="2.35702">
        <ele>610</ele>
        <time>2017-09-16T13:51:08Z</time>
      </trkpt>
      <trkpt lat="44.38678" lon="2.35681">
        <ele>610</ele>
        <time>2017-09-16T13:51:20Z</time>
      </trkpt>
      <trkpt lat="44.38678" lon="2.35673">
        <ele>610</ele>
        <time>2017-09-16T13:51:25Z</time>
      </trkpt>
      <trkpt lat="44.38675" lon="2.35649">
        <ele>611</ele>
        <time>2017-09-16T13:51:40Z</time>
      </trkpt>
      <trkpt lat="44.38674" lon="2.35634">
        <ele>612</ele>
        <time>2017-09-16T13:51:47Z</time>
      </trkpt>
      <trkpt lat="44.38672" lon="2.35625">
        <ele>612</ele>
        <time>2017-09-16T13:51:52Z</time>
      </trkpt>
      <trkpt lat="44.38669" lon="2.35599">
        <ele>613</ele>
        <time>2017-09-16T13:52:08Z</time>
      </trkpt>
      <trkpt lat="44.38662" lon="2.35541">
        <ele>616</ele>
        <time>2017-09-16T13:52:38Z</time>
      </trkpt>
      <trkpt lat="44.38657" lon="2.35521">
        <ele>617</ele>
        <time>2017-09-16T13:52:49Z</time>
      </trkpt>
      <trkpt lat="44.38655" lon="2.35516">
        <ele>617</ele>
        <time>2017-09-16T13:52:53Z</time>
      </trkpt>
      <trkpt lat="44.38642" lon="2.35486">
        <ele>619</ele>
        <time>2017-09-16T13:53:12Z</time>
      </trkpt>
      <trkpt lat="44.38636" lon="2.35478">
        <ele>620</ele>
        <time>2017-09-16T13:53:20Z</time>
      </trkpt>
      <trkpt lat="44.3862" lon="2.3544">
        <ele>621</ele>
        <time>2017-09-16T13:53:41Z</time>
      </trkpt>
      <trkpt lat="44.38606" lon="2.35412">
        <ele>625</ele>
        <time>2017-09-16T13:53:59Z</time>
      </trkpt>
      <trkpt lat="44.38598" lon="2.35384">
        <ele>626</ele>
        <time>2017-09-16T13:54:16Z</time>
      </trkpt>
      <trkpt lat="44.38597" lon="2.35372">
        <ele>626</ele>
        <time>2017-09-16T13:54:23Z</time>
      </trkpt>
      <trkpt lat="44.38595" lon="2.35366">
        <ele>626</ele>
        <time>2017-09-16T13:54:27Z</time>
      </trkpt>
      <trkpt lat="44.38596" lon="2.35362">
        <ele>627</ele>
        <time>2017-09-16T13:54:37Z</time>
      </trkpt>
      <trkpt lat="44.38598" lon="2.35357">
        <ele>627</ele>
        <time>2017-09-16T13:54:47Z</time>
      </trkpt>
      <trkpt lat="44.38597" lon="2.35353">
        <ele>627</ele>
        <time>2017-09-16T13:54:50Z</time>
      </trkpt>
      <trkpt lat="44.38596" lon="2.3535">
        <ele>627</ele>
        <time>2017-09-16T13:54:52Z</time>
      </trkpt>
      <trkpt lat="44.38594" lon="2.35348">
        <ele>627</ele>
        <time>2017-09-16T13:54:54Z</time>
      </trkpt>
      <trkpt lat="44.38589" lon="2.35324">
        <ele>628</ele>
        <time>2017-09-16T13:55:08Z</time>
      </trkpt>
      <trkpt lat="44.38589" lon="2.35321">
        <ele>629</ele>
        <time>2017-09-16T13:55:10Z</time>
      </trkpt>
      <trkpt lat="44.38589" lon="2.35317">
        <ele>629</ele>
        <time>2017-09-16T13:55:13Z</time>
      </trkpt>
      <trkpt lat="44.38589" lon="2.35313">
        <ele>629</ele>
        <time>2017-09-16T13:55:16Z</time>
      </trkpt>
      <trkpt lat="44.38587" lon="2.3531">
        <ele>629</ele>
        <time>2017-09-16T13:55:19Z</time>
      </trkpt>
      <trkpt lat="44.3858" lon="2.35257">
        <ele>627</ele>
        <time>2017-09-16T13:55:50Z</time>
      </trkpt>
      <trkpt lat="44.3858" lon="2.35246">
        <ele>627</ele>
        <time>2017-09-16T13:55:56Z</time>
      </trkpt>
      <trkpt lat="44.3858" lon="2.35239">
        <ele>626</ele>
        <time>2017-09-16T13:56:00Z</time>
      </trkpt>
      <trkpt lat="44.38583" lon="2.35208">
        <ele>628</ele>
        <time>2017-09-16T13:56:18Z</time>
      </trkpt>
      <trkpt lat="44.38589" lon="2.35179">
        <ele>626</ele>
        <time>2017-09-16T13:56:37Z</time>
      </trkpt>
      <trkpt lat="44.3859" lon="2.35175">
        <ele>626</ele>
        <time>2017-09-16T13:56:39Z</time>
      </trkpt>
      <trkpt lat="44.38595" lon="2.35128">
        <ele>625</ele>
        <time>2017-09-16T13:57:05Z</time>
      </trkpt>
      <trkpt lat="44.38597" lon="2.35123">
        <ele>625</ele>
        <time>2017-09-16T13:57:09Z</time>
      </trkpt>
      <trkpt lat="44.38604" lon="2.35082">
        <ele>621</ele>
        <time>2017-09-16T13:57:31Z</time>
      </trkpt>
      <trkpt lat="44.38605" lon="2.35072">
        <ele>621</ele>
        <time>2017-09-16T13:57:37Z</time>
      </trkpt>
      <trkpt lat="44.38606" lon="2.35069">
        <ele>621</ele>
        <time>2017-09-16T13:57:39Z</time>
      </trkpt>
      <trkpt lat="44.38609" lon="2.35056">
        <ele>621</ele>
        <time>2017-09-16T13:57:47Z</time>
      </trkpt>
      <trkpt lat="44.3861" lon="2.35053">
        <ele>621</ele>
        <time>2017-09-16T13:57:53Z</time>
      </trkpt>
      <trkpt lat="44.38612" lon="2.35045">
        <ele>621</ele>
        <time>2017-09-16T13:58:02Z</time>
      </trkpt>
      <trkpt lat="44.38613" lon="2.35037">
        <ele>621</ele>
        <time>2017-09-16T13:58:06Z</time>
      </trkpt>
      <trkpt lat="44.38616" lon="2.35022">
        <ele>621</ele>
        <time>2017-09-16T13:58:14Z</time>
      </trkpt>
      <trkpt lat="44.38618" lon="2.35011">
        <ele>620</ele>
        <time>2017-09-16T13:58:20Z</time>
      </trkpt>
      <trkpt lat="44.3862" lon="2.35001">
        <ele>620</ele>
        <time>2017-09-16T13:58:25Z</time>
      </trkpt>
      <trkpt lat="44.38621" lon="2.34994">
        <ele>617</ele>
        <time>2017-09-16T13:58:28Z</time>
      </trkpt>
      <trkpt lat="44.38621" lon="2.34989">
        <ele>617</ele>
        <time>2017-09-16T13:58:32Z</time>
      </trkpt>
      <trkpt lat="44.38611" lon="2.34933">
        <ele>614</ele>
        <time>2017-09-16T13:59:04Z</time>
      </trkpt>
      <trkpt lat="44.38611" lon="2.34927">
        <ele>614</ele>
        <time>2017-09-16T13:59:07Z</time>
      </trkpt>
      <trkpt lat="44.38611" lon="2.34922">
        <ele>614</ele>
        <time>2017-09-16T13:59:10Z</time>
      </trkpt>
      <trkpt lat="44.38613" lon="2.34907">
        <ele>610</ele>
        <time>2017-09-16T13:59:18Z</time>
      </trkpt>
      <trkpt lat="44.38614" lon="2.34894">
        <ele>610</ele>
        <time>2017-09-16T13:59:25Z</time>
      </trkpt>
      <trkpt lat="44.38617" lon="2.3489">
        <ele>611</ele>
        <time>2017-09-16T13:59:28Z</time>
      </trkpt>
      <trkpt lat="44.38625" lon="2.34863">
        <ele>610</ele>
        <time>2017-09-16T13:59:44Z</time>
      </trkpt>
      <trkpt lat="44.38642" lon="2.34829">
        <ele>608</ele>
        <time>2017-09-16T14:00:07Z</time>
      </trkpt>
      <trkpt lat="44.38644" lon="2.34825">
        <ele>608</ele>
        <time>2017-09-16T14:00:10Z</time>
      </trkpt>
      <trkpt lat="44.38654" lon="2.34804">
        <ele>607</ele>
        <time>2017-09-16T14:00:24Z</time>
      </trkpt>
      <trkpt lat="44.38658" lon="2.34791">
        <ele>607</ele>
        <time>2017-09-16T14:00:32Z</time>
      </trkpt>
      <trkpt lat="44.38659" lon="2.34787">
        <ele>607</ele>
        <time>2017-09-16T14:00:36Z</time>
      </trkpt>
      <trkpt lat="44.3866" lon="2.34781">
        <ele>606</ele>
        <time>2017-09-16T14:00:43Z</time>
      </trkpt>
      <trkpt lat="44.38661" lon="2.34775">
        <ele>607</ele>
        <time>2017-09-16T14:00:46Z</time>
      </trkpt>
      <trkpt lat="44.38663" lon="2.34764">
        <ele>607</ele>
        <time>2017-09-16T14:00:52Z</time>
      </trkpt>
      <trkpt lat="44.38665" lon="2.34759">
        <ele>608</ele>
        <time>2017-09-16T14:00:57Z</time>
      </trkpt>
      <trkpt lat="44.38665" lon="2.34754">
        <ele>609</ele>
        <time>2017-09-16T14:01:13Z</time>
      </trkpt>
      <trkpt lat="44.38667" lon="2.34749">
        <ele>610</ele>
        <time>2017-09-16T14:01:22Z</time>
      </trkpt>
      <trkpt lat="44.38673" lon="2.34708">
        <ele>612</ele>
        <time>2017-09-16T14:01:49Z</time>
      </trkpt>
      <trkpt lat="44.38676" lon="2.34672">
        <ele>608</ele>
        <time>2017-09-16T14:02:10Z</time>
      </trkpt>
      <trkpt lat="44.38677" lon="2.34662">
        <ele>607</ele>
        <time>2017-09-16T14:02:16Z</time>
      </trkpt>
      <trkpt lat="44.38674" lon="2.34634">
        <ele>609</ele>
        <time>2017-09-16T14:02:36Z</time>
      </trkpt>
      <trkpt lat="44.38671" lon="2.34621">
        <ele>609</ele>
        <time>2017-09-16T14:02:44Z</time>
      </trkpt>
      <trkpt lat="44.38668" lon="2.34615">
        <ele>608</ele>
        <time>2017-09-16T14:02:49Z</time>
      </trkpt>
      <trkpt lat="44.38663" lon="2.34609">
        <ele>596</ele>
        <time>2017-09-16T14:02:54Z</time>
      </trkpt>
      <trkpt lat="44.3866" lon="2.34604">
        <ele>596</ele>
        <time>2017-09-16T14:02:57Z</time>
      </trkpt>
      <trkpt lat="44.38655" lon="2.34601">
        <ele>596</ele>
        <time>2017-09-16T14:03:01Z</time>
      </trkpt>
      <trkpt lat="44.3865" lon="2.34598">
        <ele>595</ele>
        <time>2017-09-16T14:03:05Z</time>
      </trkpt>
      <trkpt lat="44.38648" lon="2.34592">
        <ele>595</ele>
        <time>2017-09-16T14:03:08Z</time>
      </trkpt>
      <trkpt lat="44.38643" lon="2.3458">
        <ele>593</ele>
        <time>2017-09-16T14:03:16Z</time>
      </trkpt>
      <trkpt lat="44.38643" lon="2.34574">
        <ele>593</ele>
        <time>2017-09-16T14:03:19Z</time>
      </trkpt>
      <trkpt lat="44.38641" lon="2.34565">
        <ele>592</ele>
        <time>2017-09-16T14:03:27Z</time>
      </trkpt>
      <trkpt lat="44.3864" lon="2.34552">
        <ele>591</ele>
        <time>2017-09-16T14:03:33Z</time>
      </trkpt>
      <trkpt lat="44.3864" lon="2.34548">
        <ele>591</ele>
        <time>2017-09-16T14:03:39Z</time>
      </trkpt>
      <trkpt lat="44.38639" lon="2.34534">
        <ele>590</ele>
        <time>2017-09-16T14:03:53Z</time>
      </trkpt>
      <trkpt lat="44.38641" lon="2.34517">
        <ele>591</ele>
        <time>2017-09-16T14:04:01Z</time>
      </trkpt>
      <trkpt lat="44.38642" lon="2.34511">
        <ele>591</ele>
        <time>2017-09-16T14:04:05Z</time>
      </trkpt>
      <trkpt lat="44.38646" lon="2.3449">
        <ele>588</ele>
        <time>2017-09-16T14:04:15Z</time>
      </trkpt>
      <trkpt lat="44.38648" lon="2.34486">
        <ele>588</ele>
        <time>2017-09-16T14:04:18Z</time>
      </trkpt>
      <trkpt lat="44.38652" lon="2.34475">
        <ele>587</ele>
        <time>2017-09-16T14:04:25Z</time>
      </trkpt>
      <trkpt lat="44.38657" lon="2.34448">
        <ele>585</ele>
        <time>2017-09-16T14:04:41Z</time>
      </trkpt>
      <trkpt lat="44.38658" lon="2.34441">
        <ele>585</ele>
        <time>2017-09-16T14:04:50Z</time>
      </trkpt>
      <trkpt lat="44.3866" lon="2.34435">
        <ele>585</ele>
        <time>2017-09-16T14:04:54Z</time>
      </trkpt>
      <trkpt lat="44.38659" lon="2.3443">
        <ele>586</ele>
        <time>2017-09-16T14:05:17Z</time>
      </trkpt>
      <trkpt lat="44.3866" lon="2.34424">
        <ele>586</ele>
        <time>2017-09-16T14:05:22Z</time>
      </trkpt>
      <trkpt lat="44.38662" lon="2.34413">
        <ele>585</ele>
        <time>2017-09-16T14:05:35Z</time>
      </trkpt>
      <trkpt lat="44.38663" lon="2.3441">
        <ele>583</ele>
        <time>2017-09-16T14:05:42Z</time>
      </trkpt>
      <trkpt lat="44.38665" lon="2.34404">
        <ele>581</ele>
        <time>2017-09-16T14:05:46Z</time>
      </trkpt>
      <trkpt lat="44.38668" lon="2.34394">
        <ele>587</ele>
        <time>2017-09-16T14:05:54Z</time>
      </trkpt>
      <trkpt lat="44.38668" lon="2.34387">
        <ele>586</ele>
        <time>2017-09-16T14:05:57Z</time>
      </trkpt>
      <trkpt lat="44.3867" lon="2.34381">
        <ele>586</ele>
        <time>2017-09-16T14:06:00Z</time>
      </trkpt>
      <trkpt lat="44.38674" lon="2.34368">
        <ele>584</ele>
        <time>2017-09-16T14:06:08Z</time>
      </trkpt>
      <trkpt lat="44.38677" lon="2.34359">
        <ele>583</ele>
        <time>2017-09-16T14:06:13Z</time>
      </trkpt>
      <trkpt lat="44.38678" lon="2.34356">
        <ele>583</ele>
        <time>2017-09-16T14:06:21Z</time>
      </trkpt>
      <trkpt lat="44.3868" lon="2.34356">
        <ele>583</ele>
        <time>2017-09-16T14:06:44Z</time>
      </trkpt>
      <trkpt lat="44.38682" lon="2.34354">
        <ele>583</ele>
        <time>2017-09-16T14:08:50Z</time>
      </trkpt>
      <trkpt lat="44.38684" lon="2.34353">
        <ele>583</ele>
        <time>2017-09-16T14:08:55Z</time>
      </trkpt>
      <trkpt lat="44.38695" lon="2.34348">
        <ele>584</ele>
        <time>2017-09-16T14:09:08Z</time>
      </trkpt>
      <trkpt lat="44.38703" lon="2.34343">
        <ele>584</ele>
        <time>2017-09-16T14:09:16Z</time>
      </trkpt>
      <trkpt lat="44.38708" lon="2.34341">
        <ele>585</ele>
        <time>2017-09-16T14:09:21Z</time>
      </trkpt>
      <trkpt lat="44.38735" lon="2.3433">
        <ele>577</ele>
        <time>2017-09-16T14:09:43Z</time>
      </trkpt>
      <trkpt lat="44.38746" lon="2.3432">
        <ele>577</ele>
        <time>2017-09-16T14:09:53Z</time>
      </trkpt>
      <trkpt lat="44.38766" lon="2.34308">
        <ele>577</ele>
        <time>2017-09-16T14:10:07Z</time>
      </trkpt>
      <trkpt lat="44.3877" lon="2.34307">
        <ele>576</ele>
        <time>2017-09-16T14:10:25Z</time>
      </trkpt>
      <trkpt lat="44.38774" lon="2.34305">
        <ele>576</ele>
        <time>2017-09-16T14:10:29Z</time>
      </trkpt>
      <trkpt lat="44.38787" lon="2.34305">
        <ele>576</ele>
        <time>2017-09-16T14:10:39Z</time>
      </trkpt>
      <trkpt lat="44.38796" lon="2.34298">
        <ele>575</ele>
        <time>2017-09-16T14:10:45Z</time>
      </trkpt>
      <trkpt lat="44.38806" lon="2.34296">
        <ele>575</ele>
        <time>2017-09-16T14:10:52Z</time>
      </trkpt>
      <trkpt lat="44.38816" lon="2.34293">
        <ele>575</ele>
        <time>2017-09-16T14:10:59Z</time>
      </trkpt>
      <trkpt lat="44.3882" lon="2.34292">
        <ele>575</ele>
        <time>2017-09-16T14:11:02Z</time>
      </trkpt>
      <trkpt lat="44.38831" lon="2.34288">
        <ele>574</ele>
        <time>2017-09-16T14:11:10Z</time>
      </trkpt>
      <trkpt lat="44.38834" lon="2.34287">
        <ele>575</ele>
        <time>2017-09-16T14:11:12Z</time>
      </trkpt>
      <trkpt lat="44.38841" lon="2.34285">
        <ele>575</ele>
        <time>2017-09-16T14:11:18Z</time>
      </trkpt>
      <trkpt lat="44.38857" lon="2.34283">
        <ele>575</ele>
        <time>2017-09-16T14:11:33Z</time>
      </trkpt>
      <trkpt lat="44.38886" lon="2.34271">
        <ele>574</ele>
        <time>2017-09-16T14:11:56Z</time>
      </trkpt>
      <trkpt lat="44.38891" lon="2.34269">
        <ele>573</ele>
        <time>2017-09-16T14:12:00Z</time>
      </trkpt>
      <trkpt lat="44.38895" lon="2.34268">
        <ele>573</ele>
        <time>2017-09-16T14:12:04Z</time>
      </trkpt>
      <trkpt lat="44.38899" lon="2.34264">
        <ele>572</ele>
        <time>2017-09-16T14:12:08Z</time>
      </trkpt>
      <trkpt lat="44.38904" lon="2.34261">
        <ele>571</ele>
        <time>2017-09-16T14:12:11Z</time>
      </trkpt>
      <trkpt lat="44.38918" lon="2.34248">
        <ele>566</ele>
        <time>2017-09-16T14:12:24Z</time>
      </trkpt>
      <trkpt lat="44.38922" lon="2.34244">
        <ele>563</ele>
        <time>2017-09-16T14:12:27Z</time>
      </trkpt>
      <trkpt lat="44.38931" lon="2.34239">
        <ele>559</ele>
        <time>2017-09-16T14:12:34Z</time>
      </trkpt>
      <trkpt lat="44.38938" lon="2.34239">
        <ele>558</ele>
        <time>2017-09-16T14:12:39Z</time>
      </trkpt>
      <trkpt lat="44.38946" lon="2.3424">
        <ele>556</ele>
        <time>2017-09-16T14:12:45Z</time>
      </trkpt>
      <trkpt lat="44.38959" lon="2.34244">
        <ele>555</ele>
        <time>2017-09-16T14:12:56Z</time>
      </trkpt>
      <trkpt lat="44.38968" lon="2.34249">
        <ele>554</ele>
        <time>2017-09-16T14:13:06Z</time>
      </trkpt>
      <trkpt lat="44.38971" lon="2.34253">
        <ele>562</ele>
        <time>2017-09-16T14:13:09Z</time>
      </trkpt>
      <trkpt lat="44.38975" lon="2.34255">
        <ele>562</ele>
        <time>2017-09-16T14:13:13Z</time>
      </trkpt>
      <trkpt lat="44.3898" lon="2.34254">
        <ele>561</ele>
        <time>2017-09-16T14:13:17Z</time>
      </trkpt>
      <trkpt lat="44.38982" lon="2.3425">
        <ele>553</ele>
        <time>2017-09-16T14:13:20Z</time>
      </trkpt>
      <trkpt lat="44.38981" lon="2.34243">
        <ele>553</ele>
        <time>2017-09-16T14:13:27Z</time>
      </trkpt>
      <trkpt lat="44.38979" lon="2.34229">
        <ele>553</ele>
        <time>2017-09-16T14:13:35Z</time>
      </trkpt>
      <trkpt lat="44.38976" lon="2.3422">
        <ele>552</ele>
        <time>2017-09-16T14:13:39Z</time>
      </trkpt>
      <trkpt lat="44.38974" lon="2.34217">
        <ele>552</ele>
        <time>2017-09-16T14:13:41Z</time>
      </trkpt>
      <trkpt lat="44.38973" lon="2.34214">
        <ele>552</ele>
        <time>2017-09-16T14:13:43Z</time>
      </trkpt>
      <trkpt lat="44.38972" lon="2.34212">
        <ele>552</ele>
        <time>2017-09-16T14:13:45Z</time>
      </trkpt>
      <trkpt lat="44.38968" lon="2.34213">
        <ele>552</ele>
        <time>2017-09-16T14:13:52Z</time>
      </trkpt>
      <trkpt lat="44.38965" lon="2.34208">
        <ele>552</ele>
        <time>2017-09-16T14:14:52Z</time>
      </trkpt>
      <trkpt lat="44.38962" lon="2.34205">
        <ele>552</ele>
        <time>2017-09-16T14:16:14Z</time>
      </trkpt>
      <trkpt lat="44.38957" lon="2.34204">
        <ele>552</ele>
        <time>2017-09-16T14:16:20Z</time>
      </trkpt>
      <trkpt lat="44.38953" lon="2.34205">
        <ele>552</ele>
        <time>2017-09-16T14:16:25Z</time>
      </trkpt>
      <trkpt lat="44.3895" lon="2.34203">
        <ele>552</ele>
        <time>2017-09-16T14:16:29Z</time>
      </trkpt>
      <trkpt lat="44.38946" lon="2.34201">
        <ele>552</ele>
        <time>2017-09-16T14:16:40Z</time>
      </trkpt>
      <trkpt lat="44.38941" lon="2.34202">
        <ele>552</ele>
        <time>2017-09-16T14:16:44Z</time>
      </trkpt>
      <trkpt lat="44.38933" lon="2.342">
        <ele>552</ele>
        <time>2017-09-16T14:16:50Z</time>
      </trkpt>
      <trkpt lat="44.38925" lon="2.34198">
        <ele>552</ele>
        <time>2017-09-16T14:16:57Z</time>
      </trkpt>
      <trkpt lat="44.38919" lon="2.34196">
        <ele>551</ele>
        <time>2017-09-16T14:17:03Z</time>
      </trkpt>
      <trkpt lat="44.38914" lon="2.34194">
        <ele>551</ele>
        <time>2017-09-16T14:17:08Z</time>
      </trkpt>
      <trkpt lat="44.3891" lon="2.34193">
        <ele>551</ele>
        <time>2017-09-16T14:17:12Z</time>
      </trkpt>
      <trkpt lat="44.38904" lon="2.34193">
        <ele>551</ele>
        <time>2017-09-16T14:17:17Z</time>
      </trkpt>
      <trkpt lat="44.38898" lon="2.34194">
        <ele>552</ele>
        <time>2017-09-16T14:17:22Z</time>
      </trkpt>
      <trkpt lat="44.38888" lon="2.3419">
        <ele>551</ele>
        <time>2017-09-16T14:17:29Z</time>
      </trkpt>
      <trkpt lat="44.38877" lon="2.34192">
        <ele>551</ele>
        <time>2017-09-16T14:17:39Z</time>
      </trkpt>
      <trkpt lat="44.38869" lon="2.34192">
        <ele>551</ele>
        <time>2017-09-16T14:17:46Z</time>
      </trkpt>
      <trkpt lat="44.38865" lon="2.34192">
        <ele>550</ele>
        <time>2017-09-16T14:17:49Z</time>
      </trkpt>
      <trkpt lat="44.38861" lon="2.34191">
        <ele>550</ele>
        <time>2017-09-16T14:17:52Z</time>
      </trkpt>
      <trkpt lat="44.38858" lon="2.34191">
        <ele>550</ele>
        <time>2017-09-16T14:17:55Z</time>
      </trkpt>
      <trkpt lat="44.38855" lon="2.34192">
        <ele>550</ele>
        <time>2017-09-16T14:17:57Z</time>
      </trkpt>
      <trkpt lat="44.38846" lon="2.3419">
        <ele>548</ele>
        <time>2017-09-16T14:18:03Z</time>
      </trkpt>
      <trkpt lat="44.38843" lon="2.34188">
        <ele>548</ele>
        <time>2017-09-16T14:18:09Z</time>
      </trkpt>
      <trkpt lat="44.38806" lon="2.34181">
        <ele>546</ele>
        <time>2017-09-16T14:18:41Z</time>
      </trkpt>
      <trkpt lat="44.38788" lon="2.34182">
        <ele>546</ele>
        <time>2017-09-16T14:18:54Z</time>
      </trkpt>
      <trkpt lat="44.38785" lon="2.34183">
        <ele>546</ele>
        <time>2017-09-16T14:18:57Z</time>
      </trkpt>
      <trkpt lat="44.38781" lon="2.34185">
        <ele>546</ele>
        <time>2017-09-16T14:19:00Z</time>
      </trkpt>
      <trkpt lat="44.38773" lon="2.34183">
        <ele>545</ele>
        <time>2017-09-16T14:19:06Z</time>
      </trkpt>
      <trkpt lat="44.3877" lon="2.34182">
        <ele>544</ele>
        <time>2017-09-16T14:19:09Z</time>
      </trkpt>
      <trkpt lat="44.38754" lon="2.3418">
        <ele>542</ele>
        <time>2017-09-16T14:19:22Z</time>
      </trkpt>
      <trkpt lat="44.38741" lon="2.34175">
        <ele>540</ele>
        <time>2017-09-16T14:19:31Z</time>
      </trkpt>
      <trkpt lat="44.38725" lon="2.34169">
        <ele>541</ele>
        <time>2017-09-16T14:19:43Z</time>
      </trkpt>
      <trkpt lat="44.38721" lon="2.34169">
        <ele>542</ele>
        <time>2017-09-16T14:19:47Z</time>
      </trkpt>
      <trkpt lat="44.38705" lon="2.34164">
        <ele>526</ele>
        <time>2017-09-16T14:20:01Z</time>
      </trkpt>
      <trkpt lat="44.38695" lon="2.34158">
        <ele>525</ele>
        <time>2017-09-16T14:20:09Z</time>
      </trkpt>
      <trkpt lat="44.38691" lon="2.34156">
        <ele>525</ele>
        <time>2017-09-16T14:20:12Z</time>
      </trkpt>
      <trkpt lat="44.38686" lon="2.34154">
        <ele>526</ele>
        <time>2017-09-16T14:20:16Z</time>
      </trkpt>
      <trkpt lat="44.38673" lon="2.34149">
        <ele>526</ele>
        <time>2017-09-16T14:20:25Z</time>
      </trkpt>
      <trkpt lat="44.38668" lon="2.34148">
        <ele>526</ele>
        <time>2017-09-16T14:20:29Z</time>
      </trkpt>
      <trkpt lat="44.38637" lon="2.34149">
        <ele>521</ele>
        <time>2017-09-16T14:20:53Z</time>
      </trkpt>
      <trkpt lat="44.38634" lon="2.34148">
        <ele>521</ele>
        <time>2017-09-16T14:20:56Z</time>
      </trkpt>
      <trkpt lat="44.3863" lon="2.34147">
        <ele>521</ele>
        <time>2017-09-16T14:21:00Z</time>
      </trkpt>
      <trkpt lat="44.38621" lon="2.34144">
        <ele>520</ele>
        <time>2017-09-16T14:21:09Z</time>
      </trkpt>
      <trkpt lat="44.38613" lon="2.34142">
        <ele>520</ele>
        <time>2017-09-16T14:21:16Z</time>
      </trkpt>
      <trkpt lat="44.38603" lon="2.34133">
        <ele>518</ele>
        <time>2017-09-16T14:21:27Z</time>
      </trkpt>
      <trkpt lat="44.386" lon="2.3413">
        <ele>518</ele>
        <time>2017-09-16T14:21:33Z</time>
      </trkpt>
      <trkpt lat="44.38597" lon="2.34128">
        <ele>517</ele>
        <time>2017-09-16T14:21:39Z</time>
      </trkpt>
      <trkpt lat="44.38591" lon="2.34124">
        <ele>517</ele>
        <time>2017-09-16T14:21:46Z</time>
      </trkpt>
      <trkpt lat="44.38581" lon="2.34123">
        <ele>512</ele>
        <time>2017-09-16T14:21:55Z</time>
      </trkpt>
      <trkpt lat="44.38571" lon="2.34125">
        <ele>511</ele>
        <time>2017-09-16T14:22:04Z</time>
      </trkpt>
      <trkpt lat="44.38537" lon="2.34144">
        <ele>511</ele>
        <time>2017-09-16T14:22:35Z</time>
      </trkpt>
      <trkpt lat="44.38535" lon="2.34145">
        <ele>511</ele>
        <time>2017-09-16T14:22:37Z</time>
      </trkpt>
      <trkpt lat="44.38528" lon="2.34147">
        <ele>511</ele>
        <time>2017-09-16T14:22:56Z</time>
      </trkpt>
      <trkpt lat="44.38493" lon="2.3416">
        <ele>507</ele>
        <time>2017-09-16T14:23:27Z</time>
      </trkpt>
      <trkpt lat="44.38483" lon="2.34163">
        <ele>505</ele>
        <time>2017-09-16T14:23:34Z</time>
      </trkpt>
      <trkpt lat="44.38468" lon="2.34171">
        <ele>509</ele>
        <time>2017-09-16T14:23:51Z</time>
      </trkpt>
      <trkpt lat="44.38464" lon="2.34173">
        <ele>509</ele>
        <time>2017-09-16T14:23:55Z</time>
      </trkpt>
      <trkpt lat="44.38443" lon="2.34189">
        <ele>507</ele>
        <time>2017-09-16T14:24:27Z</time>
      </trkpt>
      <trkpt lat="44.3844" lon="2.34191">
        <ele>506</ele>
        <time>2017-09-16T14:24:31Z</time>
      </trkpt>
      <trkpt lat="44.38433" lon="2.34198">
        <ele>506</ele>
        <time>2017-09-16T14:24:40Z</time>
      </trkpt>
      <trkpt lat="44.38426" lon="2.34208">
        <ele>507</ele>
        <time>2017-09-16T14:24:51Z</time>
      </trkpt>
      <trkpt lat="44.38424" lon="2.3421">
        <ele>507</ele>
        <time>2017-09-16T14:24:54Z</time>
      </trkpt>
      <trkpt lat="44.38422" lon="2.34212">
        <ele>507</ele>
        <time>2017-09-16T14:24:57Z</time>
      </trkpt>
      <trkpt lat="44.38419" lon="2.34217">
        <ele>507</ele>
        <time>2017-09-16T14:25:02Z</time>
      </trkpt>
      <trkpt lat="44.38416" lon="2.34223">
        <ele>496</ele>
        <time>2017-09-16T14:25:06Z</time>
      </trkpt>
      <trkpt lat="44.38407" lon="2.34246">
        <ele>499</ele>
        <time>2017-09-16T14:25:23Z</time>
      </trkpt>
      <trkpt lat="44.38405" lon="2.34254">
        <ele>500</ele>
        <time>2017-09-16T14:25:28Z</time>
      </trkpt>
      <trkpt lat="44.38402" lon="2.34283">
        <ele>498</ele>
        <time>2017-09-16T14:25:44Z</time>
      </trkpt>
      <trkpt lat="44.38402" lon="2.34292">
        <ele>498</ele>
        <time>2017-09-16T14:25:50Z</time>
      </trkpt>
      <trkpt lat="44.38401" lon="2.34297">
        <ele>498</ele>
        <time>2017-09-16T14:25:53Z</time>
      </trkpt>
      <trkpt lat="44.38401" lon="2.34301">
        <ele>498</ele>
        <time>2017-09-16T14:25:56Z</time>
      </trkpt>
      <trkpt lat="44.384" lon="2.34306">
        <ele>498</ele>
        <time>2017-09-16T14:25:59Z</time>
      </trkpt>
      <trkpt lat="44.38394" lon="2.34322">
        <ele>499</ele>
        <time>2017-09-16T14:26:10Z</time>
      </trkpt>
      <trkpt lat="44.38391" lon="2.34327">
        <ele>498</ele>
        <time>2017-09-16T14:26:14Z</time>
      </trkpt>
      <trkpt lat="44.38387" lon="2.3433">
        <ele>498</ele>
        <time>2017-09-16T14:26:16Z</time>
      </trkpt>
      <trkpt lat="44.38381" lon="2.34338">
        <ele>499</ele>
        <time>2017-09-16T14:26:21Z</time>
      </trkpt>
      <trkpt lat="44.38373" lon="2.34351">
        <ele>497</ele>
        <time>2017-09-16T14:26:30Z</time>
      </trkpt>
      <trkpt lat="44.38368" lon="2.34356">
        <ele>497</ele>
        <time>2017-09-16T14:26:39Z</time>
      </trkpt>
      <trkpt lat="44.38368" lon="2.3436">
        <ele>497</ele>
        <time>2017-09-16T14:26:56Z</time>
      </trkpt>
      <trkpt lat="44.38368" lon="2.34365">
        <ele>497</ele>
        <time>2017-09-16T14:27:00Z</time>
      </trkpt>
      <trkpt lat="44.38368" lon="2.3437">
        <ele>498</ele>
        <time>2017-09-16T14:27:04Z</time>
      </trkpt>
      <trkpt lat="44.38368" lon="2.34383">
        <ele>498</ele>
        <time>2017-09-16T14:27:15Z</time>
      </trkpt>
      <trkpt lat="44.38369" lon="2.34391">
        <ele>499</ele>
        <time>2017-09-16T14:27:20Z</time>
      </trkpt>
      <trkpt lat="44.38368" lon="2.344">
        <ele>498</ele>
        <time>2017-09-16T14:27:25Z</time>
      </trkpt>
      <trkpt lat="44.38368" lon="2.34407">
        <ele>499</ele>
        <time>2017-09-16T14:27:30Z</time>
      </trkpt>
      <trkpt lat="44.38369" lon="2.34416">
        <ele>499</ele>
        <time>2017-09-16T14:27:34Z</time>
      </trkpt>
      <trkpt lat="44.38369" lon="2.34425">
        <ele>504</ele>
        <time>2017-09-16T14:27:40Z</time>
      </trkpt>
      <trkpt lat="44.38369" lon="2.34433">
        <ele>504</ele>
        <time>2017-09-16T14:27:46Z</time>
      </trkpt>
      <trkpt lat="44.38364" lon="2.34433">
        <ele>503</ele>
        <time>2017-09-16T14:27:50Z</time>
      </trkpt>
      <trkpt lat="44.38362" lon="2.34431">
        <ele>503</ele>
        <time>2017-09-16T14:27:53Z</time>
      </trkpt>
      <trkpt lat="44.38361" lon="2.34428">
        <ele>502</ele>
        <time>2017-09-16T14:27:55Z</time>
      </trkpt>
      <trkpt lat="44.38359" lon="2.3442">
        <ele>501</ele>
        <time>2017-09-16T14:27:59Z</time>
      </trkpt>
      <trkpt lat="44.38354" lon="2.34405">
        <ele>496</ele>
        <time>2017-09-16T14:28:09Z</time>
      </trkpt>
      <trkpt lat="44.38353" lon="2.344">
        <ele>496</ele>
        <time>2017-09-16T14:28:13Z</time>
      </trkpt>
      <trkpt lat="44.3835" lon="2.3439">
        <ele>496</ele>
        <time>2017-09-16T14:28:20Z</time>
      </trkpt>
      <trkpt lat="44.38348" lon="2.34385">
        <ele>496</ele>
        <time>2017-09-16T14:28:23Z</time>
      </trkpt>
      <trkpt lat="44.38347" lon="2.34381">
        <ele>496</ele>
        <time>2017-09-16T14:28:26Z</time>
      </trkpt>
      <trkpt lat="44.38345" lon="2.34377">
        <ele>495</ele>
        <time>2017-09-16T14:28:28Z</time>
      </trkpt>
      <trkpt lat="44.38341" lon="2.34366">
        <ele>494</ele>
        <time>2017-09-16T14:28:36Z</time>
      </trkpt>
      <trkpt lat="44.38332" lon="2.3434">
        <ele>482</ele>
        <time>2017-09-16T14:28:53Z</time>
      </trkpt>
      <trkpt lat="44.38324" lon="2.34289">
        <ele>477</ele>
        <time>2017-09-16T14:29:24Z</time>
      </trkpt>
      <trkpt lat="44.3832" lon="2.34257">
        <ele>478</ele>
        <time>2017-09-16T14:29:44Z</time>
      </trkpt>
      <trkpt lat="44.3832" lon="2.34254">
        <ele>479</ele>
        <time>2017-09-16T14:29:46Z</time>
      </trkpt>
      <trkpt lat="44.38313" lon="2.34217">
        <ele>475</ele>
        <time>2017-09-16T14:30:10Z</time>
      </trkpt>
      <trkpt lat="44.38311" lon="2.34207">
        <ele>475</ele>
        <time>2017-09-16T14:30:16Z</time>
      </trkpt>
      <trkpt lat="44.38306" lon="2.34186">
        <ele>474</ele>
        <time>2017-09-16T14:30:29Z</time>
      </trkpt>
      <trkpt lat="44.38306" lon="2.34183">
        <ele>474</ele>
        <time>2017-09-16T14:30:31Z</time>
      </trkpt>
      <trkpt lat="44.38294" lon="2.34128">
        <ele>470</ele>
        <time>2017-09-16T14:31:02Z</time>
      </trkpt>
      <trkpt lat="44.38283" lon="2.34076">
        <ele>466</ele>
        <time>2017-09-16T14:31:32Z</time>
      </trkpt>
      <trkpt lat="44.38282" lon="2.34068">
        <ele>465</ele>
        <time>2017-09-16T14:31:36Z</time>
      </trkpt>
      <trkpt lat="44.38281" lon="2.34064">
        <ele>465</ele>
        <time>2017-09-16T14:31:39Z</time>
      </trkpt>
      <trkpt lat="44.3828" lon="2.34051">
        <ele>465</ele>
        <time>2017-09-16T14:31:45Z</time>
      </trkpt>
      <trkpt lat="44.38278" lon="2.34044">
        <ele>465</ele>
        <time>2017-09-16T14:31:49Z</time>
      </trkpt>
      <trkpt lat="44.38276" lon="2.34036">
        <ele>464</ele>
        <time>2017-09-16T14:31:53Z</time>
      </trkpt>
      <trkpt lat="44.38277" lon="2.34029">
        <ele>464</ele>
        <time>2017-09-16T14:31:57Z</time>
      </trkpt>
      <trkpt lat="44.38278" lon="2.34025">
        <ele>464</ele>
        <time>2017-09-16T14:31:59Z</time>
      </trkpt>
      <trkpt lat="44.38285" lon="2.3401">
        <ele>464</ele>
        <time>2017-09-16T14:32:09Z</time>
      </trkpt>
      <trkpt lat="44.38309" lon="2.33991">
        <ele>458</ele>
        <time>2017-09-16T14:32:29Z</time>
      </trkpt>
      <trkpt lat="44.38318" lon="2.33986">
        <ele>458</ele>
        <time>2017-09-16T14:32:37Z</time>
      </trkpt>
      <trkpt lat="44.3832" lon="2.33984">
        <ele>458</ele>
        <time>2017-09-16T14:32:39Z</time>
      </trkpt>
      <trkpt lat="44.38359" lon="2.33963">
        <ele>452</ele>
        <time>2017-09-16T14:33:10Z</time>
      </trkpt>
      <trkpt lat="44.38382" lon="2.33956">
        <ele>450</ele>
        <time>2017-09-16T14:33:28Z</time>
      </trkpt>
      <trkpt lat="44.38391" lon="2.33956">
        <ele>450</ele>
        <time>2017-09-16T14:33:34Z</time>
      </trkpt>
      <trkpt lat="44.38409" lon="2.33953">
        <ele>449</ele>
        <time>2017-09-16T14:33:47Z</time>
      </trkpt>
      <trkpt lat="44.38414" lon="2.33957">
        <ele>450</ele>
        <time>2017-09-16T14:33:53Z</time>
      </trkpt>
      <trkpt lat="44.38417" lon="2.33956">
        <ele>450</ele>
        <time>2017-09-16T14:33:56Z</time>
      </trkpt>
      <trkpt lat="44.3843" lon="2.33956">
        <ele>451</ele>
        <time>2017-09-16T14:34:07Z</time>
      </trkpt>
      <trkpt lat="44.38436" lon="2.33955">
        <ele>451</ele>
        <time>2017-09-16T14:34:11Z</time>
      </trkpt>
      <trkpt lat="44.38438" lon="2.33955">
        <ele>451</ele>
        <time>2017-09-16T14:34:13Z</time>
      </trkpt>
      <trkpt lat="44.38462" lon="2.33946">
        <ele>451</ele>
        <time>2017-09-16T14:34:32Z</time>
      </trkpt>
      <trkpt lat="44.38465" lon="2.33944">
        <ele>450</ele>
        <time>2017-09-16T14:34:35Z</time>
      </trkpt>
      <trkpt lat="44.38468" lon="2.33941">
        <ele>450</ele>
        <time>2017-09-16T14:34:38Z</time>
      </trkpt>
      <trkpt lat="44.38473" lon="2.3394">
        <ele>450</ele>
        <time>2017-09-16T14:34:42Z</time>
      </trkpt>
      <trkpt lat="44.38486" lon="2.33934">
        <ele>448</ele>
        <time>2017-09-16T14:34:52Z</time>
      </trkpt>
      <trkpt lat="44.3849" lon="2.33932">
        <ele>447</ele>
        <time>2017-09-16T14:34:55Z</time>
      </trkpt>
      <trkpt lat="44.38498" lon="2.33931">
        <ele>446</ele>
        <time>2017-09-16T14:35:01Z</time>
      </trkpt>
      <trkpt lat="44.38539" lon="2.33925">
        <ele>449</ele>
        <time>2017-09-16T14:35:32Z</time>
      </trkpt>
      <trkpt lat="44.38551" lon="2.33925">
        <ele>448</ele>
        <time>2017-09-16T14:35:41Z</time>
      </trkpt>
      <trkpt lat="44.38557" lon="2.33928">
        <ele>448</ele>
        <time>2017-09-16T14:35:46Z</time>
      </trkpt>
      <trkpt lat="44.38569" lon="2.33933">
        <ele>447</ele>
        <time>2017-09-16T14:35:56Z</time>
      </trkpt>
      <trkpt lat="44.38572" lon="2.33936">
        <ele>447</ele>
        <time>2017-09-16T14:36:04Z</time>
      </trkpt>
      <trkpt lat="44.38573" lon="2.33939">
        <ele>448</ele>
        <time>2017-09-16T14:36:07Z</time>
      </trkpt>
      <trkpt lat="44.38576" lon="2.3394">
        <ele>448</ele>
        <time>2017-09-16T14:36:10Z</time>
      </trkpt>
      <trkpt lat="44.38579" lon="2.33941">
        <ele>448</ele>
        <time>2017-09-16T14:36:17Z</time>
      </trkpt>
      <trkpt lat="44.38609" lon="2.33939">
        <ele>451</ele>
        <time>2017-09-16T14:36:40Z</time>
      </trkpt>
      <trkpt lat="44.38615" lon="2.33937">
        <ele>451</ele>
        <time>2017-09-16T14:36:45Z</time>
      </trkpt>
      <trkpt lat="44.38642" lon="2.3391">
        <ele>431</ele>
        <time>2017-09-16T14:37:11Z</time>
      </trkpt>
      <trkpt lat="44.38649" lon="2.33906">
        <ele>432</ele>
        <time>2017-09-16T14:37:17Z</time>
      </trkpt>
      <trkpt lat="44.3866" lon="2.33899">
        <ele>432</ele>
        <time>2017-09-16T14:37:26Z</time>
      </trkpt>
      <trkpt lat="44.38666" lon="2.33894">
        <ele>431</ele>
        <time>2017-09-16T14:37:32Z</time>
      </trkpt>
      <trkpt lat="44.38671" lon="2.3389">
        <ele>433</ele>
        <time>2017-09-16T14:37:36Z</time>
      </trkpt>
      <trkpt lat="44.38674" lon="2.33891">
        <ele>433</ele>
        <time>2017-09-16T14:37:38Z</time>
      </trkpt>
      <trkpt lat="44.38677" lon="2.3389">
        <ele>432</ele>
        <time>2017-09-16T14:37:41Z</time>
      </trkpt>
      <trkpt lat="44.38692" lon="2.33882">
        <ele>431</ele>
        <time>2017-09-16T14:37:55Z</time>
      </trkpt>
      <trkpt lat="44.38695" lon="2.33881">
        <ele>431</ele>
        <time>2017-09-16T14:37:58Z</time>
      </trkpt>
      <trkpt lat="44.38723" lon="2.33851">
        <ele>427</ele>
        <time>2017-09-16T14:38:26Z</time>
      </trkpt>
      <trkpt lat="44.38726" lon="2.3385">
        <ele>427</ele>
        <time>2017-09-16T14:38:30Z</time>
      </trkpt>
      <trkpt lat="44.38737" lon="2.33847">
        <ele>426</ele>
        <time>2017-09-16T14:38:41Z</time>
      </trkpt>
      <trkpt lat="44.38741" lon="2.33847">
        <ele>426</ele>
        <time>2017-09-16T14:38:45Z</time>
      </trkpt>
      <trkpt lat="44.38744" lon="2.33843">
        <ele>425</ele>
        <time>2017-09-16T14:39:04Z</time>
      </trkpt>
      <trkpt lat="44.38747" lon="2.3384">
        <ele>424</ele>
        <time>2017-09-16T14:39:08Z</time>
      </trkpt>
      <trkpt lat="44.38761" lon="2.33833">
        <ele>423</ele>
        <time>2017-09-16T14:39:20Z</time>
      </trkpt>
      <trkpt lat="44.38765" lon="2.3383">
        <ele>423</ele>
        <time>2017-09-16T14:39:23Z</time>
      </trkpt>
      <trkpt lat="44.38772" lon="2.33821">
        <ele>424</ele>
        <time>2017-09-16T14:39:32Z</time>
      </trkpt>
      <trkpt lat="44.38776" lon="2.33817">
        <ele>424</ele>
        <time>2017-09-16T14:39:35Z</time>
      </trkpt>
      <trkpt lat="44.38777" lon="2.33813">
        <ele>424</ele>
        <time>2017-09-16T14:39:38Z</time>
      </trkpt>
      <trkpt lat="44.38789" lon="2.33795">
        <ele>425</ele>
        <time>2017-09-16T14:39:53Z</time>
      </trkpt>
      <trkpt lat="44.38795" lon="2.33791">
        <ele>425</ele>
        <time>2017-09-16T14:39:58Z</time>
      </trkpt>
      <trkpt lat="44.38798" lon="2.33789">
        <ele>425</ele>
        <time>2017-09-16T14:40:00Z</time>
      </trkpt>
      <trkpt lat="44.388" lon="2.33786">
        <ele>425</ele>
        <time>2017-09-16T14:40:03Z</time>
      </trkpt>
      <trkpt lat="44.38804" lon="2.33777">
        <ele>425</ele>
        <time>2017-09-16T14:40:08Z</time>
      </trkpt>
      <trkpt lat="44.38807" lon="2.33774">
        <ele>425</ele>
        <time>2017-09-16T14:40:11Z</time>
      </trkpt>
      <trkpt lat="44.38818" lon="2.33737">
        <ele>422</ele>
        <time>2017-09-16T14:40:32Z</time>
      </trkpt>
      <trkpt lat="44.3882" lon="2.33734">
        <ele>422</ele>
        <time>2017-09-16T14:40:34Z</time>
      </trkpt>
      <trkpt lat="44.38824" lon="2.33714">
        <ele>421</ele>
        <time>2017-09-16T14:40:47Z</time>
      </trkpt>
      <trkpt lat="44.38827" lon="2.33702">
        <ele>421</ele>
        <time>2017-09-16T14:40:54Z</time>
      </trkpt>
      <trkpt lat="44.38829" lon="2.33687">
        <ele>421</ele>
        <time>2017-09-16T14:41:07Z</time>
      </trkpt>
      <trkpt lat="44.38828" lon="2.33662">
        <ele>423</ele>
        <time>2017-09-16T14:41:25Z</time>
      </trkpt>
      <trkpt lat="44.38828" lon="2.33655">
        <ele>422</ele>
        <time>2017-09-16T14:41:29Z</time>
      </trkpt>
      <trkpt lat="44.38827" lon="2.33633">
        <ele>422</ele>
        <time>2017-09-16T14:41:41Z</time>
      </trkpt>
      <trkpt lat="44.38824" lon="2.33628">
        <ele>421</ele>
        <time>2017-09-16T14:41:44Z</time>
      </trkpt>
      <trkpt lat="44.38823" lon="2.33622">
        <ele>422</ele>
        <time>2017-09-16T14:41:47Z</time>
      </trkpt>
      <trkpt lat="44.38823" lon="2.33616">
        <ele>422</ele>
        <time>2017-09-16T14:41:51Z</time>
      </trkpt>
      <trkpt lat="44.38821" lon="2.336">
        <ele>423</ele>
        <time>2017-09-16T14:42:00Z</time>
      </trkpt>
      <trkpt lat="44.38819" lon="2.33594">
        <ele>423</ele>
        <time>2017-09-16T14:42:03Z</time>
      </trkpt>
      <trkpt lat="44.38817" lon="2.33587">
        <ele>423</ele>
        <time>2017-09-16T14:42:07Z</time>
      </trkpt>
      <trkpt lat="44.38814" lon="2.33582">
        <ele>423</ele>
        <time>2017-09-16T14:42:12Z</time>
      </trkpt>
      <trkpt lat="44.3881" lon="2.33582">
        <ele>423</ele>
        <time>2017-09-16T14:42:16Z</time>
      </trkpt>
      <trkpt lat="44.38806" lon="2.33586">
        <ele>422</ele>
        <time>2017-09-16T14:42:20Z</time>
      </trkpt>
      <trkpt lat="44.38802" lon="2.33588">
        <ele>421</ele>
        <time>2017-09-16T14:42:23Z</time>
      </trkpt>
      <trkpt lat="44.38799" lon="2.3359">
        <ele>421</ele>
        <time>2017-09-16T14:42:29Z</time>
      </trkpt>
      <trkpt lat="44.38792" lon="2.33597">
        <ele>420</ele>
        <time>2017-09-16T14:42:36Z</time>
      </trkpt>
      <trkpt lat="44.38789" lon="2.336">
        <ele>420</ele>
        <time>2017-09-16T14:42:39Z</time>
      </trkpt>
      <trkpt lat="44.38779" lon="2.33608">
        <ele>419</ele>
        <time>2017-09-16T14:42:49Z</time>
      </trkpt>
      <trkpt lat="44.38775" lon="2.33613">
        <ele>419</ele>
        <time>2017-09-16T14:42:52Z</time>
      </trkpt>
      <trkpt lat="44.38772" lon="2.33616">
        <ele>419</ele>
        <time>2017-09-16T14:42:55Z</time>
      </trkpt>
      <trkpt lat="44.38769" lon="2.33619">
        <ele>419</ele>
        <time>2017-09-16T14:42:58Z</time>
      </trkpt>
      <trkpt lat="44.38767" lon="2.3362">
        <ele>418</ele>
        <time>2017-09-16T14:43:01Z</time>
      </trkpt>
      <trkpt lat="44.38765" lon="2.33624">
        <ele>418</ele>
        <time>2017-09-16T14:43:04Z</time>
      </trkpt>
      <trkpt lat="44.38766" lon="2.33628">
        <ele>418</ele>
        <time>2017-09-16T14:43:07Z</time>
      </trkpt>
      <trkpt lat="44.38768" lon="2.33631">
        <ele>418</ele>
        <time>2017-09-16T14:43:11Z</time>
      </trkpt>
      <trkpt lat="44.3877" lon="2.3363">
        <ele>418</ele>
        <time>2017-09-16T14:43:18Z</time>
      </trkpt>
      <trkpt lat="44.38776" lon="2.33633">
        <ele>419</ele>
        <time>2017-09-16T14:43:23Z</time>
      </trkpt>
      <trkpt lat="44.38777" lon="2.33637">
        <ele>419</ele>
        <time>2017-09-16T14:43:25Z</time>
      </trkpt>
      <trkpt lat="44.38777" lon="2.33646">
        <ele>418</ele>
        <time>2017-09-16T14:43:29Z</time>
      </trkpt>
      <trkpt lat="44.38777" lon="2.33655">
        <ele>418</ele>
        <time>2017-09-16T14:43:35Z</time>
      </trkpt>
      <trkpt lat="44.38776" lon="2.33659">
        <ele>418</ele>
        <time>2017-09-16T14:43:38Z</time>
      </trkpt>
      <trkpt lat="44.38776" lon="2.33665">
        <ele>418</ele>
        <time>2017-09-16T14:43:41Z</time>
      </trkpt>
      <trkpt lat="44.38775" lon="2.3367">
        <ele>417</ele>
        <time>2017-09-16T14:43:44Z</time>
      </trkpt>
      <trkpt lat="44.38773" lon="2.33674">
        <ele>416</ele>
        <time>2017-09-16T14:43:47Z</time>
      </trkpt>
      <trkpt lat="44.38769" lon="2.33687">
        <ele>416</ele>
        <time>2017-09-16T14:43:54Z</time>
      </trkpt>
      <trkpt lat="44.38765" lon="2.337">
        <ele>416</ele>
        <time>2017-09-16T14:44:03Z</time>
      </trkpt>
      <trkpt lat="44.38761" lon="2.33711">
        <ele>416</ele>
        <time>2017-09-16T14:44:10Z</time>
      </trkpt>
      <trkpt lat="44.3876" lon="2.33716">
        <ele>416</ele>
        <time>2017-09-16T14:44:13Z</time>
      </trkpt>
      <trkpt lat="44.38759" lon="2.33719">
        <ele>416</ele>
        <time>2017-09-16T14:44:16Z</time>
      </trkpt>
      <trkpt lat="44.38753" lon="2.33727">
        <ele>415</ele>
        <time>2017-09-16T14:44:22Z</time>
      </trkpt>
      <trkpt lat="44.3875" lon="2.3373">
        <ele>414</ele>
        <time>2017-09-16T14:44:25Z</time>
      </trkpt>
      <trkpt lat="44.38745" lon="2.33737">
        <ele>414</ele>
        <time>2017-09-16T14:44:33Z</time>
      </trkpt>
      <trkpt lat="44.38742" lon="2.33741">
        <ele>414</ele>
        <time>2017-09-16T14:44:36Z</time>
      </trkpt>
      <trkpt lat="44.38739" lon="2.33745">
        <ele>414</ele>
        <time>2017-09-16T14:44:40Z</time>
      </trkpt>
      <trkpt lat="44.38737" lon="2.33749">
        <ele>414</ele>
        <time>2017-09-16T14:44:44Z</time>
      </trkpt>
      <trkpt lat="44.38735" lon="2.33754">
        <ele>413</ele>
        <time>2017-09-16T14:45:19Z</time>
      </trkpt>
      <trkpt lat="44.38736" lon="2.33749">
        <ele>414</ele>
        <time>2017-09-16T14:46:20Z</time>
      </trkpt>
      <trkpt lat="44.38734" lon="2.33752">
        <ele>413</ele>
        <time>2017-09-16T14:50:02Z</time>
      </trkpt>
      <trkpt lat="44.38736" lon="2.33757">
        <ele>413</ele>
        <time>2017-09-16T14:46:35Z</time>
      </trkpt>
      <trkpt lat="44.38739" lon="2.33755">
        <ele>413</ele>
        <time>2017-09-16T14:46:39Z</time>
      </trkpt>
      <trkpt lat="44.38738" lon="2.33752">
        <ele>413</ele>
        <time>2017-09-16T14:47:19Z</time>
      </trkpt>
      <trkpt lat="44.38733" lon="2.33752">
        <ele>413</ele>
        <time>2017-09-16T15:10:22Z</time>
      </trkpt>
      <trkpt lat="44.38733" lon="2.33757">
        <ele>413</ele>
        <time>2017-09-16T14:47:38Z</time>
      </trkpt>
      <trkpt lat="44.38736" lon="2.33761">
        <ele>413</ele>
        <time>2017-09-16T14:47:42Z</time>
      </trkpt>
      <trkpt lat="44.38737" lon="2.33753">
        <ele>413</ele>
        <time>2017-09-16T14:48:29Z</time>
      </trkpt>
      <trkpt lat="44.3874" lon="2.33754">
        <ele>412</ele>
        <time>2017-09-16T15:28:09Z</time>
      </trkpt>
      <trkpt lat="44.38737" lon="2.33748">
        <ele>414</ele>
        <time>2017-09-16T14:49:36Z</time>
      </trkpt>
      <trkpt lat="44.38737" lon="2.33743">
        <ele>414</ele>
        <time>2017-09-16T14:49:41Z</time>
      </trkpt>
      <trkpt lat="44.38734" lon="2.33742">
        <ele>415</ele>
        <time>2017-09-16T14:49:47Z</time>
      </trkpt>
      <trkpt lat="44.38733" lon="2.33748">
        <ele>415</ele>
        <time>2017-09-16T14:59:09Z</time>
      </trkpt>
      <trkpt lat="44.38734" lon="2.33752">
        <ele>413</ele>
        <time>2017-09-16T14:50:02Z</time>
      </trkpt>
      <trkpt lat="44.38735" lon="2.33752">
        <ele>413</ele>
        <time>2017-09-16T14:53:40Z</time>
      </trkpt>
      <trkpt lat="44.38738" lon="2.33754">
        <ele>413</ele>
        <time>2017-09-16T15:20:18Z</time>
      </trkpt>
      <trkpt lat="44.3874" lon="2.33759">
        <ele>413</ele>
        <time>2017-09-16T14:51:47Z</time>
      </trkpt>
      <trkpt lat="44.38738" lon="2.33757">
        <ele>413</ele>
        <time>2017-09-16T14:52:19Z</time>
      </trkpt>
      <trkpt lat="44.38736" lon="2.33752">
        <ele>413</ele>
        <time>2017-09-16T14:52:32Z</time>
      </trkpt>
      <trkpt lat="44.38734" lon="2.33746">
        <ele>414</ele>
        <time>2017-09-16T14:52:35Z</time>
      </trkpt>
      <trkpt lat="44.3873" lon="2.33746">
        <ele>415</ele>
        <time>2017-09-16T14:59:21Z</time>
      </trkpt>
      <trkpt lat="44.3873" lon="2.33742">
        <ele>415</ele>
        <time>2017-09-16T14:53:23Z</time>
      </trkpt>
      <trkpt lat="44.38732" lon="2.33747">
        <ele>415</ele>
        <time>2017-09-16T14:53:35Z</time>
      </trkpt>
      <trkpt lat="44.38735" lon="2.33752">
        <ele>413</ele>
        <time>2017-09-16T14:53:40Z</time>
      </trkpt>
      <trkpt lat="44.38738" lon="2.33754">
        <ele>413</ele>
        <time>2017-09-16T15:20:18Z</time>
      </trkpt>
      <trkpt lat="44.38741" lon="2.33757">
        <ele>412</ele>
        <time>2017-09-16T14:53:49Z</time>
      </trkpt>
      <trkpt lat="44.38741" lon="2.33751">
        <ele>412</ele>
        <time>2017-09-16T14:53:59Z</time>
      </trkpt>
      <trkpt lat="44.38739" lon="2.33748">
        <ele>413</ele>
        <time>2017-09-16T14:55:19Z</time>
      </trkpt>
      <trkpt lat="44.38736" lon="2.33745">
        <ele>414</ele>
        <time>2017-09-16T14:55:23Z</time>
      </trkpt>
      <trkpt lat="44.38731" lon="2.33743">
        <ele>415</ele>
        <time>2017-09-16T14:55:57Z</time>
      </trkpt>
      <trkpt lat="44.3873" lon="2.33748">
        <ele>415</ele>
        <time>2017-09-16T14:56:11Z</time>
      </trkpt>
      <trkpt lat="44.38738" lon="2.3375">
        <ele>413</ele>
        <time>2017-09-16T14:56:18Z</time>
      </trkpt>
      <trkpt lat="44.38741" lon="2.33753">
        <ele>412</ele>
        <time>2017-09-16T15:29:37Z</time>
      </trkpt>
      <trkpt lat="44.38736" lon="2.33748">
        <ele>414</ele>
        <time>2017-09-16T14:58:49Z</time>
      </trkpt>
      <trkpt lat="44.38733" lon="2.33748">
        <ele>414</ele>
        <time>2017-09-16T14:59:09Z</time>
      </trkpt>
      <trkpt lat="44.3873" lon="2.33746">
        <ele>415</ele>
        <time>2017-09-16T14:59:21Z</time>
      </trkpt>
      <trkpt lat="44.38732" lon="2.33744">
        <ele>415</ele>
        <time>2017-09-16T15:00:20Z</time>
      </trkpt>
      <trkpt lat="44.38733" lon="2.33749">
        <ele>414</ele>
        <time>2017-09-16T15:01:15Z</time>
      </trkpt>
      <trkpt lat="44.38731" lon="2.33754">
        <ele>414</ele>
        <time>2017-09-16T15:01:23Z</time>
      </trkpt>
      <trkpt lat="44.38728" lon="2.33756">
        <ele>414</ele>
        <time>2017-09-16T15:01:27Z</time>
      </trkpt>
      <trkpt lat="44.38725" lon="2.33758">
        <ele>414</ele>
        <time>2017-09-16T15:01:29Z</time>
      </trkpt>
      <trkpt lat="44.38718" lon="2.33763">
        <ele>415</ele>
        <time>2017-09-16T15:01:38Z</time>
      </trkpt>
      <trkpt lat="44.38714" lon="2.33766">
        <ele>415</ele>
        <time>2017-09-16T15:01:44Z</time>
      </trkpt>
      <trkpt lat="44.3871" lon="2.33768">
        <ele>416</ele>
        <time>2017-09-16T15:01:48Z</time>
      </trkpt>
      <trkpt lat="44.38701" lon="2.33774">
        <ele>416</ele>
        <time>2017-09-16T15:01:56Z</time>
      </trkpt>
      <trkpt lat="44.38695" lon="2.33773">
        <ele>416</ele>
        <time>2017-09-16T15:02:06Z</time>
      </trkpt>
      <trkpt lat="44.38693" lon="2.33775">
        <ele>416</ele>
        <time>2017-09-16T15:02:10Z</time>
      </trkpt>
      <trkpt lat="44.38693" lon="2.33774">
        <ele>416</ele>
        <time>2017-09-16T15:02:36Z</time>
      </trkpt>
      <trkpt lat="44.38697" lon="2.33773">
        <ele>416</ele>
        <time>2017-09-16T15:02:39Z</time>
      </trkpt>
      <trkpt lat="44.38701" lon="2.33771">
        <ele>416</ele>
        <time>2017-09-16T15:02:45Z</time>
      </trkpt>
      <trkpt lat="44.38704" lon="2.33768">
        <ele>416</ele>
        <time>2017-09-16T15:02:49Z</time>
      </trkpt>
      <trkpt lat="44.38707" lon="2.33767">
        <ele>416</ele>
        <time>2017-09-16T15:02:53Z</time>
      </trkpt>
      <trkpt lat="44.38711" lon="2.33765">
        <ele>415</ele>
        <time>2017-09-16T15:03:00Z</time>
      </trkpt>
      <trkpt lat="44.38721" lon="2.33759">
        <ele>415</ele>
        <time>2017-09-16T15:03:14Z</time>
      </trkpt>
      <trkpt lat="44.38718" lon="2.33759">
        <ele>415</ele>
        <time>2017-09-16T15:04:05Z</time>
      </trkpt>
      <trkpt lat="44.38714" lon="2.3376">
        <ele>415</ele>
        <time>2017-09-16T15:04:11Z</time>
      </trkpt>
      <trkpt lat="44.38707" lon="2.33765">
        <ele>416</ele>
        <time>2017-09-16T15:04:18Z</time>
      </trkpt>
      <trkpt lat="44.387" lon="2.33767">
        <ele>416</ele>
        <time>2017-09-16T15:04:28Z</time>
      </trkpt>
      <trkpt lat="44.38696" lon="2.33768">
        <ele>416</ele>
        <time>2017-09-16T15:04:31Z</time>
      </trkpt>
      <trkpt lat="44.38692" lon="2.33768">
        <ele>416</ele>
        <time>2017-09-16T15:04:35Z</time>
      </trkpt>
      <trkpt lat="44.38687" lon="2.33768">
        <ele>416</ele>
        <time>2017-09-16T15:04:40Z</time>
      </trkpt>
      <trkpt lat="44.38682" lon="2.33767">
        <ele>417</ele>
        <time>2017-09-16T15:04:44Z</time>
      </trkpt>
      <trkpt lat="44.38683" lon="2.33767">
        <ele>417</ele>
        <time>2017-09-16T15:05:08Z</time>
      </trkpt>
      <trkpt lat="44.38686" lon="2.3377">
        <ele>416</ele>
        <time>2017-09-16T15:05:13Z</time>
      </trkpt>
      <trkpt lat="44.38689" lon="2.33768">
        <ele>416</ele>
        <time>2017-09-16T15:05:34Z</time>
      </trkpt>
      <trkpt lat="44.38691" lon="2.33773">
        <ele>416</ele>
        <time>2017-09-16T15:05:51Z</time>
      </trkpt>
      <trkpt lat="44.38693" lon="2.33772">
        <ele>416</ele>
        <time>2017-09-16T15:06:09Z</time>
      </trkpt>
      <trkpt lat="44.38696" lon="2.3377">
        <ele>416</ele>
        <time>2017-09-16T15:06:14Z</time>
      </trkpt>
      <trkpt lat="44.38706" lon="2.33764">
        <ele>416</ele>
        <time>2017-09-16T15:06:25Z</time>
      </trkpt>
      <trkpt lat="44.38709" lon="2.33761">
        <ele>416</ele>
        <time>2017-09-16T15:07:01Z</time>
      </trkpt>
      <trkpt lat="44.38715" lon="2.33764">
        <ele>415</ele>
        <time>2017-09-16T15:07:11Z</time>
      </trkpt>
      <trkpt lat="44.38721" lon="2.33762">
        <ele>415</ele>
        <time>2017-09-16T15:07:17Z</time>
      </trkpt>
      <trkpt lat="44.38727" lon="2.33748">
        <ele>415</ele>
        <time>2017-09-16T15:07:29Z</time>
      </trkpt>
      <trkpt lat="44.38732" lon="2.33746">
        <ele>415</ele>
        <time>2017-09-16T15:08:37Z</time>
      </trkpt>
      <trkpt lat="44.38733" lon="2.33739">
        <ele>415</ele>
        <time>2017-09-16T15:08:44Z</time>
      </trkpt>
      <trkpt lat="44.3874" lon="2.33753">
        <ele>412</ele>
        <time>2017-09-16T15:09:28Z</time>
      </trkpt>
      <trkpt lat="44.38738" lon="2.33755">
        <ele>413</ele>
        <time>2017-09-16T15:10:00Z</time>
      </trkpt>
      <trkpt lat="44.38733" lon="2.33752">
        <ele>413</ele>
        <time>2017-09-16T15:10:22Z</time>
      </trkpt>
      <trkpt lat="44.38729" lon="2.33749">
        <ele>415</ele>
        <time>2017-09-16T15:10:24Z</time>
      </trkpt>
      <trkpt lat="44.38733" lon="2.33744">
        <ele>415</ele>
        <time>2017-09-16T15:11:00Z</time>
      </trkpt>
      <trkpt lat="44.38739" lon="2.33744">
        <ele>414</ele>
        <time>2017-09-16T15:11:56Z</time>
      </trkpt>
      <trkpt lat="44.3874" lon="2.33752">
        <ele>412</ele>
        <time>2017-09-16T15:12:08Z</time>
      </trkpt>
      <trkpt lat="44.38742" lon="2.33757">
        <ele>412</ele>
        <time>2017-09-16T15:12:11Z</time>
      </trkpt>
      <trkpt lat="44.38744" lon="2.33762">
        <ele>413</ele>
        <time>2017-09-16T15:12:17Z</time>
      </trkpt>
      <trkpt lat="44.38743" lon="2.33758">
        <ele>412</ele>
        <time>2017-09-16T15:27:35Z</time>
      </trkpt>
      <trkpt lat="44.38743" lon="2.33754">
        <ele>412</ele>
        <time>2017-09-16T15:13:18Z</time>
      </trkpt>
      <trkpt lat="44.38744" lon="2.33752">
        <ele>412</ele>
        <time>2017-09-16T15:13:42Z</time>
      </trkpt>
      <trkpt lat="44.38745" lon="2.33757">
        <ele>412</ele>
        <time>2017-09-16T15:31:55Z</time>
      </trkpt>
      <trkpt lat="44.38743" lon="2.33761">
        <ele>413</ele>
        <time>2017-09-16T15:31:32Z</time>
      </trkpt>
      <trkpt lat="44.38741" lon="2.33759">
        <ele>413</ele>
        <time>2017-09-16T15:14:43Z</time>
      </trkpt>
      <trkpt lat="44.38744" lon="2.33755">
        <ele>412</ele>
        <time>2017-09-16T15:27:32Z</time>
      </trkpt>
      <trkpt lat="44.38744" lon="2.33755">
        <ele>412</ele>
        <time>2017-09-16T15:27:32Z</time>
      </trkpt>
      <trkpt lat="44.38742" lon="2.3375">
        <ele>412</ele>
        <time>2017-09-16T15:17:31Z</time>
      </trkpt>
      <trkpt lat="44.3874" lon="2.33748">
        <ele>413</ele>
        <time>2017-09-16T15:17:50Z</time>
      </trkpt>
      <trkpt lat="44.38741" lon="2.33754">
        <ele>412</ele>
        <time>2017-09-16T15:26:56Z</time>
      </trkpt>
      <trkpt lat="44.38744" lon="2.33753">
        <ele>412</ele>
        <time>2017-09-16T15:18:44Z</time>
      </trkpt>
      <trkpt lat="44.38741" lon="2.33761">
        <ele>413</ele>
        <time>2017-09-16T15:19:49Z</time>
      </trkpt>
      <trkpt lat="44.38742" lon="2.33758">
        <ele>413</ele>
        <time>2017-09-16T15:19:51Z</time>
      </trkpt>
      <trkpt lat="44.38741" lon="2.33754">
        <ele>412</ele>
        <time>2017-09-16T15:26:56Z</time>
      </trkpt>
      <trkpt lat="44.3874" lon="2.33752">
        <ele>412</ele>
        <time>2017-09-16T15:20:05Z</time>
      </trkpt>
      <trkpt lat="44.38738" lon="2.33754">
        <ele>413</ele>
        <time>2017-09-16T15:20:18Z</time>
      </trkpt>
      <trkpt lat="44.38741" lon="2.33754">
        <ele>412</ele>
        <time>2017-09-16T15:26:56Z</time>
      </trkpt>
      <trkpt lat="44.38743" lon="2.33755">
        <ele>412</ele>
        <time>2017-09-16T15:32:01Z</time>
      </trkpt>
      <trkpt lat="44.38743" lon="2.33758">
        <ele>412</ele>
        <time>2017-09-16T15:27:35Z</time>
      </trkpt>
      <trkpt lat="44.38743" lon="2.33756">
        <ele>412</ele>
        <time>2017-09-16T15:26:09Z</time>
      </trkpt>
      <trkpt lat="44.38741" lon="2.33755">
        <ele>412</ele>
        <time>2017-09-16T15:26:11Z</time>
      </trkpt>
      <trkpt lat="44.3874" lon="2.33754">
        <ele>412</ele>
        <time>2017-09-16T15:28:09Z</time>
      </trkpt>
      <trkpt lat="44.3874" lon="2.3375">
        <ele>412</ele>
        <time>2017-09-16T15:26:20Z</time>
      </trkpt>
      <trkpt lat="44.38738" lon="2.33747">
        <ele>413</ele>
        <time>2017-09-16T15:26:26Z</time>
      </trkpt>
      <trkpt lat="44.38739" lon="2.33751">
        <ele>412</ele>
        <time>2017-09-16T15:26:41Z</time>
      </trkpt>
      <trkpt lat="44.3874" lon="2.33755">
        <ele>412</ele>
        <time>2017-09-16T15:26:44Z</time>
      </trkpt>
      <trkpt lat="44.38741" lon="2.33755">
        <ele>412</ele>
        <time>2017-09-16T15:26:56Z</time>
      </trkpt>
      <trkpt lat="44.38744" lon="2.33755">
        <ele>412</ele>
        <time>2017-09-16T15:27:32Z</time>
      </trkpt>
      <trkpt lat="44.38743" lon="2.33758">
        <ele>412</ele>
        <time>2017-09-16T15:27:35Z</time>
      </trkpt>
      <trkpt lat="44.38739" lon="2.33758">
        <ele>413</ele>
        <time>2017-09-16T15:28:06Z</time>
      </trkpt>
      <trkpt lat="44.3874" lon="2.33754">
        <ele>412</ele>
        <time>2017-09-16T15:28:09Z</time>
      </trkpt>
      <trkpt lat="44.38741" lon="2.33752">
        <ele>412</ele>
        <time>2017-09-16T15:28:25Z</time>
      </trkpt>
      <trkpt lat="44.38741" lon="2.33753">
        <ele>412</ele>
        <time>2017-09-16T15:29:37Z</time>
      </trkpt>
      <trkpt lat="44.38742" lon="2.33753">
        <ele>412</ele>
        <time>2017-09-16T15:29:56Z</time>
      </trkpt>
      <trkpt lat="44.38761" lon="2.33776">
        <ele>420</ele>
        <time>2017-09-16T15:31:17Z</time>
      </trkpt>
      <trkpt lat="44.38751" lon="2.33777">
        <ele>419</ele>
        <time>2017-09-16T15:31:20Z</time>
      </trkpt>
      <trkpt lat="44.38746" lon="2.33768">
        <ele>414</ele>
        <time>2017-09-16T15:31:24Z</time>
      </trkpt>
      <trkpt lat="44.38743" lon="2.33761">
        <ele>413</ele>
        <time>2017-09-16T15:31:32Z</time>
      </trkpt>
      <trkpt lat="44.38745" lon="2.33757">
        <ele>412</ele>
        <time>2017-09-16T15:31:55Z</time>
      </trkpt>
      <trkpt lat="44.38743" lon="2.33755">
        <ele>412</ele>
        <time>2017-09-16T15:32:01Z</time>
      </trkpt>
    </trkseg>
  </trk>
</gpx>